<?xml version="1.0" encoding="UTF-8" standalone="no" ?>
<gpx xmlns="http://www.topografix.com/GPX/1/1" xmlns:xsi="http://www.w3.org/2001/XMLSchema-instance" xsi:schemaLocation="http://www.topografix.com/GPX/1/1 http://www.topografix.com/GPX/1/1/gpx.xsd" version="1.1" creator="VisuGPX - https://www.visugpx.com">
  <metadata>
    <name>RANDO MAZET CHAMBON SUR LIGNON 24 KM</name>
    <desc><![CDATA[RANDO MAZET ST VOY CHAMBON SUR LIGNON 24 KM.DEPART ARRIVEE CAMPING DU MAZET.LES RUCHES.MAZALIBRAND.MAGELGIRARD.SALETTES.LE DRAGON.LE FRAISSE.LES CHATOUX.PATRON.ASTIER.LES EGAUX.LA CUMINE.]]></desc>
  </metadata>
  <trk>
    <name><![CDATA[22-AOU-24 15:52:31]]></name>
    <desc><![CDATA[





]]></desc>
    <extensions>
      <line xmlns="http://www.topografix.com/GPX/gpx_style/0/2">
        <color>0000FF</color>
        <width>4</width>
      </line>
    </extensions>
    <trkseg>
      <trkpt lat="45.05492" lon="4.25139">
        <ele>1024.42</ele>
        <time>2024-08-22T07:02:35Z</time>
      </trkpt>
      <trkpt lat="45.05482" lon="4.2513">
        <ele>1024.42</ele>
        <time>2024-08-22T07:02:51Z</time>
      </trkpt>
      <trkpt lat="45.05483" lon="4.25131">
        <ele>1022.98</ele>
        <time>2024-08-22T07:03:08Z</time>
      </trkpt>
      <trkpt lat="45.05483" lon="4.25129">
        <ele>1023.94</ele>
        <time>2024-08-22T07:03:22Z</time>
      </trkpt>
      <trkpt lat="45.05485" lon="4.25129">
        <ele>1026.34</ele>
        <time>2024-08-22T07:03:37Z</time>
      </trkpt>
      <trkpt lat="45.05485" lon="4.2513">
        <ele>1027.79</ele>
        <time>2024-08-22T07:04:01Z</time>
      </trkpt>
      <trkpt lat="45.05485" lon="4.2513">
        <ele>1028.27</ele>
        <time>2024-08-22T07:04:22Z</time>
      </trkpt>
      <trkpt lat="45.05483" lon="4.25129">
        <ele>1025.86</ele>
        <time>2024-08-22T07:04:40Z</time>
      </trkpt>
      <trkpt lat="45.05483" lon="4.2513">
        <ele>1024.9</ele>
        <time>2024-08-22T07:04:55Z</time>
      </trkpt>
      <trkpt lat="45.05484" lon="4.25137">
        <ele>1025.86</ele>
        <time>2024-08-22T07:05:08Z</time>
      </trkpt>
      <trkpt lat="45.05485" lon="4.25147">
        <ele>1026.34</ele>
        <time>2024-08-22T07:05:16Z</time>
      </trkpt>
      <trkpt lat="45.05486" lon="4.2515">
        <ele>1025.86</ele>
        <time>2024-08-22T07:05:18Z</time>
      </trkpt>
      <trkpt lat="45.05493" lon="4.2516">
        <ele>1024.9</ele>
        <time>2024-08-22T07:05:30Z</time>
      </trkpt>
      <trkpt lat="45.05499" lon="4.25166">
        <ele>1025.86</ele>
        <time>2024-08-22T07:05:39Z</time>
      </trkpt>
      <trkpt lat="45.05498" lon="4.25164">
        <ele>1026.34</ele>
        <time>2024-08-22T07:05:50Z</time>
      </trkpt>
      <trkpt lat="45.05497" lon="4.25163">
        <ele>1020.1</ele>
        <time>2024-08-22T07:06:20Z</time>
      </trkpt>
      <trkpt lat="45.05497" lon="4.25163">
        <ele>1019.13</ele>
        <time>2024-08-22T07:06:36Z</time>
      </trkpt>
      <trkpt lat="45.05498" lon="4.25165">
        <ele>1019.62</ele>
        <time>2024-08-22T07:06:38Z</time>
      </trkpt>
      <trkpt lat="45.05512" lon="4.25172">
        <ele>1020.58</ele>
        <time>2024-08-22T07:06:43Z</time>
      </trkpt>
      <trkpt lat="45.05549" lon="4.25185">
        <ele>1020.1</ele>
        <time>2024-08-22T07:06:56Z</time>
      </trkpt>
      <trkpt lat="45.05574" lon="4.25194">
        <ele>1019.62</ele>
        <time>2024-08-22T07:07:07Z</time>
      </trkpt>
      <trkpt lat="45.05582" lon="4.25198">
        <ele>1018.17</ele>
        <time>2024-08-22T07:07:10Z</time>
      </trkpt>
      <trkpt lat="45.0559" lon="4.25207">
        <ele>1017.69</ele>
        <time>2024-08-22T07:07:15Z</time>
      </trkpt>
      <trkpt lat="45.05593" lon="4.25211">
        <ele>1018.17</ele>
        <time>2024-08-22T07:07:17Z</time>
      </trkpt>
      <trkpt lat="45.05604" lon="4.25218">
        <ele>1020.1</ele>
        <time>2024-08-22T07:07:25Z</time>
      </trkpt>
      <trkpt lat="45.05626" lon="4.25224">
        <ele>1026.83</ele>
        <time>2024-08-22T07:07:41Z</time>
      </trkpt>
      <trkpt lat="45.05631" lon="4.25224">
        <ele>1028.75</ele>
        <time>2024-08-22T07:07:44Z</time>
      </trkpt>
      <trkpt lat="45.05652" lon="4.25209">
        <ele>1032.11</ele>
        <time>2024-08-22T07:08:01Z</time>
      </trkpt>
      <trkpt lat="45.05667" lon="4.25189">
        <ele>1028.27</ele>
        <time>2024-08-22T07:08:15Z</time>
      </trkpt>
      <trkpt lat="45.05683" lon="4.25175">
        <ele>1024.42</ele>
        <time>2024-08-22T07:08:30Z</time>
      </trkpt>
      <trkpt lat="45.05684" lon="4.25174">
        <ele>1024.42</ele>
        <time>2024-08-22T07:08:31Z</time>
      </trkpt>
      <trkpt lat="45.05691" lon="4.25166">
        <ele>1022.5</ele>
        <time>2024-08-22T07:08:38Z</time>
      </trkpt>
      <trkpt lat="45.05712" lon="4.25144">
        <ele>1016.25</ele>
        <time>2024-08-22T07:08:58Z</time>
      </trkpt>
      <trkpt lat="45.05732" lon="4.25126">
        <ele>1013.37</ele>
        <time>2024-08-22T07:09:16Z</time>
      </trkpt>
      <trkpt lat="45.05755" lon="4.25107">
        <ele>1012.89</ele>
        <time>2024-08-22T07:09:36Z</time>
      </trkpt>
      <trkpt lat="45.05768" lon="4.25098">
        <ele>1011.93</ele>
        <time>2024-08-22T07:09:47Z</time>
      </trkpt>
      <trkpt lat="45.05789" lon="4.2509">
        <ele>1008.56</ele>
        <time>2024-08-22T07:10:04Z</time>
      </trkpt>
      <trkpt lat="45.05812" lon="4.25095">
        <ele>1005.2</ele>
        <time>2024-08-22T07:10:22Z</time>
      </trkpt>
      <trkpt lat="45.05836" lon="4.25096">
        <ele>1005.68</ele>
        <time>2024-08-22T07:10:39Z</time>
      </trkpt>
      <trkpt lat="45.05858" lon="4.25101">
        <ele>1005.68</ele>
        <time>2024-08-22T07:10:57Z</time>
      </trkpt>
      <trkpt lat="45.05878" lon="4.25112">
        <ele>1007.12</ele>
        <time>2024-08-22T07:11:14Z</time>
      </trkpt>
      <trkpt lat="45.05894" lon="4.25122">
        <ele>1011.93</ele>
        <time>2024-08-22T07:11:32Z</time>
      </trkpt>
      <trkpt lat="45.05898" lon="4.25124">
        <ele>1012.41</ele>
        <time>2024-08-22T07:11:35Z</time>
      </trkpt>
      <trkpt lat="45.05919" lon="4.25147">
        <ele>1011.93</ele>
        <time>2024-08-22T07:11:54Z</time>
      </trkpt>
      <trkpt lat="45.05936" lon="4.2516">
        <ele>1016.73</ele>
        <time>2024-08-22T07:12:13Z</time>
      </trkpt>
      <trkpt lat="45.05951" lon="4.25172">
        <ele>1024.42</ele>
        <time>2024-08-22T07:12:32Z</time>
      </trkpt>
      <trkpt lat="45.05961" lon="4.25179">
        <ele>1026.34</ele>
        <time>2024-08-22T07:12:42Z</time>
      </trkpt>
      <trkpt lat="45.05973" lon="4.25195">
        <ele>1023.46</ele>
        <time>2024-08-22T07:12:46Z</time>
      </trkpt>
      <trkpt lat="45.05998" lon="4.25216">
        <ele>1020.1</ele>
        <time>2024-08-22T07:13:01Z</time>
      </trkpt>
      <trkpt lat="45.06019" lon="4.25228">
        <ele>1018.65</ele>
        <time>2024-08-22T07:13:18Z</time>
      </trkpt>
      <trkpt lat="45.0604" lon="4.25234">
        <ele>1015.29</ele>
        <time>2024-08-22T07:13:33Z</time>
      </trkpt>
      <trkpt lat="45.06051" lon="4.25236">
        <ele>1011.93</ele>
        <time>2024-08-22T07:13:42Z</time>
      </trkpt>
      <trkpt lat="45.06056" lon="4.25236">
        <ele>1010.48</ele>
        <time>2024-08-22T07:13:46Z</time>
      </trkpt>
      <trkpt lat="45.06082" lon="4.25245">
        <ele>1003.27</ele>
        <time>2024-08-22T07:14:06Z</time>
      </trkpt>
      <trkpt lat="45.06104" lon="4.25257">
        <ele>998.95</ele>
        <time>2024-08-22T07:14:24Z</time>
      </trkpt>
      <trkpt lat="45.06127" lon="4.2527">
        <ele>997.99</ele>
        <time>2024-08-22T07:14:42Z</time>
      </trkpt>
      <trkpt lat="45.06148" lon="4.25279">
        <ele>997.99</ele>
        <time>2024-08-22T07:14:59Z</time>
      </trkpt>
      <trkpt lat="45.06172" lon="4.25283">
        <ele>997.99</ele>
        <time>2024-08-22T07:15:19Z</time>
      </trkpt>
      <trkpt lat="45.06178" lon="4.25283">
        <ele>997.99</ele>
        <time>2024-08-22T07:15:25Z</time>
      </trkpt>
      <trkpt lat="45.06189" lon="4.25287">
        <ele>998.47</ele>
        <time>2024-08-22T07:15:41Z</time>
      </trkpt>
      <trkpt lat="45.062" lon="4.25295">
        <ele>998.47</ele>
        <time>2024-08-22T07:15:56Z</time>
      </trkpt>
      <trkpt lat="45.06213" lon="4.25302">
        <ele>997.02</ele>
        <time>2024-08-22T07:16:10Z</time>
      </trkpt>
      <trkpt lat="45.06223" lon="4.25308">
        <ele>997.02</ele>
        <time>2024-08-22T07:16:20Z</time>
      </trkpt>
      <trkpt lat="45.0623" lon="4.25314">
        <ele>996.06</ele>
        <time>2024-08-22T07:16:35Z</time>
      </trkpt>
      <trkpt lat="45.06244" lon="4.25326">
        <ele>996.54</ele>
        <time>2024-08-22T07:16:49Z</time>
      </trkpt>
      <trkpt lat="45.06257" lon="4.25335">
        <ele>998.95</ele>
        <time>2024-08-22T07:17:01Z</time>
      </trkpt>
      <trkpt lat="45.06274" lon="4.25342">
        <ele>999.91</ele>
        <time>2024-08-22T07:17:14Z</time>
      </trkpt>
      <trkpt lat="45.06298" lon="4.25353">
        <ele>993.66</ele>
        <time>2024-08-22T07:17:28Z</time>
      </trkpt>
      <trkpt lat="45.06323" lon="4.25355">
        <ele>993.66</ele>
        <time>2024-08-22T07:17:43Z</time>
      </trkpt>
      <trkpt lat="45.06342" lon="4.25354">
        <ele>993.66</ele>
        <time>2024-08-22T07:17:58Z</time>
      </trkpt>
      <trkpt lat="45.06357" lon="4.25349">
        <ele>988.37</ele>
        <time>2024-08-22T07:18:14Z</time>
      </trkpt>
      <trkpt lat="45.06375" lon="4.25344">
        <ele>987.41</ele>
        <time>2024-08-22T07:18:28Z</time>
      </trkpt>
      <trkpt lat="45.06386" lon="4.25343">
        <ele>987.89</ele>
        <time>2024-08-22T07:18:40Z</time>
      </trkpt>
      <trkpt lat="45.06391" lon="4.25345">
        <ele>988.85</ele>
        <time>2024-08-22T07:18:47Z</time>
      </trkpt>
      <trkpt lat="45.06409" lon="4.25356">
        <ele>989.33</ele>
        <time>2024-08-22T07:19:02Z</time>
      </trkpt>
      <trkpt lat="45.06419" lon="4.25363">
        <ele>990.3</ele>
        <time>2024-08-22T07:19:13Z</time>
      </trkpt>
      <trkpt lat="45.06433" lon="4.25371">
        <ele>989.81</ele>
        <time>2024-08-22T07:19:26Z</time>
      </trkpt>
      <trkpt lat="45.06437" lon="4.25371">
        <ele>990.3</ele>
        <time>2024-08-22T07:19:30Z</time>
      </trkpt>
      <trkpt lat="45.06452" lon="4.25373">
        <ele>991.26</ele>
        <time>2024-08-22T07:19:46Z</time>
      </trkpt>
      <trkpt lat="45.06465" lon="4.25377">
        <ele>995.1</ele>
        <time>2024-08-22T07:19:59Z</time>
      </trkpt>
      <trkpt lat="45.06475" lon="4.25389">
        <ele>998.47</ele>
        <time>2024-08-22T07:20:13Z</time>
      </trkpt>
      <trkpt lat="45.06486" lon="4.254">
        <ele>1001.83</ele>
        <time>2024-08-22T07:20:27Z</time>
      </trkpt>
      <trkpt lat="45.06497" lon="4.25403">
        <ele>1005.2</ele>
        <time>2024-08-22T07:20:39Z</time>
      </trkpt>
      <trkpt lat="45.0651" lon="4.25404">
        <ele>1010.48</ele>
        <time>2024-08-22T07:20:54Z</time>
      </trkpt>
      <trkpt lat="45.06524" lon="4.2541">
        <ele>1006.64</ele>
        <time>2024-08-22T07:21:07Z</time>
      </trkpt>
      <trkpt lat="45.06535" lon="4.25412">
        <ele>1005.2</ele>
        <time>2024-08-22T07:21:13Z</time>
      </trkpt>
      <trkpt lat="45.06554" lon="4.25407">
        <ele>1005.2</ele>
        <time>2024-08-22T07:21:26Z</time>
      </trkpt>
      <trkpt lat="45.06571" lon="4.25415">
        <ele>1003.75</ele>
        <time>2024-08-22T07:21:41Z</time>
      </trkpt>
      <trkpt lat="45.06588" lon="4.25425">
        <ele>1002.31</ele>
        <time>2024-08-22T07:21:56Z</time>
      </trkpt>
      <trkpt lat="45.06609" lon="4.25432">
        <ele>1006.16</ele>
        <time>2024-08-22T07:22:15Z</time>
      </trkpt>
      <trkpt lat="45.06618" lon="4.2543">
        <ele>1006.64</ele>
        <time>2024-08-22T07:22:23Z</time>
      </trkpt>
      <trkpt lat="45.06621" lon="4.2543">
        <ele>1005.2</ele>
        <time>2024-08-22T07:22:26Z</time>
      </trkpt>
      <trkpt lat="45.06652" lon="4.25431">
        <ele>1000.39</ele>
        <time>2024-08-22T07:22:46Z</time>
      </trkpt>
      <trkpt lat="45.06666" lon="4.25426">
        <ele>1000.87</ele>
        <time>2024-08-22T07:22:57Z</time>
      </trkpt>
      <trkpt lat="45.0668" lon="4.25426">
        <ele>997.99</ele>
        <time>2024-08-22T07:23:10Z</time>
      </trkpt>
      <trkpt lat="45.06702" lon="4.25437">
        <ele>1000.39</ele>
        <time>2024-08-22T07:23:26Z</time>
      </trkpt>
      <trkpt lat="45.06722" lon="4.25458">
        <ele>998.47</ele>
        <time>2024-08-22T07:23:45Z</time>
      </trkpt>
      <trkpt lat="45.06737" lon="4.25464">
        <ele>1003.27</ele>
        <time>2024-08-22T07:23:59Z</time>
      </trkpt>
      <trkpt lat="45.0675" lon="4.25472">
        <ele>1008.08</ele>
        <time>2024-08-22T07:24:14Z</time>
      </trkpt>
      <trkpt lat="45.06762" lon="4.25476">
        <ele>1014.81</ele>
        <time>2024-08-22T07:24:26Z</time>
      </trkpt>
      <trkpt lat="45.06773" lon="4.25484">
        <ele>1019.13</ele>
        <time>2024-08-22T07:24:39Z</time>
      </trkpt>
      <trkpt lat="45.06794" lon="4.25504">
        <ele>1016.73</ele>
        <time>2024-08-22T07:24:52Z</time>
      </trkpt>
      <trkpt lat="45.06806" lon="4.25517">
        <ele>1016.25</ele>
        <time>2024-08-22T07:25:06Z</time>
      </trkpt>
      <trkpt lat="45.06807" lon="4.2552">
        <ele>1016.25</ele>
        <time>2024-08-22T07:25:08Z</time>
      </trkpt>
      <trkpt lat="45.0681" lon="4.25535">
        <ele>1015.29</ele>
        <time>2024-08-22T07:25:22Z</time>
      </trkpt>
      <trkpt lat="45.0681" lon="4.25539">
        <ele>1012.41</ele>
        <time>2024-08-22T07:25:35Z</time>
      </trkpt>
      <trkpt lat="45.06818" lon="4.25558">
        <ele>1013.37</ele>
        <time>2024-08-22T07:25:49Z</time>
      </trkpt>
      <trkpt lat="45.06834" lon="4.25568">
        <ele>1016.73</ele>
        <time>2024-08-22T07:26:04Z</time>
      </trkpt>
      <trkpt lat="45.06851" lon="4.25578">
        <ele>1019.62</ele>
        <time>2024-08-22T07:26:20Z</time>
      </trkpt>
      <trkpt lat="45.06854" lon="4.2558">
        <ele>1020.58</ele>
        <time>2024-08-22T07:26:24Z</time>
      </trkpt>
      <trkpt lat="45.06872" lon="4.25594">
        <ele>1022.98</ele>
        <time>2024-08-22T07:26:39Z</time>
      </trkpt>
      <trkpt lat="45.06892" lon="4.25602">
        <ele>1024.9</ele>
        <time>2024-08-22T07:26:55Z</time>
      </trkpt>
      <trkpt lat="45.06903" lon="4.25604">
        <ele>1025.38</ele>
        <time>2024-08-22T07:27:03Z</time>
      </trkpt>
      <trkpt lat="45.06915" lon="4.25596">
        <ele>1026.83</ele>
        <time>2024-08-22T07:27:14Z</time>
      </trkpt>
      <trkpt lat="45.06923" lon="4.25594">
        <ele>1027.31</ele>
        <time>2024-08-22T07:27:19Z</time>
      </trkpt>
      <trkpt lat="45.06946" lon="4.25586">
        <ele>1028.75</ele>
        <time>2024-08-22T07:27:36Z</time>
      </trkpt>
      <trkpt lat="45.06964" lon="4.25583">
        <ele>1027.79</ele>
        <time>2024-08-22T07:27:50Z</time>
      </trkpt>
      <trkpt lat="45.06981" lon="4.2558">
        <ele>1028.75</ele>
        <time>2024-08-22T07:28:04Z</time>
      </trkpt>
      <trkpt lat="45.0699" lon="4.2558">
        <ele>1028.75</ele>
        <time>2024-08-22T07:28:13Z</time>
      </trkpt>
      <trkpt lat="45.07005" lon="4.25576">
        <ele>1030.19</ele>
        <time>2024-08-22T07:28:27Z</time>
      </trkpt>
      <trkpt lat="45.07022" lon="4.25571">
        <ele>1034.04</ele>
        <time>2024-08-22T07:28:42Z</time>
      </trkpt>
      <trkpt lat="45.07037" lon="4.25563">
        <ele>1033.07</ele>
        <time>2024-08-22T07:28:55Z</time>
      </trkpt>
      <trkpt lat="45.07054" lon="4.25555">
        <ele>1033.55</ele>
        <time>2024-08-22T07:29:09Z</time>
      </trkpt>
      <trkpt lat="45.07075" lon="4.25549">
        <ele>1037.4</ele>
        <time>2024-08-22T07:29:25Z</time>
      </trkpt>
      <trkpt lat="45.07095" lon="4.25556">
        <ele>1038.36</ele>
        <time>2024-08-22T07:29:40Z</time>
      </trkpt>
      <trkpt lat="45.07103" lon="4.2556">
        <ele>1038.84</ele>
        <time>2024-08-22T07:29:47Z</time>
      </trkpt>
      <trkpt lat="45.07115" lon="4.25572">
        <ele>1042.21</ele>
        <time>2024-08-22T07:30:01Z</time>
      </trkpt>
      <trkpt lat="45.07131" lon="4.25581">
        <ele>1046.05</ele>
        <time>2024-08-22T07:30:16Z</time>
      </trkpt>
      <trkpt lat="45.07146" lon="4.25586">
        <ele>1046.53</ele>
        <time>2024-08-22T07:30:28Z</time>
      </trkpt>
      <trkpt lat="45.07158" lon="4.25595">
        <ele>1047.01</ele>
        <time>2024-08-22T07:30:39Z</time>
      </trkpt>
      <trkpt lat="45.07165" lon="4.25598">
        <ele>1047.01</ele>
        <time>2024-08-22T07:30:46Z</time>
      </trkpt>
      <trkpt lat="45.07175" lon="4.25606">
        <ele>1047.97</ele>
        <time>2024-08-22T07:30:50Z</time>
      </trkpt>
      <trkpt lat="45.07201" lon="4.2562">
        <ele>1051.82</ele>
        <time>2024-08-22T07:31:07Z</time>
      </trkpt>
      <trkpt lat="45.07219" lon="4.25624">
        <ele>1054.22</ele>
        <time>2024-08-22T07:31:22Z</time>
      </trkpt>
      <trkpt lat="45.07239" lon="4.25623">
        <ele>1053.74</ele>
        <time>2024-08-22T07:31:37Z</time>
      </trkpt>
      <trkpt lat="45.07242" lon="4.25623">
        <ele>1053.26</ele>
        <time>2024-08-22T07:31:40Z</time>
      </trkpt>
      <trkpt lat="45.07258" lon="4.2562">
        <ele>1051.82</ele>
        <time>2024-08-22T07:31:54Z</time>
      </trkpt>
      <trkpt lat="45.07262" lon="4.2562">
        <ele>1052.3</ele>
        <time>2024-08-22T07:31:57Z</time>
      </trkpt>
      <trkpt lat="45.07279" lon="4.25615">
        <ele>1052.78</ele>
        <time>2024-08-22T07:32:12Z</time>
      </trkpt>
      <trkpt lat="45.0729" lon="4.25613">
        <ele>1055.18</ele>
        <time>2024-08-22T07:32:23Z</time>
      </trkpt>
      <trkpt lat="45.073" lon="4.25611">
        <ele>1057.11</ele>
        <time>2024-08-22T07:32:34Z</time>
      </trkpt>
      <trkpt lat="45.07307" lon="4.25611">
        <ele>1058.55</ele>
        <time>2024-08-22T07:32:39Z</time>
      </trkpt>
      <trkpt lat="45.07322" lon="4.25613">
        <ele>1061.91</ele>
        <time>2024-08-22T07:32:53Z</time>
      </trkpt>
      <trkpt lat="45.07343" lon="4.25621">
        <ele>1064.32</ele>
        <time>2024-08-22T07:33:07Z</time>
      </trkpt>
      <trkpt lat="45.07371" lon="4.25634">
        <ele>1058.55</ele>
        <time>2024-08-22T07:33:23Z</time>
      </trkpt>
      <trkpt lat="45.07394" lon="4.25635">
        <ele>1055.67</ele>
        <time>2024-08-22T07:33:40Z</time>
      </trkpt>
      <trkpt lat="45.07414" lon="4.25634">
        <ele>1055.18</ele>
        <time>2024-08-22T07:33:55Z</time>
      </trkpt>
      <trkpt lat="45.07435" lon="4.25629">
        <ele>1055.18</ele>
        <time>2024-08-22T07:34:11Z</time>
      </trkpt>
      <trkpt lat="45.07458" lon="4.25625">
        <ele>1056.15</ele>
        <time>2024-08-22T07:34:28Z</time>
      </trkpt>
      <trkpt lat="45.07481" lon="4.25623">
        <ele>1057.59</ele>
        <time>2024-08-22T07:34:45Z</time>
      </trkpt>
      <trkpt lat="45.075" lon="4.2561">
        <ele>1059.03</ele>
        <time>2024-08-22T07:35:01Z</time>
      </trkpt>
      <trkpt lat="45.0752" lon="4.25601">
        <ele>1059.99</ele>
        <time>2024-08-22T07:35:16Z</time>
      </trkpt>
      <trkpt lat="45.07544" lon="4.25593">
        <ele>1061.91</ele>
        <time>2024-08-22T07:35:33Z</time>
      </trkpt>
      <trkpt lat="45.07564" lon="4.25591">
        <ele>1059.99</ele>
        <time>2024-08-22T07:35:48Z</time>
      </trkpt>
      <trkpt lat="45.07583" lon="4.25599">
        <ele>1057.59</ele>
        <time>2024-08-22T07:36:03Z</time>
      </trkpt>
      <trkpt lat="45.07599" lon="4.25611">
        <ele>1058.07</ele>
        <time>2024-08-22T07:36:19Z</time>
      </trkpt>
      <trkpt lat="45.07621" lon="4.25634">
        <ele>1058.07</ele>
        <time>2024-08-22T07:36:36Z</time>
      </trkpt>
      <trkpt lat="45.07641" lon="4.25653">
        <ele>1055.67</ele>
        <time>2024-08-22T07:36:52Z</time>
      </trkpt>
      <trkpt lat="45.07663" lon="4.25671">
        <ele>1053.26</ele>
        <time>2024-08-22T07:37:10Z</time>
      </trkpt>
      <trkpt lat="45.07683" lon="4.25676">
        <ele>1051.34</ele>
        <time>2024-08-22T07:37:26Z</time>
      </trkpt>
      <trkpt lat="45.07705" lon="4.2568">
        <ele>1049.42</ele>
        <time>2024-08-22T07:37:42Z</time>
      </trkpt>
      <trkpt lat="45.07734" lon="4.25684">
        <ele>1045.57</ele>
        <time>2024-08-22T07:38:02Z</time>
      </trkpt>
      <trkpt lat="45.07757" lon="4.25687">
        <ele>1041.73</ele>
        <time>2024-08-22T07:38:19Z</time>
      </trkpt>
      <trkpt lat="45.07777" lon="4.25689">
        <ele>1043.17</ele>
        <time>2024-08-22T07:38:35Z</time>
      </trkpt>
      <trkpt lat="45.07801" lon="4.25698">
        <ele>1044.13</ele>
        <time>2024-08-22T07:38:51Z</time>
      </trkpt>
      <trkpt lat="45.07822" lon="4.25709">
        <ele>1043.17</ele>
        <time>2024-08-22T07:39:07Z</time>
      </trkpt>
      <trkpt lat="45.0784" lon="4.25714">
        <ele>1044.61</ele>
        <time>2024-08-22T07:39:21Z</time>
      </trkpt>
      <trkpt lat="45.07846" lon="4.2572">
        <ele>1047.01</ele>
        <time>2024-08-22T07:39:27Z</time>
      </trkpt>
      <trkpt lat="45.07869" lon="4.25737">
        <ele>1046.05</ele>
        <time>2024-08-22T07:39:44Z</time>
      </trkpt>
      <trkpt lat="45.07894" lon="4.25757">
        <ele>1044.13</ele>
        <time>2024-08-22T07:40:02Z</time>
      </trkpt>
      <trkpt lat="45.07919" lon="4.25775">
        <ele>1044.13</ele>
        <time>2024-08-22T07:40:21Z</time>
      </trkpt>
      <trkpt lat="45.07936" lon="4.25798">
        <ele>1045.09</ele>
        <time>2024-08-22T07:40:39Z</time>
      </trkpt>
      <trkpt lat="45.07956" lon="4.25792">
        <ele>1046.53</ele>
        <time>2024-08-22T07:40:56Z</time>
      </trkpt>
      <trkpt lat="45.0796" lon="4.2579">
        <ele>1045.57</ele>
        <time>2024-08-22T07:41:10Z</time>
      </trkpt>
      <trkpt lat="45.07963" lon="4.25794">
        <ele>1044.61</ele>
        <time>2024-08-22T07:41:24Z</time>
      </trkpt>
      <trkpt lat="45.07964" lon="4.25794">
        <ele>1043.65</ele>
        <time>2024-08-22T07:41:36Z</time>
      </trkpt>
      <trkpt lat="45.07965" lon="4.25795">
        <ele>1043.17</ele>
        <time>2024-08-22T07:41:50Z</time>
      </trkpt>
      <trkpt lat="45.07966" lon="4.25795">
        <ele>1042.21</ele>
        <time>2024-08-22T07:42:05Z</time>
      </trkpt>
      <trkpt lat="45.07967" lon="4.25795">
        <ele>1041.73</ele>
        <time>2024-08-22T07:42:23Z</time>
      </trkpt>
      <trkpt lat="45.07967" lon="4.25796">
        <ele>1041.73</ele>
        <time>2024-08-22T07:42:36Z</time>
      </trkpt>
      <trkpt lat="45.07981" lon="4.25797">
        <ele>1041.25</ele>
        <time>2024-08-22T07:42:49Z</time>
      </trkpt>
      <trkpt lat="45.08005" lon="4.258">
        <ele>1043.17</ele>
        <time>2024-08-22T07:43:07Z</time>
      </trkpt>
      <trkpt lat="45.08026" lon="4.25809">
        <ele>1041.73</ele>
        <time>2024-08-22T07:43:24Z</time>
      </trkpt>
      <trkpt lat="45.08048" lon="4.25824">
        <ele>1043.65</ele>
        <time>2024-08-22T07:43:43Z</time>
      </trkpt>
      <trkpt lat="45.08061" lon="4.25839">
        <ele>1047.97</ele>
        <time>2024-08-22T07:43:57Z</time>
      </trkpt>
      <trkpt lat="45.08081" lon="4.25867">
        <ele>1049.42</ele>
        <time>2024-08-22T07:44:17Z</time>
      </trkpt>
      <trkpt lat="45.08088" lon="4.25874">
        <ele>1045.1</ele>
      </trkpt>
      <trkpt lat="45.081" lon="4.25878">
        <ele>1047.1</ele>
      </trkpt>
      <trkpt lat="45.08103" lon="4.25876">
        <ele>1047.4</ele>
      </trkpt>
      <trkpt lat="45.08116" lon="4.25863">
        <ele>1061.43</ele>
        <time>2024-08-22T07:55:26Z</time>
      </trkpt>
      <trkpt lat="45.0814" lon="4.25848">
        <ele>1059.99</ele>
        <time>2024-08-22T07:55:44Z</time>
      </trkpt>
      <trkpt lat="45.0817" lon="4.25843">
        <ele>1057.59</ele>
        <time>2024-08-22T07:56:05Z</time>
      </trkpt>
      <trkpt lat="45.08199" lon="4.25843">
        <ele>1053.26</ele>
        <time>2024-08-22T07:56:25Z</time>
      </trkpt>
      <trkpt lat="45.08217" lon="4.25847">
        <ele>1052.3</ele>
        <time>2024-08-22T07:56:39Z</time>
      </trkpt>
      <trkpt lat="45.08237" lon="4.25861">
        <ele>1050.38</ele>
        <time>2024-08-22T07:56:55Z</time>
      </trkpt>
      <trkpt lat="45.08264" lon="4.25886">
        <ele>1052.3</ele>
        <time>2024-08-22T07:57:18Z</time>
      </trkpt>
      <trkpt lat="45.08289" lon="4.25911">
        <ele>1053.26</ele>
        <time>2024-08-22T07:57:39Z</time>
      </trkpt>
      <trkpt lat="45.08317" lon="4.25927">
        <ele>1048.94</ele>
        <time>2024-08-22T07:57:59Z</time>
      </trkpt>
      <trkpt lat="45.08337" lon="4.25931">
        <ele>1048.94</ele>
        <time>2024-08-22T07:58:14Z</time>
      </trkpt>
      <trkpt lat="45.08362" lon="4.25936">
        <ele>1053.74</ele>
        <time>2024-08-22T07:58:33Z</time>
      </trkpt>
      <trkpt lat="45.0838" lon="4.25949">
        <ele>1061.43</ele>
        <time>2024-08-22T07:58:49Z</time>
      </trkpt>
      <trkpt lat="45.08396" lon="4.25965">
        <ele>1066.24</ele>
        <time>2024-08-22T07:59:05Z</time>
      </trkpt>
      <trkpt lat="45.08424" lon="4.25984">
        <ele>1065.76</ele>
        <time>2024-08-22T07:59:25Z</time>
      </trkpt>
      <trkpt lat="45.08447" lon="4.25999">
        <ele>1061.91</ele>
        <time>2024-08-22T07:59:42Z</time>
      </trkpt>
      <trkpt lat="45.08485" lon="4.26017">
        <ele>1051.34</ele>
        <time>2024-08-22T08:00:06Z</time>
      </trkpt>
      <trkpt lat="45.08507" lon="4.26026">
        <ele>1050.86</ele>
        <time>2024-08-22T08:00:22Z</time>
      </trkpt>
      <trkpt lat="45.08527" lon="4.26042">
        <ele>1050.86</ele>
        <time>2024-08-22T08:00:40Z</time>
      </trkpt>
      <trkpt lat="45.08524" lon="4.26071">
        <ele>1048.94</ele>
        <time>2024-08-22T08:00:55Z</time>
      </trkpt>
      <trkpt lat="45.08514" lon="4.26098">
        <ele>1051.34</ele>
        <time>2024-08-22T08:01:12Z</time>
      </trkpt>
      <trkpt lat="45.08506" lon="4.26125">
        <ele>1051.34</ele>
        <time>2024-08-22T08:01:26Z</time>
      </trkpt>
      <trkpt lat="45.08499" lon="4.26141">
        <ele>1049.9</ele>
        <time>2024-08-22T08:01:35Z</time>
      </trkpt>
      <trkpt lat="45.08474" lon="4.26153">
        <ele>1048.94</ele>
        <time>2024-08-22T08:01:54Z</time>
      </trkpt>
      <trkpt lat="45.08457" lon="4.26174">
        <ele>1048.45</ele>
        <time>2024-08-22T08:02:11Z</time>
      </trkpt>
      <trkpt lat="45.08441" lon="4.26191">
        <ele>1049.42</ele>
        <time>2024-08-22T08:02:25Z</time>
      </trkpt>
      <trkpt lat="45.08425" lon="4.26208">
        <ele>1048.94</ele>
        <time>2024-08-22T08:02:40Z</time>
      </trkpt>
      <trkpt lat="45.08403" lon="4.26226">
        <ele>1049.9</ele>
        <time>2024-08-22T08:02:55Z</time>
      </trkpt>
      <trkpt lat="45.08394" lon="4.26237">
        <ele>1048.45</ele>
        <time>2024-08-22T08:03:03Z</time>
      </trkpt>
      <trkpt lat="45.08391" lon="4.26243">
        <ele>1047.01</ele>
        <time>2024-08-22T08:03:07Z</time>
      </trkpt>
      <trkpt lat="45.0837" lon="4.26274">
        <ele>1044.13</ele>
        <time>2024-08-22T08:03:27Z</time>
      </trkpt>
      <trkpt lat="45.08365" lon="4.26286">
        <ele>1044.61</ele>
        <time>2024-08-22T08:03:34Z</time>
      </trkpt>
      <trkpt lat="45.08359" lon="4.26307">
        <ele>1045.09</ele>
        <time>2024-08-22T08:03:46Z</time>
      </trkpt>
      <trkpt lat="45.08343" lon="4.26334">
        <ele>1044.61</ele>
        <time>2024-08-22T08:04:04Z</time>
      </trkpt>
      <trkpt lat="45.08338" lon="4.26341">
        <ele>1045.57</ele>
        <time>2024-08-22T08:04:09Z</time>
      </trkpt>
      <trkpt lat="45.08321" lon="4.26362">
        <ele>1050.86</ele>
        <time>2024-08-22T08:04:25Z</time>
      </trkpt>
      <trkpt lat="45.08305" lon="4.26383">
        <ele>1052.3</ele>
        <time>2024-08-22T08:04:41Z</time>
      </trkpt>
      <trkpt lat="45.08294" lon="4.26402">
        <ele>1055.18</ele>
        <time>2024-08-22T08:04:55Z</time>
      </trkpt>
      <trkpt lat="45.08276" lon="4.26418">
        <ele>1056.15</ele>
        <time>2024-08-22T08:05:11Z</time>
      </trkpt>
      <trkpt lat="45.08249" lon="4.26437">
        <ele>1056.15</ele>
        <time>2024-08-22T08:05:29Z</time>
      </trkpt>
      <trkpt lat="45.08243" lon="4.26444">
        <ele>1055.67</ele>
        <time>2024-08-22T08:05:35Z</time>
      </trkpt>
      <trkpt lat="45.08239" lon="4.26448">
        <ele>1054.7</ele>
        <time>2024-08-22T08:05:39Z</time>
      </trkpt>
      <trkpt lat="45.08217" lon="4.26473">
        <ele>1052.3</ele>
        <time>2024-08-22T08:05:57Z</time>
      </trkpt>
      <trkpt lat="45.08201" lon="4.26494">
        <ele>1049.9</ele>
        <time>2024-08-22T08:06:13Z</time>
      </trkpt>
      <trkpt lat="45.08187" lon="4.26519">
        <ele>1048.94</ele>
        <time>2024-08-22T08:06:29Z</time>
      </trkpt>
      <trkpt lat="45.08169" lon="4.26543">
        <ele>1047.97</ele>
        <time>2024-08-22T08:06:46Z</time>
      </trkpt>
      <trkpt lat="45.0815" lon="4.26573">
        <ele>1046.05</ele>
        <time>2024-08-22T08:07:05Z</time>
      </trkpt>
      <trkpt lat="45.08134" lon="4.26595">
        <ele>1046.53</ele>
        <time>2024-08-22T08:07:22Z</time>
      </trkpt>
      <trkpt lat="45.08118" lon="4.2661">
        <ele>1047.97</ele>
        <time>2024-08-22T08:07:36Z</time>
      </trkpt>
      <trkpt lat="45.08114" lon="4.26611">
        <ele>1049.42</ele>
        <time>2024-08-22T08:07:40Z</time>
      </trkpt>
      <trkpt lat="45.081" lon="4.26629">
        <ele>1054.22</ele>
        <time>2024-08-22T08:07:58Z</time>
      </trkpt>
      <trkpt lat="45.08089" lon="4.26646">
        <ele>1059.51</ele>
        <time>2024-08-22T08:08:13Z</time>
      </trkpt>
      <trkpt lat="45.0807" lon="4.26667">
        <ele>1060.95</ele>
        <time>2024-08-22T08:08:26Z</time>
      </trkpt>
      <trkpt lat="45.08063" lon="4.26685">
        <ele>1059.51</ele>
        <time>2024-08-22T08:08:37Z</time>
      </trkpt>
      <trkpt lat="45.08059" lon="4.26694">
        <ele>1058.55</ele>
        <time>2024-08-22T08:08:42Z</time>
      </trkpt>
      <trkpt lat="45.08047" lon="4.26715">
        <ele>1055.18</ele>
        <time>2024-08-22T08:08:56Z</time>
      </trkpt>
      <trkpt lat="45.08038" lon="4.26728">
        <ele>1057.11</ele>
        <time>2024-08-22T08:09:08Z</time>
      </trkpt>
      <trkpt lat="45.08031" lon="4.26741">
        <ele>1057.59</ele>
        <time>2024-08-22T08:09:17Z</time>
      </trkpt>
      <trkpt lat="45.0801" lon="4.26758">
        <ele>1057.59</ele>
        <time>2024-08-22T08:09:30Z</time>
      </trkpt>
      <trkpt lat="45.07997" lon="4.26775">
        <ele>1053.74</ele>
        <time>2024-08-22T08:09:43Z</time>
      </trkpt>
      <trkpt lat="45.07974" lon="4.26793">
        <ele>1055.67</ele>
        <time>2024-08-22T08:09:56Z</time>
      </trkpt>
      <trkpt lat="45.07959" lon="4.26813">
        <ele>1057.59</ele>
        <time>2024-08-22T08:10:09Z</time>
      </trkpt>
      <trkpt lat="45.07953" lon="4.26822">
        <ele>1056.63</ele>
        <time>2024-08-22T08:10:15Z</time>
      </trkpt>
      <trkpt lat="45.07951" lon="4.26834">
        <ele>1047.97</ele>
        <time>2024-08-22T08:10:25Z</time>
      </trkpt>
      <trkpt lat="45.07949" lon="4.26842">
        <ele>1044.61</ele>
        <time>2024-08-22T08:10:32Z</time>
      </trkpt>
      <trkpt lat="45.07941" lon="4.2686">
        <ele>1038.84</ele>
        <time>2024-08-22T08:10:48Z</time>
      </trkpt>
      <trkpt lat="45.07934" lon="4.26875">
        <ele>1039.32</ele>
        <time>2024-08-22T08:11:00Z</time>
      </trkpt>
      <trkpt lat="45.07923" lon="4.269">
        <ele>1035.48</ele>
        <time>2024-08-22T08:11:16Z</time>
      </trkpt>
      <trkpt lat="45.07917" lon="4.26922">
        <ele>1032.59</ele>
        <time>2024-08-22T08:11:26Z</time>
      </trkpt>
      <trkpt lat="45.0791" lon="4.26939">
        <ele>1035</ele>
        <time>2024-08-22T08:11:38Z</time>
      </trkpt>
      <trkpt lat="45.07909" lon="4.2694">
        <ele>1035</ele>
        <time>2024-08-22T08:11:39Z</time>
      </trkpt>
      <trkpt lat="45.07899" lon="4.2695">
        <ele>1041.25</ele>
        <time>2024-08-22T08:11:53Z</time>
      </trkpt>
      <trkpt lat="45.07893" lon="4.26961">
        <ele>1044.13</ele>
        <time>2024-08-22T08:12:04Z</time>
      </trkpt>
      <trkpt lat="45.07888" lon="4.26966">
        <ele>1046.05</ele>
        <time>2024-08-22T08:12:09Z</time>
      </trkpt>
      <trkpt lat="45.07875" lon="4.2698">
        <ele>1047.01</ele>
        <time>2024-08-22T08:12:22Z</time>
      </trkpt>
      <trkpt lat="45.07858" lon="4.26992">
        <ele>1045.09</ele>
        <time>2024-08-22T08:12:35Z</time>
      </trkpt>
      <trkpt lat="45.07852" lon="4.27008">
        <ele>1037.4</ele>
        <time>2024-08-22T08:12:47Z</time>
      </trkpt>
      <trkpt lat="45.07847" lon="4.27015">
        <ele>1035.96</ele>
        <time>2024-08-22T08:12:57Z</time>
      </trkpt>
      <trkpt lat="45.07838" lon="4.27013">
        <ele>1037.4</ele>
        <time>2024-08-22T08:13:09Z</time>
      </trkpt>
      <trkpt lat="45.07829" lon="4.27012">
        <ele>1039.32</ele>
        <time>2024-08-22T08:13:22Z</time>
      </trkpt>
      <trkpt lat="45.07813" lon="4.27016">
        <ele>1037.4</ele>
        <time>2024-08-22T08:13:36Z</time>
      </trkpt>
      <trkpt lat="45.07809" lon="4.27017">
        <ele>1033.55</ele>
        <time>2024-08-22T08:13:45Z</time>
      </trkpt>
      <trkpt lat="45.07794" lon="4.27028">
        <ele>1027.79</ele>
        <time>2024-08-22T08:14:01Z</time>
      </trkpt>
      <trkpt lat="45.07758" lon="4.27049">
        <ele>1018.65</ele>
        <time>2024-08-22T08:14:14Z</time>
      </trkpt>
      <trkpt lat="45.07748" lon="4.27067">
        <ele>1017.69</ele>
        <time>2024-08-22T08:14:28Z</time>
      </trkpt>
      <trkpt lat="45.07746" lon="4.27071">
        <ele>1017.69</ele>
        <time>2024-08-22T08:14:30Z</time>
      </trkpt>
      <trkpt lat="45.07727" lon="4.27089">
        <ele>1018.17</ele>
        <time>2024-08-22T08:14:46Z</time>
      </trkpt>
      <trkpt lat="45.07713" lon="4.27107">
        <ele>1018.65</ele>
        <time>2024-08-22T08:15:00Z</time>
      </trkpt>
      <trkpt lat="45.07711" lon="4.27115">
        <ele>1018.17</ele>
        <time>2024-08-22T08:15:04Z</time>
      </trkpt>
      <trkpt lat="45.07703" lon="4.27136">
        <ele>1017.69</ele>
        <time>2024-08-22T08:15:20Z</time>
      </trkpt>
      <trkpt lat="45.07693" lon="4.27147">
        <ele>1015.29</ele>
        <time>2024-08-22T08:15:30Z</time>
      </trkpt>
      <trkpt lat="45.07685" lon="4.27155">
        <ele>1012.89</ele>
        <time>2024-08-22T08:15:39Z</time>
      </trkpt>
      <trkpt lat="45.07677" lon="4.2717">
        <ele>1010.48</ele>
        <time>2024-08-22T08:15:50Z</time>
      </trkpt>
      <trkpt lat="45.07665" lon="4.27187">
        <ele>1007.6</ele>
        <time>2024-08-22T08:16:04Z</time>
      </trkpt>
      <trkpt lat="45.07662" lon="4.27205">
        <ele>1006.64</ele>
        <time>2024-08-22T08:16:17Z</time>
      </trkpt>
      <trkpt lat="45.07661" lon="4.27207">
        <ele>1006.64</ele>
        <time>2024-08-22T08:16:18Z</time>
      </trkpt>
      <trkpt lat="45.07657" lon="4.27223">
        <ele>1007.6</ele>
        <time>2024-08-22T08:16:26Z</time>
      </trkpt>
      <trkpt lat="45.07656" lon="4.2723">
        <ele>1007.6</ele>
        <time>2024-08-22T08:16:29Z</time>
      </trkpt>
      <trkpt lat="45.07657" lon="4.27259">
        <ele>1006.16</ele>
        <time>2024-08-22T08:16:42Z</time>
      </trkpt>
      <trkpt lat="45.0766" lon="4.2727">
        <ele>1005.68</ele>
        <time>2024-08-22T08:16:48Z</time>
      </trkpt>
      <trkpt lat="45.07671" lon="4.27286">
        <ele>1009.52</ele>
        <time>2024-08-22T08:17:05Z</time>
      </trkpt>
      <trkpt lat="45.07675" lon="4.27293">
        <ele>1003.75</ele>
        <time>2024-08-22T08:17:19Z</time>
      </trkpt>
      <trkpt lat="45.0768" lon="4.27298">
        <ele>1002.31</ele>
        <time>2024-08-22T08:17:39Z</time>
      </trkpt>
      <trkpt lat="45.07683" lon="4.27304">
        <ele>1002.31</ele>
        <time>2024-08-22T08:17:52Z</time>
      </trkpt>
      <trkpt lat="45.07688" lon="4.27309">
        <ele>998.47</ele>
        <time>2024-08-22T08:17:54Z</time>
      </trkpt>
      <trkpt lat="45.07695" lon="4.27311">
        <ele>997.51</ele>
        <time>2024-08-22T08:18:00Z</time>
      </trkpt>
      <trkpt lat="45.07707" lon="4.27308">
        <ele>999.91</ele>
        <time>2024-08-22T08:18:11Z</time>
      </trkpt>
      <trkpt lat="45.07714" lon="4.27306">
        <ele>1000.87</ele>
        <time>2024-08-22T08:18:17Z</time>
      </trkpt>
      <trkpt lat="45.07746" lon="4.27315">
        <ele>985.49</ele>
        <time>2024-08-22T08:18:35Z</time>
      </trkpt>
      <trkpt lat="45.07749" lon="4.27315">
        <ele>985.01</ele>
        <time>2024-08-22T08:18:37Z</time>
      </trkpt>
      <trkpt lat="45.07761" lon="4.27313">
        <ele>983.57</ele>
        <time>2024-08-22T08:18:47Z</time>
      </trkpt>
      <trkpt lat="45.07788" lon="4.27313">
        <ele>980.2</ele>
        <time>2024-08-22T08:19:05Z</time>
      </trkpt>
      <trkpt lat="45.07805" lon="4.27315">
        <ele>977.32</ele>
        <time>2024-08-22T08:19:18Z</time>
      </trkpt>
      <trkpt lat="45.07824" lon="4.27333">
        <ele>974.91</ele>
        <time>2024-08-22T08:19:36Z</time>
      </trkpt>
      <trkpt lat="45.0784" lon="4.27365">
        <ele>975.88</ele>
        <time>2024-08-22T08:19:56Z</time>
      </trkpt>
      <trkpt lat="45.07856" lon="4.27392">
        <ele>979.72</ele>
        <time>2024-08-22T08:20:14Z</time>
      </trkpt>
      <trkpt lat="45.07875" lon="4.27408">
        <ele>986.93</ele>
        <time>2024-08-22T08:20:32Z</time>
      </trkpt>
      <trkpt lat="45.07891" lon="4.27415">
        <ele>988.85</ele>
        <time>2024-08-22T08:20:45Z</time>
      </trkpt>
      <trkpt lat="45.07901" lon="4.27415">
        <ele>985.49</ele>
        <time>2024-08-22T08:20:52Z</time>
      </trkpt>
      <trkpt lat="45.07908" lon="4.2742">
        <ele>985.01</ele>
        <time>2024-08-22T08:20:58Z</time>
      </trkpt>
      <trkpt lat="45.07934" lon="4.27441">
        <ele>984.53</ele>
        <time>2024-08-22T08:21:18Z</time>
      </trkpt>
      <trkpt lat="45.07963" lon="4.27459">
        <ele>985.01</ele>
        <time>2024-08-22T08:21:41Z</time>
      </trkpt>
      <trkpt lat="45.07988" lon="4.27465">
        <ele>979.72</ele>
        <time>2024-08-22T08:21:58Z</time>
      </trkpt>
      <trkpt lat="45.08018" lon="4.27467">
        <ele>978.76</ele>
        <time>2024-08-22T08:22:19Z</time>
      </trkpt>
      <trkpt lat="45.08048" lon="4.27471">
        <ele>978.76</ele>
        <time>2024-08-22T08:22:40Z</time>
      </trkpt>
      <trkpt lat="45.08071" lon="4.27473">
        <ele>977.8</ele>
        <time>2024-08-22T08:23:00Z</time>
      </trkpt>
      <trkpt lat="45.08073" lon="4.27473">
        <ele>977.32</ele>
        <time>2024-08-22T08:23:12Z</time>
      </trkpt>
      <trkpt lat="45.08073" lon="4.27474">
        <ele>977.32</ele>
        <time>2024-08-22T08:23:37Z</time>
      </trkpt>
      <trkpt lat="45.08074" lon="4.27475">
        <ele>977.8</ele>
        <time>2024-08-22T08:23:55Z</time>
      </trkpt>
      <trkpt lat="45.08075" lon="4.27475">
        <ele>977.32</ele>
        <time>2024-08-22T08:24:19Z</time>
      </trkpt>
      <trkpt lat="45.08075" lon="4.27474">
        <ele>977.32</ele>
        <time>2024-08-22T08:24:43Z</time>
      </trkpt>
      <trkpt lat="45.08075" lon="4.27474">
        <ele>977.32</ele>
        <time>2024-08-22T08:25:03Z</time>
      </trkpt>
      <trkpt lat="45.08075" lon="4.27474">
        <ele>976.84</ele>
        <time>2024-08-22T08:25:26Z</time>
      </trkpt>
      <trkpt lat="45.08075" lon="4.27474">
        <ele>976.36</ele>
        <time>2024-08-22T08:25:45Z</time>
      </trkpt>
      <trkpt lat="45.08075" lon="4.27473">
        <ele>976.36</ele>
        <time>2024-08-22T08:25:59Z</time>
      </trkpt>
      <trkpt lat="45.08075" lon="4.27474">
        <ele>976.36</ele>
        <time>2024-08-22T08:26:17Z</time>
      </trkpt>
      <trkpt lat="45.08075" lon="4.27473">
        <ele>975.39</ele>
        <time>2024-08-22T08:26:45Z</time>
      </trkpt>
      <trkpt lat="45.08076" lon="4.27473">
        <ele>974.91</ele>
        <time>2024-08-22T08:27:05Z</time>
      </trkpt>
      <trkpt lat="45.08076" lon="4.27474">
        <ele>974.91</ele>
        <time>2024-08-22T08:27:29Z</time>
      </trkpt>
      <trkpt lat="45.08086" lon="4.27471">
        <ele>975.88</ele>
        <time>2024-08-22T08:27:45Z</time>
      </trkpt>
      <trkpt lat="45.08107" lon="4.27469">
        <ele>975.88</ele>
        <time>2024-08-22T08:28:00Z</time>
      </trkpt>
      <trkpt lat="45.08125" lon="4.27473">
        <ele>976.36</ele>
        <time>2024-08-22T08:28:15Z</time>
      </trkpt>
      <trkpt lat="45.08139" lon="4.27484">
        <ele>977.8</ele>
        <time>2024-08-22T08:28:28Z</time>
      </trkpt>
      <trkpt lat="45.08158" lon="4.2751">
        <ele>980.68</ele>
        <time>2024-08-22T08:28:49Z</time>
      </trkpt>
      <trkpt lat="45.08182" lon="4.27536">
        <ele>982.6</ele>
        <time>2024-08-22T08:29:11Z</time>
      </trkpt>
      <trkpt lat="45.08201" lon="4.27544">
        <ele>985.49</ele>
        <time>2024-08-22T08:29:27Z</time>
      </trkpt>
      <trkpt lat="45.08212" lon="4.27546">
        <ele>994.14</ele>
        <time>2024-08-22T08:29:37Z</time>
      </trkpt>
      <trkpt lat="45.08221" lon="4.27553">
        <ele>1005.2</ele>
        <time>2024-08-22T08:29:48Z</time>
      </trkpt>
      <trkpt lat="45.08238" lon="4.27568">
        <ele>1009.52</ele>
        <time>2024-08-22T08:30:03Z</time>
      </trkpt>
      <trkpt lat="45.08246" lon="4.27594">
        <ele>1010.96</ele>
        <time>2024-08-22T08:30:20Z</time>
      </trkpt>
      <trkpt lat="45.0825" lon="4.27619">
        <ele>1008.56</ele>
        <time>2024-08-22T08:30:33Z</time>
      </trkpt>
      <trkpt lat="45.08255" lon="4.27646">
        <ele>999.91</ele>
        <time>2024-08-22T08:30:48Z</time>
      </trkpt>
      <trkpt lat="45.08259" lon="4.27689">
        <ele>990.3</ele>
        <time>2024-08-22T08:31:07Z</time>
      </trkpt>
      <trkpt lat="45.08273" lon="4.27733">
        <ele>984.53</ele>
        <time>2024-08-22T08:31:28Z</time>
      </trkpt>
      <trkpt lat="45.08283" lon="4.2777">
        <ele>981.16</ele>
        <time>2024-08-22T08:31:47Z</time>
      </trkpt>
      <trkpt lat="45.08291" lon="4.27814">
        <ele>974.91</ele>
        <time>2024-08-22T08:32:08Z</time>
      </trkpt>
      <trkpt lat="45.08294" lon="4.27847">
        <ele>976.36</ele>
        <time>2024-08-22T08:32:25Z</time>
      </trkpt>
      <trkpt lat="45.08292" lon="4.27869">
        <ele>978.76</ele>
        <time>2024-08-22T08:32:38Z</time>
      </trkpt>
      <trkpt lat="45.08282" lon="4.27895">
        <ele>981.16</ele>
        <time>2024-08-22T08:32:54Z</time>
      </trkpt>
      <trkpt lat="45.08272" lon="4.27918">
        <ele>982.6</ele>
        <time>2024-08-22T08:33:11Z</time>
      </trkpt>
      <trkpt lat="45.08268" lon="4.27935">
        <ele>982.12</ele>
        <time>2024-08-22T08:33:24Z</time>
      </trkpt>
      <trkpt lat="45.08257" lon="4.27962">
        <ele>978.76</ele>
        <time>2024-08-22T08:33:40Z</time>
      </trkpt>
      <trkpt lat="45.08241" lon="4.27983">
        <ele>975.39</ele>
        <time>2024-08-22T08:33:56Z</time>
      </trkpt>
      <trkpt lat="45.08221" lon="4.28001">
        <ele>972.03</ele>
        <time>2024-08-22T08:34:14Z</time>
      </trkpt>
      <trkpt lat="45.08203" lon="4.28025">
        <ele>968.67</ele>
        <time>2024-08-22T08:34:30Z</time>
      </trkpt>
      <trkpt lat="45.08185" lon="4.28052">
        <ele>965.78</ele>
        <time>2024-08-22T08:34:49Z</time>
      </trkpt>
      <trkpt lat="45.08182" lon="4.28059">
        <ele>965.78</ele>
        <time>2024-08-22T08:34:53Z</time>
      </trkpt>
      <trkpt lat="45.08181" lon="4.28062">
        <ele>965.78</ele>
        <time>2024-08-22T08:34:55Z</time>
      </trkpt>
      <trkpt lat="45.08169" lon="4.28093">
        <ele>965.78</ele>
        <time>2024-08-22T08:35:13Z</time>
      </trkpt>
      <trkpt lat="45.08158" lon="4.28114">
        <ele>967.22</ele>
        <time>2024-08-22T08:35:28Z</time>
      </trkpt>
      <trkpt lat="45.08144" lon="4.28135">
        <ele>966.74</ele>
        <time>2024-08-22T08:35:41Z</time>
      </trkpt>
      <trkpt lat="45.08132" lon="4.28147">
        <ele>964.34</ele>
        <time>2024-08-22T08:35:53Z</time>
      </trkpt>
      <trkpt lat="45.08114" lon="4.28155">
        <ele>959.05</ele>
        <time>2024-08-22T08:36:08Z</time>
      </trkpt>
      <trkpt lat="45.08105" lon="4.28155">
        <ele>957.13</ele>
        <time>2024-08-22T08:36:16Z</time>
      </trkpt>
      <trkpt lat="45.08101" lon="4.28155">
        <ele>956.65</ele>
        <time>2024-08-22T08:36:20Z</time>
      </trkpt>
      <trkpt lat="45.081" lon="4.28156">
        <ele>956.17</ele>
        <time>2024-08-22T08:36:22Z</time>
      </trkpt>
      <trkpt lat="45.08081" lon="4.28158">
        <ele>952.32</ele>
        <time>2024-08-22T08:36:36Z</time>
      </trkpt>
      <trkpt lat="45.08075" lon="4.28161">
        <ele>951.36</ele>
        <time>2024-08-22T08:36:43Z</time>
      </trkpt>
      <trkpt lat="45.08072" lon="4.28161">
        <ele>951.36</ele>
        <time>2024-08-22T08:36:45Z</time>
      </trkpt>
      <trkpt lat="45.08063" lon="4.28163">
        <ele>951.84</ele>
        <time>2024-08-22T08:36:53Z</time>
      </trkpt>
      <trkpt lat="45.0804" lon="4.28167">
        <ele>949.92</ele>
        <time>2024-08-22T08:37:10Z</time>
      </trkpt>
      <trkpt lat="45.08018" lon="4.28175">
        <ele>948.48</ele>
        <time>2024-08-22T08:37:27Z</time>
      </trkpt>
      <trkpt lat="45.07999" lon="4.28185">
        <ele>947.04</ele>
        <time>2024-08-22T08:37:42Z</time>
      </trkpt>
      <trkpt lat="45.07984" lon="4.28193">
        <ele>945.59</ele>
        <time>2024-08-22T08:37:57Z</time>
      </trkpt>
      <trkpt lat="45.07979" lon="4.28194">
        <ele>944.63</ele>
        <time>2024-08-22T08:38:03Z</time>
      </trkpt>
      <trkpt lat="45.07975" lon="4.28193">
        <ele>944.15</ele>
        <time>2024-08-22T08:38:07Z</time>
      </trkpt>
      <trkpt lat="45.07967" lon="4.28189">
        <ele>943.19</ele>
        <time>2024-08-22T08:38:15Z</time>
      </trkpt>
      <trkpt lat="45.07964" lon="4.28183">
        <ele>942.23</ele>
        <time>2024-08-22T08:38:20Z</time>
      </trkpt>
      <trkpt lat="45.0796" lon="4.28169">
        <ele>941.75</ele>
        <time>2024-08-22T08:38:30Z</time>
      </trkpt>
      <trkpt lat="45.07959" lon="4.28165">
        <ele>941.27</ele>
        <time>2024-08-22T08:38:33Z</time>
      </trkpt>
      <trkpt lat="45.07955" lon="4.28149">
        <ele>942.23</ele>
        <time>2024-08-22T08:38:42Z</time>
      </trkpt>
      <trkpt lat="45.07948" lon="4.28135">
        <ele>942.23</ele>
        <time>2024-08-22T08:38:51Z</time>
      </trkpt>
      <trkpt lat="45.07935" lon="4.28119">
        <ele>941.27</ele>
        <time>2024-08-22T08:39:06Z</time>
      </trkpt>
      <trkpt lat="45.07928" lon="4.28113">
        <ele>943.67</ele>
        <time>2024-08-22T08:39:18Z</time>
      </trkpt>
      <trkpt lat="45.07925" lon="4.28111">
        <ele>943.19</ele>
        <time>2024-08-22T08:39:30Z</time>
      </trkpt>
      <trkpt lat="45.07924" lon="4.2811">
        <ele>944.15</ele>
        <time>2024-08-22T08:39:39Z</time>
      </trkpt>
      <trkpt lat="45.07916" lon="4.28106">
        <ele>948</ele>
        <time>2024-08-22T08:39:48Z</time>
      </trkpt>
      <trkpt lat="45.07908" lon="4.281">
        <ele>950.4</ele>
        <time>2024-08-22T08:40:01Z</time>
      </trkpt>
      <trkpt lat="45.07903" lon="4.28096">
        <ele>951.36</ele>
        <time>2024-08-22T08:40:12Z</time>
      </trkpt>
      <trkpt lat="45.0787" lon="4.28091">
        <ele>950.4</ele>
        <time>2024-08-22T08:40:27Z</time>
      </trkpt>
      <trkpt lat="45.07836" lon="4.28104">
        <ele>945.59</ele>
        <time>2024-08-22T08:40:44Z</time>
      </trkpt>
      <trkpt lat="45.07811" lon="4.2812">
        <ele>941.75</ele>
        <time>2024-08-22T08:41:02Z</time>
      </trkpt>
      <trkpt lat="45.0779" lon="4.28124">
        <ele>939.83</ele>
        <time>2024-08-22T08:41:17Z</time>
      </trkpt>
      <trkpt lat="45.07769" lon="4.28123">
        <ele>939.83</ele>
        <time>2024-08-22T08:41:34Z</time>
      </trkpt>
      <trkpt lat="45.07751" lon="4.2812">
        <ele>940.31</ele>
        <time>2024-08-22T08:41:47Z</time>
      </trkpt>
      <trkpt lat="45.07731" lon="4.28106">
        <ele>939.35</ele>
        <time>2024-08-22T08:42:03Z</time>
      </trkpt>
      <trkpt lat="45.07715" lon="4.2809">
        <ele>939.83</ele>
        <time>2024-08-22T08:42:19Z</time>
      </trkpt>
      <trkpt lat="45.07703" lon="4.28069">
        <ele>942.23</ele>
        <time>2024-08-22T08:42:35Z</time>
      </trkpt>
      <trkpt lat="45.07694" lon="4.28055">
        <ele>943.67</ele>
        <time>2024-08-22T08:42:49Z</time>
      </trkpt>
      <trkpt lat="45.07685" lon="4.28039">
        <ele>944.63</ele>
        <time>2024-08-22T08:43:02Z</time>
      </trkpt>
      <trkpt lat="45.0768" lon="4.28029">
        <ele>944.63</ele>
        <time>2024-08-22T08:43:09Z</time>
      </trkpt>
      <trkpt lat="45.0767" lon="4.28005">
        <ele>947.04</ele>
        <time>2024-08-22T08:43:25Z</time>
      </trkpt>
      <trkpt lat="45.07665" lon="4.27997">
        <ele>946.56</ele>
        <time>2024-08-22T08:43:29Z</time>
      </trkpt>
      <trkpt lat="45.07653" lon="4.27987">
        <ele>942.71</ele>
        <time>2024-08-22T08:43:40Z</time>
      </trkpt>
      <trkpt lat="45.07651" lon="4.27986">
        <ele>942.23</ele>
        <time>2024-08-22T08:43:43Z</time>
      </trkpt>
      <trkpt lat="45.07644" lon="4.2799">
        <ele>941.75</ele>
        <time>2024-08-22T08:43:51Z</time>
      </trkpt>
      <trkpt lat="45.0764" lon="4.28003">
        <ele>941.27</ele>
        <time>2024-08-22T08:43:58Z</time>
      </trkpt>
      <trkpt lat="45.07639" lon="4.28012">
        <ele>940.31</ele>
        <time>2024-08-22T08:44:04Z</time>
      </trkpt>
      <trkpt lat="45.07644" lon="4.28041">
        <ele>936.94</ele>
        <time>2024-08-22T08:44:21Z</time>
      </trkpt>
      <trkpt lat="45.07651" lon="4.28069">
        <ele>940.31</ele>
        <time>2024-08-22T08:44:38Z</time>
      </trkpt>
      <trkpt lat="45.07654" lon="4.281">
        <ele>948</ele>
        <time>2024-08-22T08:44:55Z</time>
      </trkpt>
      <trkpt lat="45.07655" lon="4.28129">
        <ele>948.96</ele>
        <time>2024-08-22T08:45:11Z</time>
      </trkpt>
      <trkpt lat="45.07666" lon="4.28152">
        <ele>934.06</ele>
        <time>2024-08-22T08:45:27Z</time>
      </trkpt>
      <trkpt lat="45.07668" lon="4.28176">
        <ele>925.89</ele>
        <time>2024-08-22T08:45:42Z</time>
      </trkpt>
      <trkpt lat="45.07672" lon="4.28205">
        <ele>922.52</ele>
        <time>2024-08-22T08:45:58Z</time>
      </trkpt>
      <trkpt lat="45.07678" lon="4.28246">
        <ele>915.79</ele>
        <time>2024-08-22T08:46:19Z</time>
      </trkpt>
      <trkpt lat="45.07679" lon="4.28283">
        <ele>909.06</ele>
        <time>2024-08-22T08:46:39Z</time>
      </trkpt>
      <trkpt lat="45.07678" lon="4.28287">
        <ele>908.58</ele>
        <time>2024-08-22T08:46:41Z</time>
      </trkpt>
      <trkpt lat="45.07676" lon="4.28293">
        <ele>907.62</ele>
        <time>2024-08-22T08:46:45Z</time>
      </trkpt>
      <trkpt lat="45.0767" lon="4.28318">
        <ele>908.1</ele>
        <time>2024-08-22T08:47:01Z</time>
      </trkpt>
      <trkpt lat="45.07665" lon="4.28337">
        <ele>907.14</ele>
        <time>2024-08-22T08:47:12Z</time>
      </trkpt>
      <trkpt lat="45.07645" lon="4.28352">
        <ele>908.1</ele>
        <time>2024-08-22T08:47:29Z</time>
      </trkpt>
      <trkpt lat="45.07622" lon="4.28358">
        <ele>905.7</ele>
        <time>2024-08-22T08:47:45Z</time>
      </trkpt>
      <trkpt lat="45.07595" lon="4.28369">
        <ele>899.45</ele>
        <time>2024-08-22T08:48:04Z</time>
      </trkpt>
      <trkpt lat="45.0757" lon="4.28387">
        <ele>896.09</ele>
        <time>2024-08-22T08:48:22Z</time>
      </trkpt>
      <trkpt lat="45.0755" lon="4.2841">
        <ele>897.53</ele>
        <time>2024-08-22T08:48:40Z</time>
      </trkpt>
      <trkpt lat="45.07533" lon="4.28432">
        <ele>901.85</ele>
        <time>2024-08-22T08:48:58Z</time>
      </trkpt>
      <trkpt lat="45.07529" lon="4.28438">
        <ele>902.82</ele>
        <time>2024-08-22T08:49:03Z</time>
      </trkpt>
      <trkpt lat="45.07522" lon="4.2845">
        <ele>905.22</ele>
        <time>2024-08-22T08:49:12Z</time>
      </trkpt>
      <trkpt lat="45.075" lon="4.28469">
        <ele>905.22</ele>
        <time>2024-08-22T08:49:31Z</time>
      </trkpt>
      <trkpt lat="45.0748" lon="4.28486">
        <ele>905.22</ele>
        <time>2024-08-22T08:49:49Z</time>
      </trkpt>
      <trkpt lat="45.07462" lon="4.28515">
        <ele>905.7</ele>
        <time>2024-08-22T08:50:10Z</time>
      </trkpt>
      <trkpt lat="45.0746" lon="4.28518">
        <ele>904.74</ele>
        <time>2024-08-22T08:50:22Z</time>
      </trkpt>
      <trkpt lat="45.0746" lon="4.28528">
        <ele>903.78</ele>
        <time>2024-08-22T08:50:35Z</time>
      </trkpt>
      <trkpt lat="45.07461" lon="4.28531">
        <ele>901.85</ele>
        <time>2024-08-22T08:50:48Z</time>
      </trkpt>
      <trkpt lat="45.07461" lon="4.28531">
        <ele>901.37</ele>
        <time>2024-08-22T08:51:02Z</time>
      </trkpt>
      <trkpt lat="45.07462" lon="4.28523">
        <ele>900.89</ele>
        <time>2024-08-22T08:51:17Z</time>
      </trkpt>
      <trkpt lat="45.07461" lon="4.28523">
        <ele>900.41</ele>
        <time>2024-08-22T08:51:38Z</time>
      </trkpt>
      <trkpt lat="45.07461" lon="4.28522">
        <ele>900.89</ele>
        <time>2024-08-22T08:51:56Z</time>
      </trkpt>
      <trkpt lat="45.07461" lon="4.28523">
        <ele>900.41</ele>
        <time>2024-08-22T08:52:19Z</time>
      </trkpt>
      <trkpt lat="45.07461" lon="4.28523">
        <ele>899.93</ele>
        <time>2024-08-22T08:52:36Z</time>
      </trkpt>
      <trkpt lat="45.07461" lon="4.28525">
        <ele>900.41</ele>
        <time>2024-08-22T08:52:44Z</time>
      </trkpt>
      <trkpt lat="45.07464" lon="4.28529">
        <ele>899.93</ele>
        <time>2024-08-22T08:52:48Z</time>
      </trkpt>
      <trkpt lat="45.07482" lon="4.28548">
        <ele>900.89</ele>
        <time>2024-08-22T08:53:07Z</time>
      </trkpt>
      <trkpt lat="45.07502" lon="4.28565">
        <ele>900.89</ele>
        <time>2024-08-22T08:53:26Z</time>
      </trkpt>
      <trkpt lat="45.07511" lon="4.2857">
        <ele>901.85</ele>
        <time>2024-08-22T08:53:39Z</time>
      </trkpt>
      <trkpt lat="45.07515" lon="4.2857">
        <ele>901.85</ele>
        <time>2024-08-22T08:53:51Z</time>
      </trkpt>
      <trkpt lat="45.07518" lon="4.2857">
        <ele>901.37</ele>
        <time>2024-08-22T08:53:56Z</time>
      </trkpt>
      <trkpt lat="45.07525" lon="4.28571">
        <ele>901.37</ele>
        <time>2024-08-22T08:54:03Z</time>
      </trkpt>
      <trkpt lat="45.07533" lon="4.28573">
        <ele>901.85</ele>
        <time>2024-08-22T08:54:10Z</time>
      </trkpt>
      <trkpt lat="45.0755" lon="4.28575">
        <ele>903.3</ele>
        <time>2024-08-22T08:54:25Z</time>
      </trkpt>
      <trkpt lat="45.07561" lon="4.28578">
        <ele>906.66</ele>
        <time>2024-08-22T08:54:36Z</time>
      </trkpt>
      <trkpt lat="45.07563" lon="4.2859">
        <ele>910.51</ele>
        <time>2024-08-22T08:54:44Z</time>
      </trkpt>
      <trkpt lat="45.07564" lon="4.28596">
        <ele>911.47</ele>
        <time>2024-08-22T08:54:48Z</time>
      </trkpt>
      <trkpt lat="45.07565" lon="4.28604">
        <ele>912.43</ele>
        <time>2024-08-22T08:54:53Z</time>
      </trkpt>
      <trkpt lat="45.07569" lon="4.28633">
        <ele>917.24</ele>
        <time>2024-08-22T08:55:09Z</time>
      </trkpt>
      <trkpt lat="45.07575" lon="4.28645">
        <ele>915.79</ele>
        <time>2024-08-22T08:55:16Z</time>
      </trkpt>
      <trkpt lat="45.07581" lon="4.28653">
        <ele>915.79</ele>
        <time>2024-08-22T08:55:22Z</time>
      </trkpt>
      <trkpt lat="45.07589" lon="4.28664">
        <ele>915.31</ele>
        <time>2024-08-22T08:55:30Z</time>
      </trkpt>
      <trkpt lat="45.07596" lon="4.28679">
        <ele>918.2</ele>
        <time>2024-08-22T08:55:40Z</time>
      </trkpt>
      <trkpt lat="45.07596" lon="4.28703">
        <ele>921.08</ele>
        <time>2024-08-22T08:55:54Z</time>
      </trkpt>
      <trkpt lat="45.07593" lon="4.28712">
        <ele>922.52</ele>
        <time>2024-08-22T08:55:59Z</time>
      </trkpt>
      <trkpt lat="45.07585" lon="4.28743">
        <ele>923.96</ele>
        <time>2024-08-22T08:56:16Z</time>
      </trkpt>
      <trkpt lat="45.07591" lon="4.28769">
        <ele>920.6</ele>
        <time>2024-08-22T08:56:32Z</time>
      </trkpt>
      <trkpt lat="45.07605" lon="4.28794">
        <ele>921.56</ele>
        <time>2024-08-22T08:56:50Z</time>
      </trkpt>
      <trkpt lat="45.07602" lon="4.28815">
        <ele>923.48</ele>
        <time>2024-08-22T08:57:05Z</time>
      </trkpt>
      <trkpt lat="45.07597" lon="4.28835">
        <ele>922.52</ele>
        <time>2024-08-22T08:57:17Z</time>
      </trkpt>
      <trkpt lat="45.07596" lon="4.28843">
        <ele>923.48</ele>
        <time>2024-08-22T08:57:22Z</time>
      </trkpt>
      <trkpt lat="45.07596" lon="4.28846">
        <ele>923.96</ele>
        <time>2024-08-22T08:57:24Z</time>
      </trkpt>
      <trkpt lat="45.07593" lon="4.28869">
        <ele>928.29</ele>
        <time>2024-08-22T08:57:37Z</time>
      </trkpt>
      <trkpt lat="45.07589" lon="4.28891">
        <ele>932.14</ele>
        <time>2024-08-22T08:57:51Z</time>
      </trkpt>
      <trkpt lat="45.07579" lon="4.28901">
        <ele>942.23</ele>
        <time>2024-08-22T08:58:05Z</time>
      </trkpt>
      <trkpt lat="45.07577" lon="4.28905">
        <ele>944.15</ele>
        <time>2024-08-22T08:58:09Z</time>
      </trkpt>
      <trkpt lat="45.07574" lon="4.2891">
        <ele>945.59</ele>
        <time>2024-08-22T08:58:12Z</time>
      </trkpt>
      <trkpt lat="45.0757" lon="4.28914">
        <ele>947.04</ele>
        <time>2024-08-22T08:58:16Z</time>
      </trkpt>
      <trkpt lat="45.07567" lon="4.28917">
        <ele>948.48</ele>
        <time>2024-08-22T08:58:19Z</time>
      </trkpt>
      <trkpt lat="45.07564" lon="4.28922">
        <ele>950.88</ele>
        <time>2024-08-22T08:58:23Z</time>
      </trkpt>
      <trkpt lat="45.07555" lon="4.28939">
        <ele>955.69</ele>
        <time>2024-08-22T08:58:36Z</time>
      </trkpt>
      <trkpt lat="45.07553" lon="4.28941">
        <ele>956.17</ele>
        <time>2024-08-22T08:58:38Z</time>
      </trkpt>
      <trkpt lat="45.07551" lon="4.28944">
        <ele>956.65</ele>
        <time>2024-08-22T08:58:40Z</time>
      </trkpt>
      <trkpt lat="45.07533" lon="4.28968">
        <ele>957.61</ele>
        <time>2024-08-22T08:58:57Z</time>
      </trkpt>
      <trkpt lat="45.07515" lon="4.28995">
        <ele>950.88</ele>
        <time>2024-08-22T08:59:14Z</time>
      </trkpt>
      <trkpt lat="45.07499" lon="4.29023">
        <ele>947.52</ele>
        <time>2024-08-22T08:59:32Z</time>
      </trkpt>
      <trkpt lat="45.07487" lon="4.29053">
        <ele>944.63</ele>
        <time>2024-08-22T08:59:47Z</time>
      </trkpt>
      <trkpt lat="45.07485" lon="4.29061">
        <ele>944.15</ele>
        <time>2024-08-22T08:59:51Z</time>
      </trkpt>
      <trkpt lat="45.07483" lon="4.29069">
        <ele>944.63</ele>
        <time>2024-08-22T08:59:55Z</time>
      </trkpt>
      <trkpt lat="45.07473" lon="4.291">
        <ele>948</ele>
        <time>2024-08-22T09:00:12Z</time>
      </trkpt>
      <trkpt lat="45.07473" lon="4.29101">
        <ele>948.96</ele>
        <time>2024-08-22T09:00:13Z</time>
      </trkpt>
      <trkpt lat="45.07466" lon="4.29132">
        <ele>952.32</ele>
        <time>2024-08-22T09:00:30Z</time>
      </trkpt>
      <trkpt lat="45.07453" lon="4.2916">
        <ele>951.84</ele>
        <time>2024-08-22T09:00:46Z</time>
      </trkpt>
      <trkpt lat="45.07444" lon="4.29189">
        <ele>953.28</ele>
        <time>2024-08-22T09:01:02Z</time>
      </trkpt>
      <trkpt lat="45.07431" lon="4.29214">
        <ele>952.8</ele>
        <time>2024-08-22T09:01:19Z</time>
      </trkpt>
      <trkpt lat="45.07415" lon="4.29239">
        <ele>953.77</ele>
        <time>2024-08-22T09:01:37Z</time>
      </trkpt>
      <trkpt lat="45.07397" lon="4.2926">
        <ele>955.69</ele>
        <time>2024-08-22T09:01:55Z</time>
      </trkpt>
      <trkpt lat="45.07383" lon="4.29272">
        <ele>954.25</ele>
        <time>2024-08-22T09:02:10Z</time>
      </trkpt>
      <trkpt lat="45.07382" lon="4.29274">
        <ele>954.25</ele>
        <time>2024-08-22T09:02:11Z</time>
      </trkpt>
      <trkpt lat="45.07383" lon="4.2928">
        <ele>954.73</ele>
        <time>2024-08-22T09:02:15Z</time>
      </trkpt>
      <trkpt lat="45.07391" lon="4.29295">
        <ele>957.13</ele>
        <time>2024-08-22T09:02:27Z</time>
      </trkpt>
      <trkpt lat="45.07394" lon="4.29303">
        <ele>957.61</ele>
        <time>2024-08-22T09:02:34Z</time>
      </trkpt>
      <trkpt lat="45.07404" lon="4.29315">
        <ele>959.05</ele>
        <time>2024-08-22T09:02:48Z</time>
      </trkpt>
      <trkpt lat="45.07413" lon="4.29329">
        <ele>959.53</ele>
        <time>2024-08-22T09:03:02Z</time>
      </trkpt>
      <trkpt lat="45.07415" lon="4.29335">
        <ele>959.53</ele>
        <time>2024-08-22T09:03:07Z</time>
      </trkpt>
      <trkpt lat="45.07409" lon="4.29337">
        <ele>959.53</ele>
        <time>2024-08-22T09:03:12Z</time>
      </trkpt>
      <trkpt lat="45.07386" lon="4.29336">
        <ele>961.94</ele>
        <time>2024-08-22T09:03:31Z</time>
      </trkpt>
      <trkpt lat="45.07369" lon="4.29342">
        <ele>966.74</ele>
        <time>2024-08-22T09:03:46Z</time>
      </trkpt>
      <trkpt lat="45.07365" lon="4.29342">
        <ele>967.22</ele>
        <time>2024-08-22T09:03:49Z</time>
      </trkpt>
      <trkpt lat="45.07363" lon="4.29343">
        <ele>967.22</ele>
        <time>2024-08-22T09:03:51Z</time>
      </trkpt>
      <trkpt lat="45.07346" lon="4.29352">
        <ele>969.63</ele>
        <time>2024-08-22T09:04:05Z</time>
      </trkpt>
      <trkpt lat="45.07327" lon="4.29358">
        <ele>972.51</ele>
        <time>2024-08-22T09:04:18Z</time>
      </trkpt>
      <trkpt lat="45.07312" lon="4.29363">
        <ele>979.72</ele>
        <time>2024-08-22T09:04:31Z</time>
      </trkpt>
      <trkpt lat="45.07311" lon="4.29364">
        <ele>980.2</ele>
        <time>2024-08-22T09:04:32Z</time>
      </trkpt>
      <trkpt lat="45.07303" lon="4.29369">
        <ele>983.09</ele>
        <time>2024-08-22T09:04:39Z</time>
      </trkpt>
      <trkpt lat="45.07294" lon="4.29396">
        <ele>981.16</ele>
        <time>2024-08-22T09:04:57Z</time>
      </trkpt>
      <trkpt lat="45.07293" lon="4.29414">
        <ele>979.72</ele>
        <time>2024-08-22T09:05:07Z</time>
      </trkpt>
      <trkpt lat="45.0728" lon="4.29438">
        <ele>977.32</ele>
        <time>2024-08-22T09:05:21Z</time>
      </trkpt>
      <trkpt lat="45.07267" lon="4.29456">
        <ele>976.36</ele>
        <time>2024-08-22T09:05:37Z</time>
      </trkpt>
      <trkpt lat="45.07254" lon="4.29473">
        <ele>976.84</ele>
        <time>2024-08-22T09:05:50Z</time>
      </trkpt>
      <trkpt lat="45.07247" lon="4.29483">
        <ele>975.88</ele>
        <time>2024-08-22T09:05:57Z</time>
      </trkpt>
      <trkpt lat="45.07229" lon="4.29504">
        <ele>972.51</ele>
        <time>2024-08-22T09:06:13Z</time>
      </trkpt>
      <trkpt lat="45.07216" lon="4.29523">
        <ele>973.47</ele>
        <time>2024-08-22T09:06:28Z</time>
      </trkpt>
      <trkpt lat="45.07204" lon="4.29544">
        <ele>974.43</ele>
        <time>2024-08-22T09:06:44Z</time>
      </trkpt>
      <trkpt lat="45.07194" lon="4.29554">
        <ele>975.39</ele>
        <time>2024-08-22T09:06:57Z</time>
      </trkpt>
      <trkpt lat="45.07184" lon="4.29564">
        <ele>977.32</ele>
        <time>2024-08-22T09:07:10Z</time>
      </trkpt>
      <trkpt lat="45.07179" lon="4.29569">
        <ele>978.76</ele>
        <time>2024-08-22T09:07:15Z</time>
      </trkpt>
      <trkpt lat="45.07174" lon="4.2958">
        <ele>985.01</ele>
        <time>2024-08-22T09:07:28Z</time>
      </trkpt>
      <trkpt lat="45.07172" lon="4.29589">
        <ele>987.41</ele>
        <time>2024-08-22T09:07:35Z</time>
      </trkpt>
      <trkpt lat="45.0717" lon="4.29601">
        <ele>993.66</ele>
        <time>2024-08-22T09:07:48Z</time>
      </trkpt>
      <trkpt lat="45.07164" lon="4.29611">
        <ele>1002.31</ele>
        <time>2024-08-22T09:08:00Z</time>
      </trkpt>
      <trkpt lat="45.07162" lon="4.29624">
        <ele>1007.6</ele>
        <time>2024-08-22T09:08:12Z</time>
      </trkpt>
      <trkpt lat="45.07164" lon="4.29626">
        <ele>1008.56</ele>
        <time>2024-08-22T09:08:18Z</time>
      </trkpt>
      <trkpt lat="45.07163" lon="4.29628">
        <ele>1009.52</ele>
        <time>2024-08-22T09:08:21Z</time>
      </trkpt>
      <trkpt lat="45.07163" lon="4.29621">
        <ele>1012.89</ele>
        <time>2024-08-22T09:08:33Z</time>
      </trkpt>
      <trkpt lat="45.07168" lon="4.29611">
        <ele>1015.29</ele>
        <time>2024-08-22T09:08:44Z</time>
      </trkpt>
      <trkpt lat="45.07171" lon="4.29597">
        <ele>1013.85</ele>
        <time>2024-08-22T09:08:55Z</time>
      </trkpt>
      <trkpt lat="45.07177" lon="4.29586">
        <ele>1015.29</ele>
        <time>2024-08-22T09:09:08Z</time>
      </trkpt>
      <trkpt lat="45.0719" lon="4.2957">
        <ele>1014.81</ele>
        <time>2024-08-22T09:09:24Z</time>
      </trkpt>
      <trkpt lat="45.07195" lon="4.29568">
        <ele>1009.04</ele>
        <time>2024-08-22T09:09:38Z</time>
      </trkpt>
      <trkpt lat="45.07185" lon="4.29554">
        <ele>994.62</ele>
        <time>2024-08-22T09:09:50Z</time>
      </trkpt>
      <trkpt lat="45.07187" lon="4.29555">
        <ele>991.74</ele>
        <time>2024-08-22T09:10:02Z</time>
      </trkpt>
      <trkpt lat="45.07189" lon="4.29554">
        <ele>988.37</ele>
        <time>2024-08-22T09:10:17Z</time>
      </trkpt>
      <trkpt lat="45.07191" lon="4.29551">
        <ele>984.05</ele>
        <time>2024-08-22T09:10:26Z</time>
      </trkpt>
      <trkpt lat="45.07191" lon="4.29552">
        <ele>980.2</ele>
        <time>2024-08-22T09:10:43Z</time>
      </trkpt>
      <trkpt lat="45.07192" lon="4.29557">
        <ele>979.24</ele>
        <time>2024-08-22T09:10:48Z</time>
      </trkpt>
      <trkpt lat="45.07194" lon="4.2956">
        <ele>978.28</ele>
        <time>2024-08-22T09:10:58Z</time>
      </trkpt>
      <trkpt lat="45.07194" lon="4.29562">
        <ele>978.28</ele>
        <time>2024-08-22T09:11:11Z</time>
      </trkpt>
      <trkpt lat="45.07193" lon="4.29562">
        <ele>978.28</ele>
        <time>2024-08-22T09:11:22Z</time>
      </trkpt>
      <trkpt lat="45.07194" lon="4.29562">
        <ele>976.84</ele>
        <time>2024-08-22T09:11:44Z</time>
      </trkpt>
      <trkpt lat="45.07195" lon="4.29563">
        <ele>975.88</ele>
        <time>2024-08-22T09:12:03Z</time>
      </trkpt>
      <trkpt lat="45.07194" lon="4.29563">
        <ele>975.88</ele>
        <time>2024-08-22T09:12:14Z</time>
      </trkpt>
      <trkpt lat="45.07191" lon="4.29564">
        <ele>976.36</ele>
        <time>2024-08-22T09:12:26Z</time>
      </trkpt>
      <trkpt lat="45.07191" lon="4.29564">
        <ele>976.84</ele>
        <time>2024-08-22T09:12:41Z</time>
      </trkpt>
      <trkpt lat="45.07191" lon="4.29564">
        <ele>977.32</ele>
        <time>2024-08-22T09:13:01Z</time>
      </trkpt>
      <trkpt lat="45.07191" lon="4.29565">
        <ele>977.32</ele>
        <time>2024-08-22T09:13:19Z</time>
      </trkpt>
      <trkpt lat="45.0719" lon="4.29565">
        <ele>976.84</ele>
        <time>2024-08-22T09:13:36Z</time>
      </trkpt>
      <trkpt lat="45.07189" lon="4.29564">
        <ele>977.32</ele>
        <time>2024-08-22T09:13:57Z</time>
      </trkpt>
      <trkpt lat="45.07189" lon="4.29566">
        <ele>976.36</ele>
        <time>2024-08-22T09:14:17Z</time>
      </trkpt>
      <trkpt lat="45.07189" lon="4.29566">
        <ele>976.36</ele>
        <time>2024-08-22T09:14:25Z</time>
      </trkpt>
      <trkpt lat="45.07188" lon="4.29563">
        <ele>976.84</ele>
        <time>2024-08-22T09:14:29Z</time>
      </trkpt>
      <trkpt lat="45.07184" lon="4.29565">
        <ele>979.24</ele>
        <time>2024-08-22T09:14:41Z</time>
      </trkpt>
      <trkpt lat="45.07182" lon="4.29567">
        <ele>980.2</ele>
        <time>2024-08-22T09:14:44Z</time>
      </trkpt>
      <trkpt lat="45.07174" lon="4.29579">
        <ele>985.01</ele>
        <time>2024-08-22T09:14:56Z</time>
      </trkpt>
      <trkpt lat="45.0717" lon="4.29595">
        <ele>987.89</ele>
        <time>2024-08-22T09:15:07Z</time>
      </trkpt>
      <trkpt lat="45.0717" lon="4.29596">
        <ele>987.89</ele>
        <time>2024-08-22T09:15:08Z</time>
      </trkpt>
      <trkpt lat="45.07162" lon="4.29608">
        <ele>993.66</ele>
        <time>2024-08-22T09:15:20Z</time>
      </trkpt>
      <trkpt lat="45.0716" lon="4.29631">
        <ele>1001.35</ele>
        <time>2024-08-22T09:15:33Z</time>
      </trkpt>
      <trkpt lat="45.0716" lon="4.29632">
        <ele>1001.83</ele>
        <time>2024-08-22T09:15:34Z</time>
      </trkpt>
      <trkpt lat="45.07158" lon="4.29648">
        <ele>1008.56</ele>
        <time>2024-08-22T09:15:47Z</time>
      </trkpt>
      <trkpt lat="45.07153" lon="4.29666">
        <ele>1014.33</ele>
        <time>2024-08-22T09:16:01Z</time>
      </trkpt>
      <trkpt lat="45.07152" lon="4.29668">
        <ele>1014.33</ele>
        <time>2024-08-22T09:16:03Z</time>
      </trkpt>
      <trkpt lat="45.07148" lon="4.29675">
        <ele>1015.77</ele>
        <time>2024-08-22T09:16:09Z</time>
      </trkpt>
      <trkpt lat="45.07145" lon="4.29695">
        <ele>1019.62</ele>
        <time>2024-08-22T09:16:21Z</time>
      </trkpt>
      <trkpt lat="45.07142" lon="4.29733">
        <ele>1020.58</ele>
        <time>2024-08-22T09:16:32Z</time>
      </trkpt>
      <trkpt lat="45.07139" lon="4.29749">
        <ele>1022.02</ele>
        <time>2024-08-22T09:16:40Z</time>
      </trkpt>
      <trkpt lat="45.07138" lon="4.29753">
        <ele>1022.5</ele>
        <time>2024-08-22T09:16:43Z</time>
      </trkpt>
      <trkpt lat="45.07135" lon="4.29782">
        <ele>1022.98</ele>
        <time>2024-08-22T09:16:56Z</time>
      </trkpt>
      <trkpt lat="45.07133" lon="4.29791">
        <ele>1021.54</ele>
        <time>2024-08-22T09:17:00Z</time>
      </trkpt>
      <trkpt lat="45.07131" lon="4.29802">
        <ele>1022.02</ele>
        <time>2024-08-22T09:17:06Z</time>
      </trkpt>
      <trkpt lat="45.0713" lon="4.29805">
        <ele>1022.02</ele>
        <time>2024-08-22T09:17:08Z</time>
      </trkpt>
      <trkpt lat="45.07127" lon="4.29824">
        <ele>1022.5</ele>
        <time>2024-08-22T09:17:19Z</time>
      </trkpt>
      <trkpt lat="45.07127" lon="4.29826">
        <ele>1022.5</ele>
        <time>2024-08-22T09:17:20Z</time>
      </trkpt>
      <trkpt lat="45.07117" lon="4.29853">
        <ele>1021.06</ele>
        <time>2024-08-22T09:17:33Z</time>
      </trkpt>
      <trkpt lat="45.07112" lon="4.29864">
        <ele>1021.06</ele>
        <time>2024-08-22T09:17:38Z</time>
      </trkpt>
      <trkpt lat="45.07104" lon="4.29889">
        <ele>1018.65</ele>
        <time>2024-08-22T09:17:53Z</time>
      </trkpt>
      <trkpt lat="45.07097" lon="4.29906">
        <ele>1017.69</ele>
        <time>2024-08-22T09:18:07Z</time>
      </trkpt>
      <trkpt lat="45.07088" lon="4.2993">
        <ele>1016.25</ele>
        <time>2024-08-22T09:18:20Z</time>
      </trkpt>
      <trkpt lat="45.07085" lon="4.29941">
        <ele>1019.62</ele>
        <time>2024-08-22T09:18:29Z</time>
      </trkpt>
      <trkpt lat="45.07078" lon="4.29951">
        <ele>1023.46</ele>
        <time>2024-08-22T09:18:39Z</time>
      </trkpt>
      <trkpt lat="45.07075" lon="4.29965">
        <ele>1027.79</ele>
        <time>2024-08-22T09:18:52Z</time>
      </trkpt>
      <trkpt lat="45.07074" lon="4.29968">
        <ele>1027.79</ele>
        <time>2024-08-22T09:18:53Z</time>
      </trkpt>
      <trkpt lat="45.07073" lon="4.29977">
        <ele>1028.75</ele>
        <time>2024-08-22T09:18:57Z</time>
      </trkpt>
      <trkpt lat="45.07069" lon="4.29994">
        <ele>1030.19</ele>
        <time>2024-08-22T09:19:07Z</time>
      </trkpt>
      <trkpt lat="45.07069" lon="4.30001">
        <ele>1030.19</ele>
        <time>2024-08-22T09:19:10Z</time>
      </trkpt>
      <trkpt lat="45.07065" lon="4.30028">
        <ele>1028.75</ele>
        <time>2024-08-22T09:19:22Z</time>
      </trkpt>
      <trkpt lat="45.07061" lon="4.30043">
        <ele>1030.19</ele>
        <time>2024-08-22T09:19:38Z</time>
      </trkpt>
      <trkpt lat="45.07056" lon="4.30051">
        <ele>1029.71</ele>
        <time>2024-08-22T09:19:47Z</time>
      </trkpt>
      <trkpt lat="45.07053" lon="4.30057">
        <ele>1030.19</ele>
        <time>2024-08-22T09:19:53Z</time>
      </trkpt>
      <trkpt lat="45.07052" lon="4.3006">
        <ele>1031.15</ele>
        <time>2024-08-22T09:19:55Z</time>
      </trkpt>
      <trkpt lat="45.07049" lon="4.30074">
        <ele>1035</ele>
        <time>2024-08-22T09:20:09Z</time>
      </trkpt>
      <trkpt lat="45.07044" lon="4.30085">
        <ele>1038.84</ele>
        <time>2024-08-22T09:20:21Z</time>
      </trkpt>
      <trkpt lat="45.07037" lon="4.30096">
        <ele>1041.25</ele>
        <time>2024-08-22T09:20:29Z</time>
      </trkpt>
      <trkpt lat="45.07035" lon="4.30099">
        <ele>1041.73</ele>
        <time>2024-08-22T09:20:31Z</time>
      </trkpt>
      <trkpt lat="45.07033" lon="4.30111">
        <ele>1044.61</ele>
        <time>2024-08-22T09:20:34Z</time>
      </trkpt>
      <trkpt lat="45.07026" lon="4.30126">
        <ele>1044.61</ele>
        <time>2024-08-22T09:20:46Z</time>
      </trkpt>
      <trkpt lat="45.07019" lon="4.3014">
        <ele>1041.25</ele>
        <time>2024-08-22T09:20:52Z</time>
      </trkpt>
      <trkpt lat="45.07006" lon="4.30162">
        <ele>1042.21</ele>
        <time>2024-08-22T09:21:04Z</time>
      </trkpt>
      <trkpt lat="45.07" lon="4.3018">
        <ele>1043.17</ele>
        <time>2024-08-22T09:21:17Z</time>
      </trkpt>
      <trkpt lat="45.06996" lon="4.30194">
        <ele>1050.86</ele>
        <time>2024-08-22T09:21:30Z</time>
      </trkpt>
      <trkpt lat="45.06997" lon="4.30205">
        <ele>1056.63</ele>
        <time>2024-08-22T09:21:41Z</time>
      </trkpt>
      <trkpt lat="45.06997" lon="4.30209">
        <ele>1059.03</ele>
        <time>2024-08-22T09:21:48Z</time>
      </trkpt>
      <trkpt lat="45.06992" lon="4.30217">
        <ele>1059.51</ele>
        <time>2024-08-22T09:22:00Z</time>
      </trkpt>
      <trkpt lat="45.06974" lon="4.3023">
        <ele>1058.55</ele>
        <time>2024-08-22T09:22:07Z</time>
      </trkpt>
      <trkpt lat="45.06952" lon="4.30244">
        <ele>1060.47</ele>
        <time>2024-08-22T09:22:23Z</time>
      </trkpt>
      <trkpt lat="45.06947" lon="4.30251">
        <ele>1060.47</ele>
        <time>2024-08-22T09:22:36Z</time>
      </trkpt>
      <trkpt lat="45.0694" lon="4.30265">
        <ele>1058.07</ele>
        <time>2024-08-22T09:22:47Z</time>
      </trkpt>
      <trkpt lat="45.06936" lon="4.30271">
        <ele>1057.59</ele>
        <time>2024-08-22T09:22:52Z</time>
      </trkpt>
      <trkpt lat="45.06932" lon="4.30279">
        <ele>1056.63</ele>
        <time>2024-08-22T09:22:57Z</time>
      </trkpt>
      <trkpt lat="45.06925" lon="4.3029">
        <ele>1058.55</ele>
        <time>2024-08-22T09:23:06Z</time>
      </trkpt>
      <trkpt lat="45.06924" lon="4.30296">
        <ele>1059.99</ele>
        <time>2024-08-22T09:23:10Z</time>
      </trkpt>
      <trkpt lat="45.06918" lon="4.30303">
        <ele>1059.03</ele>
        <time>2024-08-22T09:23:15Z</time>
      </trkpt>
      <trkpt lat="45.06916" lon="4.30307">
        <ele>1057.59</ele>
        <time>2024-08-22T09:23:17Z</time>
      </trkpt>
      <trkpt lat="45.0691" lon="4.30314">
        <ele>1051.82</ele>
        <time>2024-08-22T09:23:22Z</time>
      </trkpt>
      <trkpt lat="45.06903" lon="4.30318">
        <ele>1046.53</ele>
        <time>2024-08-22T09:23:25Z</time>
      </trkpt>
      <trkpt lat="45.06899" lon="4.30323">
        <ele>1042.21</ele>
        <time>2024-08-22T09:23:28Z</time>
      </trkpt>
      <trkpt lat="45.06895" lon="4.30325">
        <ele>1039.8</ele>
        <time>2024-08-22T09:23:31Z</time>
      </trkpt>
      <trkpt lat="45.06887" lon="4.30336">
        <ele>1035.48</ele>
        <time>2024-08-22T09:23:40Z</time>
      </trkpt>
      <trkpt lat="45.06883" lon="4.30337">
        <ele>1034.52</ele>
        <time>2024-08-22T09:23:43Z</time>
      </trkpt>
      <trkpt lat="45.06876" lon="4.30359">
        <ele>1031.15</ele>
        <time>2024-08-22T09:23:55Z</time>
      </trkpt>
      <trkpt lat="45.06869" lon="4.30383">
        <ele>1025.86</ele>
        <time>2024-08-22T09:24:09Z</time>
      </trkpt>
      <trkpt lat="45.0687" lon="4.30394">
        <ele>1028.27</ele>
        <time>2024-08-22T09:24:15Z</time>
      </trkpt>
      <trkpt lat="45.06867" lon="4.30406">
        <ele>1030.19</ele>
        <time>2024-08-22T09:24:22Z</time>
      </trkpt>
      <trkpt lat="45.0687" lon="4.30421">
        <ele>1032.11</ele>
        <time>2024-08-22T09:24:27Z</time>
      </trkpt>
      <trkpt lat="45.06861" lon="4.3046">
        <ele>1032.11</ele>
        <time>2024-08-22T09:24:40Z</time>
      </trkpt>
      <trkpt lat="45.06859" lon="4.30466">
        <ele>1031.63</ele>
        <time>2024-08-22T09:24:43Z</time>
      </trkpt>
      <trkpt lat="45.06848" lon="4.30497">
        <ele>1021.06</ele>
        <time>2024-08-22T09:25:01Z</time>
      </trkpt>
      <trkpt lat="45.06838" lon="4.30525">
        <ele>1016.25</ele>
        <time>2024-08-22T09:25:19Z</time>
      </trkpt>
      <trkpt lat="45.06825" lon="4.30554">
        <ele>1007.12</ele>
        <time>2024-08-22T09:25:36Z</time>
      </trkpt>
      <trkpt lat="45.06827" lon="4.30568">
        <ele>1005.68</ele>
        <time>2024-08-22T09:25:50Z</time>
      </trkpt>
      <trkpt lat="45.06826" lon="4.30572">
        <ele>1005.68</ele>
        <time>2024-08-22T09:26:08Z</time>
      </trkpt>
      <trkpt lat="45.0683" lon="4.30574">
        <ele>1008.56</ele>
        <time>2024-08-22T09:26:19Z</time>
      </trkpt>
      <trkpt lat="45.06834" lon="4.30582">
        <ele>1016.25</ele>
        <time>2024-08-22T09:26:29Z</time>
      </trkpt>
      <trkpt lat="45.06842" lon="4.30591">
        <ele>1023.46</ele>
        <time>2024-08-22T09:26:39Z</time>
      </trkpt>
      <trkpt lat="45.06857" lon="4.30605">
        <ele>1026.83</ele>
        <time>2024-08-22T09:26:55Z</time>
      </trkpt>
      <trkpt lat="45.06872" lon="4.30624">
        <ele>1033.07</ele>
        <time>2024-08-22T09:27:13Z</time>
      </trkpt>
      <trkpt lat="45.06879" lon="4.30633">
        <ele>1033.55</ele>
        <time>2024-08-22T09:27:21Z</time>
      </trkpt>
      <trkpt lat="45.06883" lon="4.30639">
        <ele>1033.07</ele>
        <time>2024-08-22T09:27:25Z</time>
      </trkpt>
      <trkpt lat="45.06888" lon="4.30643">
        <ele>1030.67</ele>
        <time>2024-08-22T09:27:29Z</time>
      </trkpt>
      <trkpt lat="45.06899" lon="4.30655">
        <ele>1025.86</ele>
        <time>2024-08-22T09:27:39Z</time>
      </trkpt>
      <trkpt lat="45.06902" lon="4.3066">
        <ele>1024.42</ele>
        <time>2024-08-22T09:27:43Z</time>
      </trkpt>
      <trkpt lat="45.06912" lon="4.30675">
        <ele>1023.94</ele>
        <time>2024-08-22T09:27:54Z</time>
      </trkpt>
      <trkpt lat="45.06918" lon="4.30682">
        <ele>1019.62</ele>
        <time>2024-08-22T09:28:00Z</time>
      </trkpt>
      <trkpt lat="45.06922" lon="4.30688">
        <ele>1019.13</ele>
        <time>2024-08-22T09:28:05Z</time>
      </trkpt>
      <trkpt lat="45.06933" lon="4.30708">
        <ele>1019.13</ele>
        <time>2024-08-22T09:28:19Z</time>
      </trkpt>
      <trkpt lat="45.0694" lon="4.30719">
        <ele>1022.02</ele>
        <time>2024-08-22T09:28:26Z</time>
      </trkpt>
      <trkpt lat="45.06949" lon="4.30733">
        <ele>1027.31</ele>
        <time>2024-08-22T09:28:40Z</time>
      </trkpt>
      <trkpt lat="45.06956" lon="4.30745">
        <ele>1032.11</ele>
        <time>2024-08-22T09:28:51Z</time>
      </trkpt>
      <trkpt lat="45.06958" lon="4.30747">
        <ele>1033.07</ele>
        <time>2024-08-22T09:28:54Z</time>
      </trkpt>
      <trkpt lat="45.06969" lon="4.3076">
        <ele>1037.4</ele>
        <time>2024-08-22T09:29:08Z</time>
      </trkpt>
      <trkpt lat="45.06974" lon="4.30767">
        <ele>1040.28</ele>
        <time>2024-08-22T09:29:13Z</time>
      </trkpt>
      <trkpt lat="45.06979" lon="4.30775">
        <ele>1042.69</ele>
        <time>2024-08-22T09:29:19Z</time>
      </trkpt>
      <trkpt lat="45.0699" lon="4.30791">
        <ele>1046.05</ele>
        <time>2024-08-22T09:29:32Z</time>
      </trkpt>
      <trkpt lat="45.06996" lon="4.30798">
        <ele>1051.82</ele>
        <time>2024-08-22T09:29:40Z</time>
      </trkpt>
      <trkpt lat="45.07002" lon="4.30805">
        <ele>1054.22</ele>
        <time>2024-08-22T09:29:48Z</time>
      </trkpt>
      <trkpt lat="45.07015" lon="4.30825">
        <ele>1055.18</ele>
        <time>2024-08-22T09:30:01Z</time>
      </trkpt>
      <trkpt lat="45.07031" lon="4.30846">
        <ele>1054.22</ele>
        <time>2024-08-22T09:30:17Z</time>
      </trkpt>
      <trkpt lat="45.07044" lon="4.30863">
        <ele>1052.3</ele>
        <time>2024-08-22T09:30:29Z</time>
      </trkpt>
      <trkpt lat="45.07054" lon="4.3088">
        <ele>1052.78</ele>
        <time>2024-08-22T09:30:40Z</time>
      </trkpt>
      <trkpt lat="45.07068" lon="4.30901">
        <ele>1052.78</ele>
        <time>2024-08-22T09:30:55Z</time>
      </trkpt>
      <trkpt lat="45.07083" lon="4.30918">
        <ele>1054.7</ele>
        <time>2024-08-22T09:31:10Z</time>
      </trkpt>
      <trkpt lat="45.07092" lon="4.3094">
        <ele>1057.11</ele>
        <time>2024-08-22T09:31:22Z</time>
      </trkpt>
      <trkpt lat="45.07101" lon="4.30961">
        <ele>1057.11</ele>
        <time>2024-08-22T09:31:34Z</time>
      </trkpt>
      <trkpt lat="45.07105" lon="4.30969">
        <ele>1056.15</ele>
        <time>2024-08-22T09:31:39Z</time>
      </trkpt>
      <trkpt lat="45.0711" lon="4.30975">
        <ele>1054.22</ele>
        <time>2024-08-22T09:31:44Z</time>
      </trkpt>
      <trkpt lat="45.07124" lon="4.30998">
        <ele>1054.22</ele>
        <time>2024-08-22T09:31:58Z</time>
      </trkpt>
      <trkpt lat="45.07125" lon="4.30998">
        <ele>1054.7</ele>
        <time>2024-08-22T09:31:59Z</time>
      </trkpt>
      <trkpt lat="45.07128" lon="4.30997">
        <ele>1053.74</ele>
        <time>2024-08-22T09:32:09Z</time>
      </trkpt>
      <trkpt lat="45.07131" lon="4.30995">
        <ele>1051.82</ele>
        <time>2024-08-22T09:32:36Z</time>
      </trkpt>
      <trkpt lat="45.07131" lon="4.30993">
        <ele>1051.34</ele>
        <time>2024-08-22T09:33:06Z</time>
      </trkpt>
      <trkpt lat="45.07133" lon="4.30991">
        <ele>1050.86</ele>
        <time>2024-08-22T09:33:34Z</time>
      </trkpt>
      <trkpt lat="45.07135" lon="4.3099">
        <ele>1049.42</ele>
        <time>2024-08-22T09:34:10Z</time>
      </trkpt>
      <trkpt lat="45.07135" lon="4.3099">
        <ele>1048.45</ele>
        <time>2024-08-22T09:34:34Z</time>
      </trkpt>
      <trkpt lat="45.07135" lon="4.3099">
        <ele>1047.49</ele>
        <time>2024-08-22T09:35:00Z</time>
      </trkpt>
      <trkpt lat="45.07135" lon="4.3099">
        <ele>1047.01</ele>
        <time>2024-08-22T09:35:17Z</time>
      </trkpt>
      <trkpt lat="45.07135" lon="4.30989">
        <ele>1047.49</ele>
        <time>2024-08-22T09:35:41Z</time>
      </trkpt>
      <trkpt lat="45.07135" lon="4.30987">
        <ele>1047.49</ele>
        <time>2024-08-22T09:35:57Z</time>
      </trkpt>
      <trkpt lat="45.07135" lon="4.30984">
        <ele>1047.97</ele>
        <time>2024-08-22T09:36:19Z</time>
      </trkpt>
      <trkpt lat="45.07135" lon="4.30984">
        <ele>1048.45</ele>
        <time>2024-08-22T09:36:47Z</time>
      </trkpt>
      <trkpt lat="45.07136" lon="4.30985">
        <ele>1047.97</ele>
        <time>2024-08-22T09:37:09Z</time>
      </trkpt>
      <trkpt lat="45.07137" lon="4.30988">
        <ele>1047.01</ele>
        <time>2024-08-22T09:37:32Z</time>
      </trkpt>
      <trkpt lat="45.07137" lon="4.30988">
        <ele>1046.53</ele>
        <time>2024-08-22T09:37:58Z</time>
      </trkpt>
      <trkpt lat="45.07138" lon="4.30989">
        <ele>1046.05</ele>
        <time>2024-08-22T09:38:21Z</time>
      </trkpt>
      <trkpt lat="45.07138" lon="4.30989">
        <ele>1045.09</ele>
        <time>2024-08-22T09:38:48Z</time>
      </trkpt>
      <trkpt lat="45.0714" lon="4.30989">
        <ele>1046.05</ele>
        <time>2024-08-22T09:39:05Z</time>
      </trkpt>
      <trkpt lat="45.0714" lon="4.30992">
        <ele>1045.57</ele>
        <time>2024-08-22T09:39:25Z</time>
      </trkpt>
      <trkpt lat="45.0714" lon="4.30994">
        <ele>1045.57</ele>
        <time>2024-08-22T09:39:37Z</time>
      </trkpt>
      <trkpt lat="45.0714" lon="4.30998">
        <ele>1044.61</ele>
        <time>2024-08-22T09:39:50Z</time>
      </trkpt>
      <trkpt lat="45.07139" lon="4.31001">
        <ele>1042.21</ele>
        <time>2024-08-22T09:40:03Z</time>
      </trkpt>
      <trkpt lat="45.0714" lon="4.31005">
        <ele>1041.25</ele>
        <time>2024-08-22T09:40:17Z</time>
      </trkpt>
      <trkpt lat="45.07139" lon="4.3102">
        <ele>1041.25</ele>
        <time>2024-08-22T09:40:30Z</time>
      </trkpt>
      <trkpt lat="45.07136" lon="4.31025">
        <ele>1041.73</ele>
        <time>2024-08-22T09:40:35Z</time>
      </trkpt>
      <trkpt lat="45.07126" lon="4.31031">
        <ele>1039.32</ele>
        <time>2024-08-22T09:40:47Z</time>
      </trkpt>
      <trkpt lat="45.07112" lon="4.31031">
        <ele>1037.4</ele>
        <time>2024-08-22T09:40:58Z</time>
      </trkpt>
      <trkpt lat="45.07092" lon="4.31028">
        <ele>1038.36</ele>
        <time>2024-08-22T09:41:12Z</time>
      </trkpt>
      <trkpt lat="45.07082" lon="4.31025">
        <ele>1039.32</ele>
        <time>2024-08-22T09:41:19Z</time>
      </trkpt>
      <trkpt lat="45.07068" lon="4.3103">
        <ele>1040.28</ele>
        <time>2024-08-22T09:41:32Z</time>
      </trkpt>
      <trkpt lat="45.07062" lon="4.31039">
        <ele>1041.25</ele>
        <time>2024-08-22T09:41:43Z</time>
      </trkpt>
      <trkpt lat="45.07059" lon="4.31051">
        <ele>1039.8</ele>
        <time>2024-08-22T09:41:52Z</time>
      </trkpt>
      <trkpt lat="45.07055" lon="4.31055">
        <ele>1037.88</ele>
        <time>2024-08-22T09:41:57Z</time>
      </trkpt>
      <trkpt lat="45.07058" lon="4.31064">
        <ele>1036.44</ele>
        <time>2024-08-22T09:42:03Z</time>
      </trkpt>
      <trkpt lat="45.07049" lon="4.31071">
        <ele>1034.04</ele>
        <time>2024-08-22T09:42:10Z</time>
      </trkpt>
      <trkpt lat="45.07059" lon="4.3109">
        <ele>1033.07</ele>
        <time>2024-08-22T09:42:18Z</time>
      </trkpt>
      <trkpt lat="45.07054" lon="4.31093">
        <ele>1033.07</ele>
        <time>2024-08-22T09:42:22Z</time>
      </trkpt>
      <trkpt lat="45.07032" lon="4.3109">
        <ele>1030.67</ele>
        <time>2024-08-22T09:42:33Z</time>
      </trkpt>
      <trkpt lat="45.07028" lon="4.3109">
        <ele>1030.67</ele>
        <time>2024-08-22T09:42:35Z</time>
      </trkpt>
      <trkpt lat="45.07011" lon="4.31088">
        <ele>1031.15</ele>
        <time>2024-08-22T09:42:46Z</time>
      </trkpt>
      <trkpt lat="45.06998" lon="4.31102">
        <ele>1033.07</ele>
        <time>2024-08-22T09:42:59Z</time>
      </trkpt>
      <trkpt lat="45.06996" lon="4.31105">
        <ele>1033.07</ele>
        <time>2024-08-22T09:43:02Z</time>
      </trkpt>
      <trkpt lat="45.06995" lon="4.31108">
        <ele>1033.55</ele>
        <time>2024-08-22T09:43:04Z</time>
      </trkpt>
      <trkpt lat="45.06995" lon="4.31117">
        <ele>1034.04</ele>
        <time>2024-08-22T09:43:09Z</time>
      </trkpt>
      <trkpt lat="45.0699" lon="4.31128">
        <ele>1038.84</ele>
        <time>2024-08-22T09:43:20Z</time>
      </trkpt>
      <trkpt lat="45.06988" lon="4.3113">
        <ele>1039.8</ele>
        <time>2024-08-22T09:43:22Z</time>
      </trkpt>
      <trkpt lat="45.06983" lon="4.31143">
        <ele>1043.65</ele>
        <time>2024-08-22T09:43:34Z</time>
      </trkpt>
      <trkpt lat="45.0698" lon="4.31153">
        <ele>1046.05</ele>
        <time>2024-08-22T09:43:41Z</time>
      </trkpt>
      <trkpt lat="45.06976" lon="4.31161">
        <ele>1047.49</ele>
        <time>2024-08-22T09:43:47Z</time>
      </trkpt>
      <trkpt lat="45.06975" lon="4.31164">
        <ele>1047.49</ele>
        <time>2024-08-22T09:43:49Z</time>
      </trkpt>
      <trkpt lat="45.0697" lon="4.31184">
        <ele>1045.57</ele>
        <time>2024-08-22T09:44:00Z</time>
      </trkpt>
      <trkpt lat="45.06968" lon="4.3119">
        <ele>1045.09</ele>
        <time>2024-08-22T09:44:04Z</time>
      </trkpt>
      <trkpt lat="45.06962" lon="4.31208">
        <ele>1047.01</ele>
        <time>2024-08-22T09:44:17Z</time>
      </trkpt>
      <trkpt lat="45.0696" lon="4.31212">
        <ele>1047.01</ele>
        <time>2024-08-22T09:44:20Z</time>
      </trkpt>
      <trkpt lat="45.06957" lon="4.31219">
        <ele>1047.97</ele>
        <time>2024-08-22T09:44:25Z</time>
      </trkpt>
      <trkpt lat="45.06955" lon="4.31229">
        <ele>1048.45</ele>
        <time>2024-08-22T09:44:32Z</time>
      </trkpt>
      <trkpt lat="45.06954" lon="4.31236">
        <ele>1047.49</ele>
        <time>2024-08-22T09:44:37Z</time>
      </trkpt>
      <trkpt lat="45.06955" lon="4.31244">
        <ele>1045.57</ele>
        <time>2024-08-22T09:44:42Z</time>
      </trkpt>
      <trkpt lat="45.06955" lon="4.31261">
        <ele>1045.09</ele>
        <time>2024-08-22T09:44:56Z</time>
      </trkpt>
      <trkpt lat="45.06958" lon="4.3128">
        <ele>1046.05</ele>
        <time>2024-08-22T09:45:08Z</time>
      </trkpt>
      <trkpt lat="45.06959" lon="4.31293">
        <ele>1047.49</ele>
        <time>2024-08-22T09:45:22Z</time>
      </trkpt>
      <trkpt lat="45.0696" lon="4.31293">
        <ele>1047.97</ele>
        <time>2024-08-22T09:45:27Z</time>
      </trkpt>
      <trkpt lat="45.06962" lon="4.31307">
        <ele>1049.9</ele>
        <time>2024-08-22T09:45:40Z</time>
      </trkpt>
      <trkpt lat="45.06963" lon="4.31313">
        <ele>1051.34</ele>
        <time>2024-08-22T09:45:44Z</time>
      </trkpt>
      <trkpt lat="45.06959" lon="4.31328">
        <ele>1056.15</ele>
        <time>2024-08-22T09:45:54Z</time>
      </trkpt>
      <trkpt lat="45.06959" lon="4.31335">
        <ele>1058.07</ele>
        <time>2024-08-22T09:45:58Z</time>
      </trkpt>
      <trkpt lat="45.06956" lon="4.31346">
        <ele>1060.47</ele>
        <time>2024-08-22T09:46:06Z</time>
      </trkpt>
      <trkpt lat="45.06953" lon="4.31353">
        <ele>1060.95</ele>
        <time>2024-08-22T09:46:11Z</time>
      </trkpt>
      <trkpt lat="45.06953" lon="4.31365">
        <ele>1060.95</ele>
        <time>2024-08-22T09:46:17Z</time>
      </trkpt>
      <trkpt lat="45.06952" lon="4.31372">
        <ele>1059.99</ele>
        <time>2024-08-22T09:46:21Z</time>
      </trkpt>
      <trkpt lat="45.0695" lon="4.31388">
        <ele>1057.59</ele>
        <time>2024-08-22T09:46:30Z</time>
      </trkpt>
      <trkpt lat="45.06942" lon="4.31406">
        <ele>1059.99</ele>
        <time>2024-08-22T09:46:42Z</time>
      </trkpt>
      <trkpt lat="45.06938" lon="4.31434">
        <ele>1061.43</ele>
        <time>2024-08-22T09:46:58Z</time>
      </trkpt>
      <trkpt lat="45.06936" lon="4.31455">
        <ele>1063.84</ele>
        <time>2024-08-22T09:47:10Z</time>
      </trkpt>
      <trkpt lat="45.06932" lon="4.31471">
        <ele>1070.08</ele>
        <time>2024-08-22T09:47:21Z</time>
      </trkpt>
      <trkpt lat="45.06931" lon="4.31474">
        <ele>1071.05</ele>
        <time>2024-08-22T09:47:23Z</time>
      </trkpt>
      <trkpt lat="45.06929" lon="4.31488">
        <ele>1073.45</ele>
        <time>2024-08-22T09:47:30Z</time>
      </trkpt>
      <trkpt lat="45.06925" lon="4.31513">
        <ele>1075.37</ele>
        <time>2024-08-22T09:47:45Z</time>
      </trkpt>
      <trkpt lat="45.06924" lon="4.31531">
        <ele>1074.89</ele>
        <time>2024-08-22T09:47:57Z</time>
      </trkpt>
      <trkpt lat="45.06921" lon="4.31551">
        <ele>1076.33</ele>
        <time>2024-08-22T09:48:11Z</time>
      </trkpt>
      <trkpt lat="45.0692" lon="4.31571">
        <ele>1078.74</ele>
        <time>2024-08-22T09:48:23Z</time>
      </trkpt>
      <trkpt lat="45.06918" lon="4.31589">
        <ele>1080.18</ele>
        <time>2024-08-22T09:48:35Z</time>
      </trkpt>
      <trkpt lat="45.06916" lon="4.31609">
        <ele>1082.58</ele>
        <time>2024-08-22T09:48:47Z</time>
      </trkpt>
      <trkpt lat="45.06916" lon="4.3163">
        <ele>1084.5</ele>
        <time>2024-08-22T09:49:00Z</time>
      </trkpt>
      <trkpt lat="45.06916" lon="4.31634">
        <ele>1084.5</ele>
        <time>2024-08-22T09:49:02Z</time>
      </trkpt>
      <trkpt lat="45.06915" lon="4.31649">
        <ele>1084.99</ele>
        <time>2024-08-22T09:49:10Z</time>
      </trkpt>
      <trkpt lat="45.06915" lon="4.31656">
        <ele>1085.95</ele>
        <time>2024-08-22T09:49:14Z</time>
      </trkpt>
      <trkpt lat="45.06914" lon="4.31677">
        <ele>1086.91</ele>
        <time>2024-08-22T09:49:27Z</time>
      </trkpt>
      <trkpt lat="45.06916" lon="4.31704">
        <ele>1087.39</ele>
        <time>2024-08-22T09:49:41Z</time>
      </trkpt>
      <trkpt lat="45.06914" lon="4.31719">
        <ele>1089.31</ele>
        <time>2024-08-22T09:49:51Z</time>
      </trkpt>
      <trkpt lat="45.06914" lon="4.31722">
        <ele>1089.31</ele>
        <time>2024-08-22T09:49:53Z</time>
      </trkpt>
      <trkpt lat="45.06915" lon="4.31744">
        <ele>1091.71</ele>
        <time>2024-08-22T09:50:07Z</time>
      </trkpt>
      <trkpt lat="45.06915" lon="4.31745">
        <ele>1093.64</ele>
        <time>2024-08-22T09:50:22Z</time>
      </trkpt>
      <trkpt lat="45.06917" lon="4.31749">
        <ele>1094.12</ele>
        <time>2024-08-22T09:50:28Z</time>
      </trkpt>
      <trkpt lat="45.06922" lon="4.31771">
        <ele>1093.64</ele>
        <time>2024-08-22T09:50:44Z</time>
      </trkpt>
      <trkpt lat="45.06921" lon="4.31775">
        <ele>1094.12</ele>
        <time>2024-08-22T09:50:47Z</time>
      </trkpt>
      <trkpt lat="45.06917" lon="4.31783">
        <ele>1094.6</ele>
        <time>2024-08-22T09:50:53Z</time>
      </trkpt>
      <trkpt lat="45.06907" lon="4.31789">
        <ele>1095.08</ele>
        <time>2024-08-22T09:51:08Z</time>
      </trkpt>
      <trkpt lat="45.06898" lon="4.318">
        <ele>1097.48</ele>
        <time>2024-08-22T09:51:21Z</time>
      </trkpt>
      <trkpt lat="45.06887" lon="4.31809">
        <ele>1094.12</ele>
        <time>2024-08-22T09:51:34Z</time>
      </trkpt>
      <trkpt lat="45.06885" lon="4.3181">
        <ele>1094.12</ele>
        <time>2024-08-22T09:51:35Z</time>
      </trkpt>
      <trkpt lat="45.06871" lon="4.31831">
        <ele>1091.71</ele>
        <time>2024-08-22T09:51:50Z</time>
      </trkpt>
      <trkpt lat="45.06864" lon="4.31849">
        <ele>1090.27</ele>
        <time>2024-08-22T09:52:02Z</time>
      </trkpt>
      <trkpt lat="45.06853" lon="4.31866">
        <ele>1090.27</ele>
        <time>2024-08-22T09:52:13Z</time>
      </trkpt>
      <trkpt lat="45.06849" lon="4.31882">
        <ele>1090.75</ele>
        <time>2024-08-22T09:52:22Z</time>
      </trkpt>
      <trkpt lat="45.06839" lon="4.31898">
        <ele>1090.27</ele>
        <time>2024-08-22T09:52:34Z</time>
      </trkpt>
      <trkpt lat="45.06836" lon="4.31904">
        <ele>1089.31</ele>
        <time>2024-08-22T09:52:38Z</time>
      </trkpt>
      <trkpt lat="45.06833" lon="4.31909">
        <ele>1088.83</ele>
        <time>2024-08-22T09:52:42Z</time>
      </trkpt>
      <trkpt lat="45.06829" lon="4.31911">
        <ele>1088.83</ele>
        <time>2024-08-22T09:52:45Z</time>
      </trkpt>
      <trkpt lat="45.06827" lon="4.31913">
        <ele>1087.87</ele>
        <time>2024-08-22T09:52:49Z</time>
      </trkpt>
      <trkpt lat="45.06819" lon="4.31914">
        <ele>1088.35</ele>
        <time>2024-08-22T09:52:53Z</time>
      </trkpt>
      <trkpt lat="45.06806" lon="4.31928">
        <ele>1086.91</ele>
        <time>2024-08-22T09:53:06Z</time>
      </trkpt>
      <trkpt lat="45.06801" lon="4.31938">
        <ele>1086.43</ele>
        <time>2024-08-22T09:53:12Z</time>
      </trkpt>
      <trkpt lat="45.06787" lon="4.31948">
        <ele>1085.95</ele>
        <time>2024-08-22T09:53:25Z</time>
      </trkpt>
      <trkpt lat="45.06785" lon="4.3195">
        <ele>1085.47</ele>
        <time>2024-08-22T09:53:27Z</time>
      </trkpt>
      <trkpt lat="45.06776" lon="4.31953">
        <ele>1084.02</ele>
        <time>2024-08-22T09:53:32Z</time>
      </trkpt>
      <trkpt lat="45.06775" lon="4.31959">
        <ele>1082.1</ele>
        <time>2024-08-22T09:53:36Z</time>
      </trkpt>
      <trkpt lat="45.06763" lon="4.31973">
        <ele>1080.18</ele>
        <time>2024-08-22T09:53:48Z</time>
      </trkpt>
      <trkpt lat="45.06759" lon="4.31982">
        <ele>1078.74</ele>
        <time>2024-08-22T09:53:54Z</time>
      </trkpt>
      <trkpt lat="45.06757" lon="4.31992">
        <ele>1076.81</ele>
        <time>2024-08-22T09:53:59Z</time>
      </trkpt>
      <trkpt lat="45.06756" lon="4.32004">
        <ele>1074.89</ele>
        <time>2024-08-22T09:54:06Z</time>
      </trkpt>
      <trkpt lat="45.06755" lon="4.32011">
        <ele>1072.97</ele>
        <time>2024-08-22T09:54:10Z</time>
      </trkpt>
      <trkpt lat="45.06758" lon="4.32034">
        <ele>1071.05</ele>
        <time>2024-08-22T09:54:23Z</time>
      </trkpt>
      <trkpt lat="45.06761" lon="4.32047">
        <ele>1067.2</ele>
        <time>2024-08-22T09:54:33Z</time>
      </trkpt>
      <trkpt lat="45.06767" lon="4.32063">
        <ele>1059.99</ele>
        <time>2024-08-22T09:54:44Z</time>
      </trkpt>
      <trkpt lat="45.06768" lon="4.32067">
        <ele>1058.55</ele>
        <time>2024-08-22T09:54:47Z</time>
      </trkpt>
      <trkpt lat="45.06768" lon="4.3207">
        <ele>1058.55</ele>
        <time>2024-08-22T09:54:49Z</time>
      </trkpt>
      <trkpt lat="45.06755" lon="4.32082">
        <ele>1060.47</ele>
        <time>2024-08-22T09:55:04Z</time>
      </trkpt>
      <trkpt lat="45.06751" lon="4.32087">
        <ele>1059.03</ele>
        <time>2024-08-22T09:55:09Z</time>
      </trkpt>
      <trkpt lat="45.06749" lon="4.3209">
        <ele>1058.55</ele>
        <time>2024-08-22T09:55:11Z</time>
      </trkpt>
      <trkpt lat="45.06745" lon="4.32093">
        <ele>1058.07</ele>
        <time>2024-08-22T09:55:15Z</time>
      </trkpt>
      <trkpt lat="45.06735" lon="4.32095">
        <ele>1059.51</ele>
        <time>2024-08-22T09:55:30Z</time>
      </trkpt>
      <trkpt lat="45.06732" lon="4.32096">
        <ele>1058.55</ele>
        <time>2024-08-22T09:55:45Z</time>
      </trkpt>
      <trkpt lat="45.06729" lon="4.32095">
        <ele>1061.43</ele>
        <time>2024-08-22T09:56:10Z</time>
      </trkpt>
      <trkpt lat="45.06729" lon="4.32095">
        <ele>1061.43</ele>
        <time>2024-08-22T09:56:19Z</time>
      </trkpt>
      <trkpt lat="45.06731" lon="4.32104">
        <ele>1061.91</ele>
        <time>2024-08-22T09:56:24Z</time>
      </trkpt>
      <trkpt lat="45.06737" lon="4.32116">
        <ele>1061.91</ele>
        <time>2024-08-22T09:56:34Z</time>
      </trkpt>
      <trkpt lat="45.06745" lon="4.32127">
        <ele>1061.91</ele>
        <time>2024-08-22T09:56:46Z</time>
      </trkpt>
      <trkpt lat="45.06758" lon="4.32139">
        <ele>1061.91</ele>
        <time>2024-08-22T09:57:00Z</time>
      </trkpt>
      <trkpt lat="45.06761" lon="4.32143">
        <ele>1061.43</ele>
        <time>2024-08-22T09:57:03Z</time>
      </trkpt>
      <trkpt lat="45.06762" lon="4.32146">
        <ele>1061.43</ele>
        <time>2024-08-22T09:57:05Z</time>
      </trkpt>
      <trkpt lat="45.06774" lon="4.32165">
        <ele>1059.99</ele>
        <time>2024-08-22T09:57:21Z</time>
      </trkpt>
      <trkpt lat="45.06776" lon="4.32172">
        <ele>1058.55</ele>
        <time>2024-08-22T09:57:26Z</time>
      </trkpt>
      <trkpt lat="45.06775" lon="4.32178">
        <ele>1058.07</ele>
        <time>2024-08-22T09:57:30Z</time>
      </trkpt>
      <trkpt lat="45.06766" lon="4.32187">
        <ele>1056.15</ele>
        <time>2024-08-22T09:57:41Z</time>
      </trkpt>
      <trkpt lat="45.06754" lon="4.32208">
        <ele>1049.9</ele>
        <time>2024-08-22T09:57:56Z</time>
      </trkpt>
      <trkpt lat="45.0675" lon="4.32212">
        <ele>1048.94</ele>
        <time>2024-08-22T09:58:00Z</time>
      </trkpt>
      <trkpt lat="45.06738" lon="4.32224">
        <ele>1045.57</ele>
        <time>2024-08-22T09:58:10Z</time>
      </trkpt>
      <trkpt lat="45.06736" lon="4.32227">
        <ele>1045.09</ele>
        <time>2024-08-22T09:58:13Z</time>
      </trkpt>
      <trkpt lat="45.06714" lon="4.32244">
        <ele>1047.01</ele>
        <time>2024-08-22T09:58:31Z</time>
      </trkpt>
      <trkpt lat="45.06697" lon="4.32273">
        <ele>1040.28</ele>
        <time>2024-08-22T09:58:50Z</time>
      </trkpt>
      <trkpt lat="45.06691" lon="4.32295">
        <ele>1037.88</ele>
        <time>2024-08-22T09:59:04Z</time>
      </trkpt>
      <trkpt lat="45.0669" lon="4.32302">
        <ele>1037.88</ele>
        <time>2024-08-22T09:59:17Z</time>
      </trkpt>
      <trkpt lat="45.06689" lon="4.32303">
        <ele>1038.84</ele>
        <time>2024-08-22T09:59:38Z</time>
      </trkpt>
      <trkpt lat="45.06689" lon="4.32303">
        <ele>1038.84</ele>
        <time>2024-08-22T09:59:59Z</time>
      </trkpt>
      <trkpt lat="45.06689" lon="4.32302">
        <ele>1038.84</ele>
        <time>2024-08-22T10:00:26Z</time>
      </trkpt>
      <trkpt lat="45.0669" lon="4.32303">
        <ele>1038.84</ele>
        <time>2024-08-22T10:00:39Z</time>
      </trkpt>
      <trkpt lat="45.06686" lon="4.32296">
        <ele>1038.36</ele>
        <time>2024-08-22T10:00:48Z</time>
      </trkpt>
      <trkpt lat="45.06683" lon="4.32291">
        <ele>1037.88</ele>
        <time>2024-08-22T10:00:52Z</time>
      </trkpt>
      <trkpt lat="45.06672" lon="4.32268">
        <ele>1036.92</ele>
        <time>2024-08-22T10:01:09Z</time>
      </trkpt>
      <trkpt lat="45.06659" lon="4.32245">
        <ele>1034.52</ele>
        <time>2024-08-22T10:01:26Z</time>
      </trkpt>
      <trkpt lat="45.06653" lon="4.32234">
        <ele>1033.55</ele>
        <time>2024-08-22T10:01:34Z</time>
      </trkpt>
      <trkpt lat="45.06641" lon="4.32218">
        <ele>1031.15</ele>
        <time>2024-08-22T10:01:48Z</time>
      </trkpt>
      <trkpt lat="45.06637" lon="4.32221">
        <ele>1030.19</ele>
        <time>2024-08-22T10:01:53Z</time>
      </trkpt>
      <trkpt lat="45.06634" lon="4.32227">
        <ele>1029.71</ele>
        <time>2024-08-22T10:01:58Z</time>
      </trkpt>
      <trkpt lat="45.06632" lon="4.32233">
        <ele>1029.71</ele>
        <time>2024-08-22T10:02:03Z</time>
      </trkpt>
      <trkpt lat="45.06625" lon="4.32249">
        <ele>1029.23</ele>
        <time>2024-08-22T10:02:16Z</time>
      </trkpt>
      <trkpt lat="45.06623" lon="4.32253">
        <ele>1029.23</ele>
        <time>2024-08-22T10:02:19Z</time>
      </trkpt>
      <trkpt lat="45.06611" lon="4.32268">
        <ele>1032.11</ele>
        <time>2024-08-22T10:02:35Z</time>
      </trkpt>
      <trkpt lat="45.06599" lon="4.32279">
        <ele>1034.04</ele>
        <time>2024-08-22T10:02:49Z</time>
      </trkpt>
      <trkpt lat="45.06586" lon="4.32288">
        <ele>1034.04</ele>
        <time>2024-08-22T10:03:04Z</time>
      </trkpt>
      <trkpt lat="45.06577" lon="4.32295">
        <ele>1033.07</ele>
        <time>2024-08-22T10:03:16Z</time>
      </trkpt>
      <trkpt lat="45.06557" lon="4.32307">
        <ele>1031.15</ele>
        <time>2024-08-22T10:03:30Z</time>
      </trkpt>
      <trkpt lat="45.06551" lon="4.32314">
        <ele>1031.15</ele>
        <time>2024-08-22T10:03:36Z</time>
      </trkpt>
      <trkpt lat="45.06541" lon="4.32326">
        <ele>1033.07</ele>
        <time>2024-08-22T10:03:47Z</time>
      </trkpt>
      <trkpt lat="45.06521" lon="4.32336">
        <ele>1035.48</ele>
        <time>2024-08-22T10:04:02Z</time>
      </trkpt>
      <trkpt lat="45.06509" lon="4.32341">
        <ele>1033.55</ele>
        <time>2024-08-22T10:04:10Z</time>
      </trkpt>
      <trkpt lat="45.0649" lon="4.32346">
        <ele>1031.15</ele>
        <time>2024-08-22T10:04:25Z</time>
      </trkpt>
      <trkpt lat="45.06484" lon="4.32347">
        <ele>1031.15</ele>
        <time>2024-08-22T10:04:29Z</time>
      </trkpt>
      <trkpt lat="45.06465" lon="4.32351">
        <ele>1029.23</ele>
        <time>2024-08-22T10:04:43Z</time>
      </trkpt>
      <trkpt lat="45.06444" lon="4.32357">
        <ele>1028.27</ele>
        <time>2024-08-22T10:04:58Z</time>
      </trkpt>
      <trkpt lat="45.0644" lon="4.32358">
        <ele>1027.79</ele>
        <time>2024-08-22T10:05:01Z</time>
      </trkpt>
      <trkpt lat="45.06421" lon="4.32368">
        <ele>1027.31</ele>
        <time>2024-08-22T10:05:16Z</time>
      </trkpt>
      <trkpt lat="45.06398" lon="4.32375">
        <ele>1025.38</ele>
        <time>2024-08-22T10:05:34Z</time>
      </trkpt>
      <trkpt lat="45.06376" lon="4.32379">
        <ele>1022.98</ele>
        <time>2024-08-22T10:05:51Z</time>
      </trkpt>
      <trkpt lat="45.06354" lon="4.32391">
        <ele>1024.9</ele>
        <time>2024-08-22T10:06:07Z</time>
      </trkpt>
      <trkpt lat="45.0635" lon="4.32393">
        <ele>1025.86</ele>
        <time>2024-08-22T10:06:10Z</time>
      </trkpt>
      <trkpt lat="45.06344" lon="4.32397">
        <ele>1026.83</ele>
        <time>2024-08-22T10:06:15Z</time>
      </trkpt>
      <trkpt lat="45.06325" lon="4.32401">
        <ele>1023.94</ele>
        <time>2024-08-22T10:06:30Z</time>
      </trkpt>
      <trkpt lat="45.06318" lon="4.32403">
        <ele>1022.02</ele>
        <time>2024-08-22T10:06:42Z</time>
      </trkpt>
      <trkpt lat="45.06302" lon="4.32403">
        <ele>1021.06</ele>
        <time>2024-08-22T10:06:54Z</time>
      </trkpt>
      <trkpt lat="45.0628" lon="4.32402">
        <ele>1022.98</ele>
        <time>2024-08-22T10:07:08Z</time>
      </trkpt>
      <trkpt lat="45.0627" lon="4.32398">
        <ele>1020.1</ele>
        <time>2024-08-22T10:07:21Z</time>
      </trkpt>
      <trkpt lat="45.06269" lon="4.32398">
        <ele>1019.62</ele>
        <time>2024-08-22T10:07:22Z</time>
      </trkpt>
      <trkpt lat="45.06248" lon="4.32392">
        <ele>1017.69</ele>
        <time>2024-08-22T10:07:38Z</time>
      </trkpt>
      <trkpt lat="45.06241" lon="4.32391">
        <ele>1016.25</ele>
        <time>2024-08-22T10:07:49Z</time>
      </trkpt>
      <trkpt lat="45.06241" lon="4.32391">
        <ele>1015.29</ele>
        <time>2024-08-22T10:08:11Z</time>
      </trkpt>
      <trkpt lat="45.06241" lon="4.32391">
        <ele>1015.29</ele>
        <time>2024-08-22T10:08:12Z</time>
      </trkpt>
      <trkpt lat="45.06237" lon="4.32393">
        <ele>1015.29</ele>
        <time>2024-08-22T10:08:26Z</time>
      </trkpt>
      <trkpt lat="45.06233" lon="4.32398">
        <ele>1015.29</ele>
        <time>2024-08-22T10:08:39Z</time>
      </trkpt>
      <trkpt lat="45.06219" lon="4.32413">
        <ele>1014.81</ele>
        <time>2024-08-22T10:08:54Z</time>
      </trkpt>
      <trkpt lat="45.06209" lon="4.32416">
        <ele>1014.33</ele>
        <time>2024-08-22T10:09:02Z</time>
      </trkpt>
      <trkpt lat="45.062" lon="4.32411">
        <ele>1013.37</ele>
        <time>2024-08-22T10:09:12Z</time>
      </trkpt>
      <trkpt lat="45.06191" lon="4.32404">
        <ele>1013.37</ele>
        <time>2024-08-22T10:09:22Z</time>
      </trkpt>
      <trkpt lat="45.06169" lon="4.32403">
        <ele>1011.93</ele>
        <time>2024-08-22T10:09:40Z</time>
      </trkpt>
      <trkpt lat="45.06149" lon="4.324">
        <ele>1010.48</ele>
        <time>2024-08-22T10:09:55Z</time>
      </trkpt>
      <trkpt lat="45.06138" lon="4.32397">
        <ele>1008.08</ele>
        <time>2024-08-22T10:10:05Z</time>
      </trkpt>
      <trkpt lat="45.06124" lon="4.32386">
        <ele>1005.68</ele>
        <time>2024-08-22T10:10:18Z</time>
      </trkpt>
      <trkpt lat="45.06116" lon="4.32367">
        <ele>1002.79</ele>
        <time>2024-08-22T10:10:34Z</time>
      </trkpt>
      <trkpt lat="45.06108" lon="4.32356">
        <ele>1000.87</ele>
        <time>2024-08-22T10:10:44Z</time>
      </trkpt>
      <trkpt lat="45.06091" lon="4.32356">
        <ele>998.47</ele>
        <time>2024-08-22T10:10:59Z</time>
      </trkpt>
      <trkpt lat="45.06086" lon="4.3236">
        <ele>997.51</ele>
        <time>2024-08-22T10:11:03Z</time>
      </trkpt>
      <trkpt lat="45.06067" lon="4.3235">
        <ele>996.54</ele>
        <time>2024-08-22T10:11:20Z</time>
      </trkpt>
      <trkpt lat="45.06061" lon="4.32327">
        <ele>998.47</ele>
        <time>2024-08-22T10:11:34Z</time>
      </trkpt>
      <trkpt lat="45.06046" lon="4.32307">
        <ele>997.51</ele>
        <time>2024-08-22T10:11:50Z</time>
      </trkpt>
      <trkpt lat="45.06026" lon="4.32289">
        <ele>995.58</ele>
        <time>2024-08-22T10:12:07Z</time>
      </trkpt>
      <trkpt lat="45.0601" lon="4.32273">
        <ele>994.14</ele>
        <time>2024-08-22T10:12:23Z</time>
      </trkpt>
      <trkpt lat="45.0599" lon="4.32256">
        <ele>996.54</ele>
        <time>2024-08-22T10:12:39Z</time>
      </trkpt>
      <trkpt lat="45.05974" lon="4.32244">
        <ele>995.58</ele>
        <time>2024-08-22T10:12:53Z</time>
      </trkpt>
      <trkpt lat="45.0595" lon="4.32227">
        <ele>994.62</ele>
        <time>2024-08-22T10:13:12Z</time>
      </trkpt>
      <trkpt lat="45.05931" lon="4.32215">
        <ele>995.1</ele>
        <time>2024-08-22T10:13:28Z</time>
      </trkpt>
      <trkpt lat="45.05915" lon="4.32202">
        <ele>996.54</ele>
        <time>2024-08-22T10:13:42Z</time>
      </trkpt>
      <trkpt lat="45.0591" lon="4.32194">
        <ele>996.54</ele>
        <time>2024-08-22T10:13:48Z</time>
      </trkpt>
      <trkpt lat="45.05907" lon="4.32187">
        <ele>996.54</ele>
        <time>2024-08-22T10:13:52Z</time>
      </trkpt>
      <trkpt lat="45.05899" lon="4.32151">
        <ele>996.06</ele>
        <time>2024-08-22T10:14:10Z</time>
      </trkpt>
      <trkpt lat="45.05892" lon="4.32125">
        <ele>996.54</ele>
        <time>2024-08-22T10:14:25Z</time>
      </trkpt>
      <trkpt lat="45.05877" lon="4.32098">
        <ele>998.95</ele>
        <time>2024-08-22T10:14:44Z</time>
      </trkpt>
      <trkpt lat="45.05868" lon="4.32072">
        <ele>1001.83</ele>
        <time>2024-08-22T10:15:00Z</time>
      </trkpt>
      <trkpt lat="45.05862" lon="4.32042">
        <ele>1003.75</ele>
        <time>2024-08-22T10:15:16Z</time>
      </trkpt>
      <trkpt lat="45.05862" lon="4.32009">
        <ele>1004.23</ele>
        <time>2024-08-22T10:15:33Z</time>
      </trkpt>
      <trkpt lat="45.05866" lon="4.31975">
        <ele>1004.23</ele>
        <time>2024-08-22T10:15:51Z</time>
      </trkpt>
      <trkpt lat="45.05869" lon="4.31949">
        <ele>1006.16</ele>
        <time>2024-08-22T10:16:05Z</time>
      </trkpt>
      <trkpt lat="45.0587" lon="4.31936">
        <ele>1006.16</ele>
        <time>2024-08-22T10:16:12Z</time>
      </trkpt>
      <trkpt lat="45.05872" lon="4.31916">
        <ele>1006.16</ele>
        <time>2024-08-22T10:16:24Z</time>
      </trkpt>
      <trkpt lat="45.05875" lon="4.31895">
        <ele>1009.52</ele>
        <time>2024-08-22T10:16:38Z</time>
      </trkpt>
      <trkpt lat="45.05877" lon="4.31872">
        <ele>1013.85</ele>
        <time>2024-08-22T10:16:51Z</time>
      </trkpt>
      <trkpt lat="45.05882" lon="4.31842">
        <ele>1015.77</ele>
        <time>2024-08-22T10:17:05Z</time>
      </trkpt>
      <trkpt lat="45.05886" lon="4.31809">
        <ele>1017.69</ele>
        <time>2024-08-22T10:17:21Z</time>
      </trkpt>
      <trkpt lat="45.05887" lon="4.31802">
        <ele>1016.73</ele>
        <time>2024-08-22T10:17:25Z</time>
      </trkpt>
      <trkpt lat="45.0589" lon="4.31791">
        <ele>1015.77</ele>
        <time>2024-08-22T10:17:32Z</time>
      </trkpt>
      <trkpt lat="45.05897" lon="4.31761">
        <ele>1012.89</ele>
        <time>2024-08-22T10:17:49Z</time>
      </trkpt>
      <trkpt lat="45.05901" lon="4.31743">
        <ele>1011.93</ele>
        <time>2024-08-22T10:17:59Z</time>
      </trkpt>
      <trkpt lat="45.05902" lon="4.31736">
        <ele>1010.48</ele>
        <time>2024-08-22T10:18:04Z</time>
      </trkpt>
      <trkpt lat="45.05906" lon="4.31711">
        <ele>1008.56</ele>
        <time>2024-08-22T10:18:17Z</time>
      </trkpt>
      <trkpt lat="45.05913" lon="4.31679">
        <ele>1005.68</ele>
        <time>2024-08-22T10:18:34Z</time>
      </trkpt>
      <trkpt lat="45.0592" lon="4.31644">
        <ele>999.43</ele>
        <time>2024-08-22T10:18:53Z</time>
      </trkpt>
      <trkpt lat="45.05901" lon="4.31639">
        <ele>996.54</ele>
        <time>2024-08-22T10:19:07Z</time>
      </trkpt>
      <trkpt lat="45.05879" lon="4.31639">
        <ele>997.02</ele>
        <time>2024-08-22T10:19:22Z</time>
      </trkpt>
      <trkpt lat="45.05857" lon="4.31643">
        <ele>996.54</ele>
        <time>2024-08-22T10:19:37Z</time>
      </trkpt>
      <trkpt lat="45.0583" lon="4.31648">
        <ele>994.14</ele>
        <time>2024-08-22T10:19:57Z</time>
      </trkpt>
      <trkpt lat="45.05808" lon="4.31653">
        <ele>993.18</ele>
        <time>2024-08-22T10:20:15Z</time>
      </trkpt>
      <trkpt lat="45.05785" lon="4.31658">
        <ele>991.26</ele>
        <time>2024-08-22T10:20:32Z</time>
      </trkpt>
      <trkpt lat="45.05767" lon="4.3166">
        <ele>990.3</ele>
        <time>2024-08-22T10:20:47Z</time>
      </trkpt>
      <trkpt lat="45.05752" lon="4.31652">
        <ele>991.26</ele>
        <time>2024-08-22T10:21:01Z</time>
      </trkpt>
      <trkpt lat="45.05733" lon="4.31639">
        <ele>990.78</ele>
        <time>2024-08-22T10:21:16Z</time>
      </trkpt>
      <trkpt lat="45.05711" lon="4.31632">
        <ele>987.41</ele>
        <time>2024-08-22T10:21:31Z</time>
      </trkpt>
      <trkpt lat="45.05696" lon="4.31628">
        <ele>986.93</ele>
        <time>2024-08-22T10:21:41Z</time>
      </trkpt>
      <trkpt lat="45.05686" lon="4.31627">
        <ele>988.85</ele>
        <time>2024-08-22T10:21:48Z</time>
      </trkpt>
      <trkpt lat="45.05662" lon="4.31631">
        <ele>984.05</ele>
        <time>2024-08-22T10:22:04Z</time>
      </trkpt>
      <trkpt lat="45.05642" lon="4.3163">
        <ele>981.64</ele>
        <time>2024-08-22T10:22:17Z</time>
      </trkpt>
      <trkpt lat="45.05618" lon="4.31632">
        <ele>978.76</ele>
        <time>2024-08-22T10:22:34Z</time>
      </trkpt>
      <trkpt lat="45.05596" lon="4.31631">
        <ele>977.8</ele>
        <time>2024-08-22T10:22:51Z</time>
      </trkpt>
      <trkpt lat="45.05577" lon="4.31627">
        <ele>975.88</ele>
        <time>2024-08-22T10:23:06Z</time>
      </trkpt>
      <trkpt lat="45.05556" lon="4.31609">
        <ele>975.39</ele>
        <time>2024-08-22T10:23:23Z</time>
      </trkpt>
      <trkpt lat="45.05545" lon="4.31594">
        <ele>974.43</ele>
        <time>2024-08-22T10:23:34Z</time>
      </trkpt>
      <trkpt lat="45.05542" lon="4.31575">
        <ele>972.51</ele>
        <time>2024-08-22T10:23:45Z</time>
      </trkpt>
      <trkpt lat="45.05541" lon="4.31573">
        <ele>972.51</ele>
        <time>2024-08-22T10:23:47Z</time>
      </trkpt>
      <trkpt lat="45.05537" lon="4.31565">
        <ele>970.59</ele>
        <time>2024-08-22T10:23:53Z</time>
      </trkpt>
      <trkpt lat="45.05535" lon="4.31563">
        <ele>970.11</ele>
        <time>2024-08-22T10:23:55Z</time>
      </trkpt>
      <trkpt lat="45.05519" lon="4.31547">
        <ele>966.74</ele>
        <time>2024-08-22T10:24:11Z</time>
      </trkpt>
      <trkpt lat="45.05518" lon="4.31546">
        <ele>966.74</ele>
        <time>2024-08-22T10:24:12Z</time>
      </trkpt>
      <trkpt lat="45.05514" lon="4.31543">
        <ele>965.78</ele>
        <time>2024-08-22T10:24:16Z</time>
      </trkpt>
      <trkpt lat="45.05492" lon="4.31537">
        <ele>963.86</ele>
        <time>2024-08-22T10:24:34Z</time>
      </trkpt>
      <trkpt lat="45.05481" lon="4.3154">
        <ele>963.86</ele>
        <time>2024-08-22T10:24:46Z</time>
      </trkpt>
      <trkpt lat="45.05462" lon="4.31554">
        <ele>963.38</ele>
        <time>2024-08-22T10:25:04Z</time>
      </trkpt>
      <trkpt lat="45.05461" lon="4.31554">
        <ele>963.38</ele>
        <time>2024-08-22T10:25:05Z</time>
      </trkpt>
      <trkpt lat="45.05458" lon="4.31549">
        <ele>962.9</ele>
        <time>2024-08-22T10:25:09Z</time>
      </trkpt>
      <trkpt lat="45.05466" lon="4.31522">
        <ele>962.42</ele>
        <time>2024-08-22T10:25:26Z</time>
      </trkpt>
      <trkpt lat="45.05484" lon="4.31499">
        <ele>961.46</ele>
        <time>2024-08-22T10:25:44Z</time>
      </trkpt>
      <trkpt lat="45.05505" lon="4.31483">
        <ele>960.98</ele>
        <time>2024-08-22T10:26:02Z</time>
      </trkpt>
      <trkpt lat="45.05515" lon="4.31476">
        <ele>960.98</ele>
        <time>2024-08-22T10:26:11Z</time>
      </trkpt>
      <trkpt lat="45.05507" lon="4.31469">
        <ele>959.05</ele>
        <time>2024-08-22T10:26:20Z</time>
      </trkpt>
      <trkpt lat="45.05482" lon="4.31459">
        <ele>955.21</ele>
        <time>2024-08-22T10:26:39Z</time>
      </trkpt>
      <trkpt lat="45.05464" lon="4.31453">
        <ele>954.25</ele>
        <time>2024-08-22T10:26:54Z</time>
      </trkpt>
      <trkpt lat="45.05449" lon="4.3146">
        <ele>952.8</ele>
        <time>2024-08-22T10:27:05Z</time>
      </trkpt>
      <trkpt lat="45.05434" lon="4.31482">
        <ele>950.88</ele>
        <time>2024-08-22T10:27:23Z</time>
      </trkpt>
      <trkpt lat="45.0542" lon="4.31515">
        <ele>949.44</ele>
        <time>2024-08-22T10:27:44Z</time>
      </trkpt>
      <trkpt lat="45.05408" lon="4.3154">
        <ele>948.48</ele>
        <time>2024-08-22T10:28:01Z</time>
      </trkpt>
      <trkpt lat="45.05401" lon="4.31557">
        <ele>948</ele>
        <time>2024-08-22T10:28:12Z</time>
      </trkpt>
      <trkpt lat="45.05395" lon="4.31569">
        <ele>948</ele>
        <time>2024-08-22T10:28:20Z</time>
      </trkpt>
      <trkpt lat="45.05381" lon="4.31598">
        <ele>948</ele>
        <time>2024-08-22T10:28:40Z</time>
      </trkpt>
      <trkpt lat="45.05364" lon="4.31624">
        <ele>948</ele>
        <time>2024-08-22T10:29:00Z</time>
      </trkpt>
      <trkpt lat="45.05352" lon="4.31636">
        <ele>947.52</ele>
        <time>2024-08-22T10:29:13Z</time>
      </trkpt>
      <trkpt lat="45.0535" lon="4.31639">
        <ele>947.04</ele>
        <time>2024-08-22T10:29:18Z</time>
      </trkpt>
      <trkpt lat="45.0533" lon="4.31654">
        <ele>947.52</ele>
        <time>2024-08-22T10:29:36Z</time>
      </trkpt>
      <trkpt lat="45.05308" lon="4.31659">
        <ele>946.56</ele>
        <time>2024-08-22T10:29:55Z</time>
      </trkpt>
      <trkpt lat="45.05294" lon="4.31653">
        <ele>945.11</ele>
        <time>2024-08-22T10:30:10Z</time>
      </trkpt>
      <trkpt lat="45.05281" lon="4.31651">
        <ele>944.63</ele>
        <time>2024-08-22T10:30:25Z</time>
      </trkpt>
      <trkpt lat="45.05272" lon="4.31649">
        <ele>944.15</ele>
        <time>2024-08-22T10:30:36Z</time>
      </trkpt>
      <trkpt lat="45.05265" lon="4.31654">
        <ele>944.15</ele>
        <time>2024-08-22T10:30:45Z</time>
      </trkpt>
      <trkpt lat="45.05255" lon="4.31677">
        <ele>945.59</ele>
        <time>2024-08-22T10:31:02Z</time>
      </trkpt>
      <trkpt lat="45.05245" lon="4.317">
        <ele>945.11</ele>
        <time>2024-08-22T10:31:17Z</time>
      </trkpt>
      <trkpt lat="45.05232" lon="4.31731">
        <ele>945.59</ele>
        <time>2024-08-22T10:31:37Z</time>
      </trkpt>
      <trkpt lat="45.05226" lon="4.31741">
        <ele>944.63</ele>
        <time>2024-08-22T10:31:52Z</time>
      </trkpt>
      <trkpt lat="45.05224" lon="4.31746">
        <ele>945.59</ele>
        <time>2024-08-22T10:31:57Z</time>
      </trkpt>
      <trkpt lat="45.05212" lon="4.31769">
        <ele>945.11</ele>
        <time>2024-08-22T10:32:13Z</time>
      </trkpt>
      <trkpt lat="45.05209" lon="4.31771">
        <ele>945.11</ele>
        <time>2024-08-22T10:32:16Z</time>
      </trkpt>
      <trkpt lat="45.05198" lon="4.31789">
        <ele>948</ele>
        <time>2024-08-22T10:32:32Z</time>
      </trkpt>
      <trkpt lat="45.05195" lon="4.31795">
        <ele>948.48</ele>
        <time>2024-08-22T10:32:45Z</time>
      </trkpt>
      <trkpt lat="45.05194" lon="4.31793">
        <ele>948</ele>
        <time>2024-08-22T10:32:54Z</time>
      </trkpt>
      <trkpt lat="45.05193" lon="4.31794">
        <ele>948.48</ele>
        <time>2024-08-22T10:33:03Z</time>
      </trkpt>
      <trkpt lat="45.05193" lon="4.31795">
        <ele>948.96</ele>
        <time>2024-08-22T10:33:10Z</time>
      </trkpt>
      <trkpt lat="45.05193" lon="4.31793">
        <ele>948.96</ele>
        <time>2024-08-22T10:33:24Z</time>
      </trkpt>
      <trkpt lat="45.05194" lon="4.31794">
        <ele>948.96</ele>
        <time>2024-08-22T10:33:36Z</time>
      </trkpt>
      <trkpt lat="45.05194" lon="4.31794">
        <ele>948.48</ele>
        <time>2024-08-22T10:33:50Z</time>
      </trkpt>
      <trkpt lat="45.05194" lon="4.31795">
        <ele>948.48</ele>
        <time>2024-08-22T10:34:08Z</time>
      </trkpt>
      <trkpt lat="45.05195" lon="4.31796">
        <ele>948.96</ele>
        <time>2024-08-22T10:34:35Z</time>
      </trkpt>
      <trkpt lat="45.05194" lon="4.31796">
        <ele>949.92</ele>
        <time>2024-08-22T10:34:59Z</time>
      </trkpt>
      <trkpt lat="45.05194" lon="4.31796">
        <ele>949.44</ele>
        <time>2024-08-22T10:35:19Z</time>
      </trkpt>
      <trkpt lat="45.05195" lon="4.31795">
        <ele>948.96</ele>
        <time>2024-08-22T10:35:40Z</time>
      </trkpt>
      <trkpt lat="45.05195" lon="4.31795">
        <ele>948.48</ele>
        <time>2024-08-22T10:36:02Z</time>
      </trkpt>
      <trkpt lat="45.05195" lon="4.31795">
        <ele>948.96</ele>
        <time>2024-08-22T10:36:26Z</time>
      </trkpt>
      <trkpt lat="45.05195" lon="4.31795">
        <ele>948.48</ele>
        <time>2024-08-22T10:36:48Z</time>
      </trkpt>
      <trkpt lat="45.05195" lon="4.31795">
        <ele>948.96</ele>
        <time>2024-08-22T10:37:12Z</time>
      </trkpt>
      <trkpt lat="45.05195" lon="4.31795">
        <ele>948.96</ele>
        <time>2024-08-22T10:37:30Z</time>
      </trkpt>
      <trkpt lat="45.05195" lon="4.31795">
        <ele>948.96</ele>
        <time>2024-08-22T10:37:54Z</time>
      </trkpt>
      <trkpt lat="45.05195" lon="4.31795">
        <ele>949.44</ele>
        <time>2024-08-22T10:38:14Z</time>
      </trkpt>
      <trkpt lat="45.05195" lon="4.31795">
        <ele>949.44</ele>
        <time>2024-08-22T10:38:33Z</time>
      </trkpt>
      <trkpt lat="45.05196" lon="4.31795">
        <ele>948.96</ele>
        <time>2024-08-22T10:38:59Z</time>
      </trkpt>
      <trkpt lat="45.05196" lon="4.31795">
        <ele>949.44</ele>
        <time>2024-08-22T10:39:17Z</time>
      </trkpt>
      <trkpt lat="45.05195" lon="4.31795">
        <ele>949.44</ele>
        <time>2024-08-22T10:39:43Z</time>
      </trkpt>
      <trkpt lat="45.05195" lon="4.31794">
        <ele>950.4</ele>
        <time>2024-08-22T10:40:04Z</time>
      </trkpt>
      <trkpt lat="45.05195" lon="4.31794">
        <ele>950.4</ele>
        <time>2024-08-22T10:40:32Z</time>
      </trkpt>
      <trkpt lat="45.05195" lon="4.31794">
        <ele>950.4</ele>
        <time>2024-08-22T10:40:51Z</time>
      </trkpt>
      <trkpt lat="45.05195" lon="4.31794">
        <ele>950.4</ele>
        <time>2024-08-22T10:41:21Z</time>
      </trkpt>
      <trkpt lat="45.05196" lon="4.31794">
        <ele>950.4</ele>
        <time>2024-08-22T10:41:44Z</time>
      </trkpt>
      <trkpt lat="45.05195" lon="4.31794">
        <ele>950.88</ele>
        <time>2024-08-22T10:42:11Z</time>
      </trkpt>
      <trkpt lat="45.05196" lon="4.31795">
        <ele>951.36</ele>
        <time>2024-08-22T10:42:30Z</time>
      </trkpt>
      <trkpt lat="45.05196" lon="4.31795">
        <ele>951.84</ele>
        <time>2024-08-22T10:42:55Z</time>
      </trkpt>
      <trkpt lat="45.05196" lon="4.31795">
        <ele>951.84</ele>
        <time>2024-08-22T10:43:13Z</time>
      </trkpt>
      <trkpt lat="45.05196" lon="4.31795">
        <ele>951.36</ele>
        <time>2024-08-22T10:43:36Z</time>
      </trkpt>
      <trkpt lat="45.05196" lon="4.31795">
        <ele>951.36</ele>
        <time>2024-08-22T10:43:58Z</time>
      </trkpt>
      <trkpt lat="45.05196" lon="4.31795">
        <ele>950.4</ele>
        <time>2024-08-22T10:44:27Z</time>
      </trkpt>
      <trkpt lat="45.05196" lon="4.31795">
        <ele>950.88</ele>
        <time>2024-08-22T10:44:44Z</time>
      </trkpt>
      <trkpt lat="45.05197" lon="4.31795">
        <ele>949.44</ele>
        <time>2024-08-22T10:45:15Z</time>
      </trkpt>
      <trkpt lat="45.05196" lon="4.31795">
        <ele>948.96</ele>
        <time>2024-08-22T10:45:37Z</time>
      </trkpt>
      <trkpt lat="45.05195" lon="4.31796">
        <ele>949.92</ele>
        <time>2024-08-22T10:46:09Z</time>
      </trkpt>
      <trkpt lat="45.05195" lon="4.31795">
        <ele>949.92</ele>
        <time>2024-08-22T10:46:36Z</time>
      </trkpt>
      <trkpt lat="45.05195" lon="4.31795">
        <ele>949.92</ele>
        <time>2024-08-22T10:47:02Z</time>
      </trkpt>
      <trkpt lat="45.05195" lon="4.31795">
        <ele>949.92</ele>
        <time>2024-08-22T10:47:19Z</time>
      </trkpt>
      <trkpt lat="45.05195" lon="4.31794">
        <ele>950.4</ele>
        <time>2024-08-22T10:47:49Z</time>
      </trkpt>
      <trkpt lat="45.05195" lon="4.31794">
        <ele>950.4</ele>
        <time>2024-08-22T10:48:05Z</time>
      </trkpt>
      <trkpt lat="45.05196" lon="4.31794">
        <ele>950.4</ele>
        <time>2024-08-22T10:48:27Z</time>
      </trkpt>
      <trkpt lat="45.05197" lon="4.31795">
        <ele>950.4</ele>
        <time>2024-08-22T10:48:43Z</time>
      </trkpt>
      <trkpt lat="45.05197" lon="4.31795">
        <ele>949.92</ele>
        <time>2024-08-22T10:49:05Z</time>
      </trkpt>
      <trkpt lat="45.05197" lon="4.31797">
        <ele>949.92</ele>
        <time>2024-08-22T10:49:27Z</time>
      </trkpt>
      <trkpt lat="45.05197" lon="4.31797">
        <ele>949.92</ele>
        <time>2024-08-22T10:49:48Z</time>
      </trkpt>
      <trkpt lat="45.05196" lon="4.31796">
        <ele>948</ele>
        <time>2024-08-22T10:50:16Z</time>
      </trkpt>
      <trkpt lat="45.05196" lon="4.31797">
        <ele>948</ele>
        <time>2024-08-22T10:50:34Z</time>
      </trkpt>
      <trkpt lat="45.05196" lon="4.31797">
        <ele>947.52</ele>
        <time>2024-08-22T10:50:55Z</time>
      </trkpt>
      <trkpt lat="45.05196" lon="4.31797">
        <ele>947.04</ele>
        <time>2024-08-22T10:51:18Z</time>
      </trkpt>
      <trkpt lat="45.05196" lon="4.31796">
        <ele>947.52</ele>
        <time>2024-08-22T10:51:44Z</time>
      </trkpt>
      <trkpt lat="45.05196" lon="4.31796">
        <ele>948.48</ele>
        <time>2024-08-22T10:52:08Z</time>
      </trkpt>
      <trkpt lat="45.05196" lon="4.31796">
        <ele>948.96</ele>
        <time>2024-08-22T10:52:34Z</time>
      </trkpt>
      <trkpt lat="45.05196" lon="4.31795">
        <ele>949.92</ele>
        <time>2024-08-22T10:53:02Z</time>
      </trkpt>
      <trkpt lat="45.05196" lon="4.31795">
        <ele>949.92</ele>
        <time>2024-08-22T10:53:22Z</time>
      </trkpt>
      <trkpt lat="45.05197" lon="4.31796">
        <ele>950.4</ele>
        <time>2024-08-22T10:53:54Z</time>
      </trkpt>
      <trkpt lat="45.05196" lon="4.31797">
        <ele>950.4</ele>
        <time>2024-08-22T10:54:21Z</time>
      </trkpt>
      <trkpt lat="45.05196" lon="4.31796">
        <ele>949.92</ele>
        <time>2024-08-22T10:55:02Z</time>
      </trkpt>
      <trkpt lat="45.05196" lon="4.31797">
        <ele>950.4</ele>
        <time>2024-08-22T10:55:26Z</time>
      </trkpt>
      <trkpt lat="45.05195" lon="4.31796">
        <ele>950.88</ele>
        <time>2024-08-22T10:55:55Z</time>
      </trkpt>
      <trkpt lat="45.05195" lon="4.31795">
        <ele>950.4</ele>
        <time>2024-08-22T10:56:20Z</time>
      </trkpt>
      <trkpt lat="45.05195" lon="4.31795">
        <ele>950.88</ele>
        <time>2024-08-22T10:56:46Z</time>
      </trkpt>
      <trkpt lat="45.05195" lon="4.31796">
        <ele>950.88</ele>
        <time>2024-08-22T10:57:18Z</time>
      </trkpt>
      <trkpt lat="45.05195" lon="4.31796">
        <ele>950.88</ele>
        <time>2024-08-22T10:57:49Z</time>
      </trkpt>
      <trkpt lat="45.05195" lon="4.31796">
        <ele>950.4</ele>
        <time>2024-08-22T10:58:10Z</time>
      </trkpt>
      <trkpt lat="45.05195" lon="4.31796">
        <ele>949.92</ele>
        <time>2024-08-22T10:58:38Z</time>
      </trkpt>
      <trkpt lat="45.05195" lon="4.31796">
        <ele>949.92</ele>
        <time>2024-08-22T10:58:54Z</time>
      </trkpt>
      <trkpt lat="45.05196" lon="4.31796">
        <ele>950.4</ele>
        <time>2024-08-22T10:59:17Z</time>
      </trkpt>
      <trkpt lat="45.05196" lon="4.31797">
        <ele>949.92</ele>
        <time>2024-08-22T10:59:37Z</time>
      </trkpt>
      <trkpt lat="45.05196" lon="4.31797">
        <ele>949.44</ele>
        <time>2024-08-22T11:00:02Z</time>
      </trkpt>
      <trkpt lat="45.05196" lon="4.31796">
        <ele>949.44</ele>
        <time>2024-08-22T11:00:19Z</time>
      </trkpt>
      <trkpt lat="45.05196" lon="4.31796">
        <ele>949.92</ele>
        <time>2024-08-22T11:00:47Z</time>
      </trkpt>
      <trkpt lat="45.05196" lon="4.31796">
        <ele>950.4</ele>
        <time>2024-08-22T11:01:16Z</time>
      </trkpt>
      <trkpt lat="45.05196" lon="4.31795">
        <ele>950.88</ele>
        <time>2024-08-22T11:01:33Z</time>
      </trkpt>
      <trkpt lat="45.05197" lon="4.31797">
        <ele>950.88</ele>
        <time>2024-08-22T11:01:59Z</time>
      </trkpt>
      <trkpt lat="45.05197" lon="4.31798">
        <ele>951.36</ele>
        <time>2024-08-22T11:02:18Z</time>
      </trkpt>
      <trkpt lat="45.05196" lon="4.31798">
        <ele>950.88</ele>
        <time>2024-08-22T11:02:48Z</time>
      </trkpt>
      <trkpt lat="45.05196" lon="4.31799">
        <ele>951.84</ele>
        <time>2024-08-22T11:03:22Z</time>
      </trkpt>
      <trkpt lat="45.05194" lon="4.31797">
        <ele>950.88</ele>
        <time>2024-08-22T11:03:56Z</time>
      </trkpt>
      <trkpt lat="45.05194" lon="4.31797">
        <ele>954.25</ele>
        <time>2024-08-22T11:04:30Z</time>
      </trkpt>
      <trkpt lat="45.05194" lon="4.31796">
        <ele>954.25</ele>
        <time>2024-08-22T11:05:02Z</time>
      </trkpt>
      <trkpt lat="45.05195" lon="4.31796">
        <ele>953.77</ele>
        <time>2024-08-22T11:05:39Z</time>
      </trkpt>
      <trkpt lat="45.05195" lon="4.31796">
        <ele>953.77</ele>
        <time>2024-08-22T11:06:07Z</time>
      </trkpt>
      <trkpt lat="45.05195" lon="4.31796">
        <ele>954.25</ele>
        <time>2024-08-22T11:06:38Z</time>
      </trkpt>
      <trkpt lat="45.05195" lon="4.31795">
        <ele>954.25</ele>
        <time>2024-08-22T11:07:12Z</time>
      </trkpt>
      <trkpt lat="45.05195" lon="4.31796">
        <ele>953.28</ele>
        <time>2024-08-22T11:07:46Z</time>
      </trkpt>
      <trkpt lat="45.05195" lon="4.31796">
        <ele>952.8</ele>
        <time>2024-08-22T11:08:06Z</time>
      </trkpt>
      <trkpt lat="45.05196" lon="4.31796">
        <ele>952.32</ele>
        <time>2024-08-22T11:08:27Z</time>
      </trkpt>
      <trkpt lat="45.05196" lon="4.31796">
        <ele>951.36</ele>
        <time>2024-08-22T11:08:52Z</time>
      </trkpt>
      <trkpt lat="45.05196" lon="4.31796">
        <ele>950.88</ele>
        <time>2024-08-22T11:09:13Z</time>
      </trkpt>
      <trkpt lat="45.05196" lon="4.31796">
        <ele>951.36</ele>
        <time>2024-08-22T11:09:34Z</time>
      </trkpt>
      <trkpt lat="45.05196" lon="4.31797">
        <ele>950.88</ele>
        <time>2024-08-22T11:09:57Z</time>
      </trkpt>
      <trkpt lat="45.05196" lon="4.31797">
        <ele>951.84</ele>
        <time>2024-08-22T11:10:24Z</time>
      </trkpt>
      <trkpt lat="45.05196" lon="4.31798">
        <ele>950.88</ele>
        <time>2024-08-22T11:10:50Z</time>
      </trkpt>
      <trkpt lat="45.05196" lon="4.31798">
        <ele>950.88</ele>
        <time>2024-08-22T11:11:12Z</time>
      </trkpt>
      <trkpt lat="45.05198" lon="4.31799">
        <ele>950.88</ele>
        <time>2024-08-22T11:11:48Z</time>
      </trkpt>
      <trkpt lat="45.05198" lon="4.31799">
        <ele>950.88</ele>
        <time>2024-08-22T11:12:18Z</time>
      </trkpt>
      <trkpt lat="45.05198" lon="4.31799">
        <ele>951.36</ele>
        <time>2024-08-22T11:12:48Z</time>
      </trkpt>
      <trkpt lat="45.05199" lon="4.31799">
        <ele>951.84</ele>
        <time>2024-08-22T11:13:14Z</time>
      </trkpt>
      <trkpt lat="45.05199" lon="4.31798">
        <ele>951.36</ele>
        <time>2024-08-22T11:13:40Z</time>
      </trkpt>
      <trkpt lat="45.05199" lon="4.31797">
        <ele>951.36</ele>
        <time>2024-08-22T11:14:12Z</time>
      </trkpt>
      <trkpt lat="45.05202" lon="4.31798">
        <ele>953.28</ele>
        <time>2024-08-22T11:14:45Z</time>
      </trkpt>
      <trkpt lat="45.05204" lon="4.31798">
        <ele>953.28</ele>
        <time>2024-08-22T11:15:18Z</time>
      </trkpt>
      <trkpt lat="45.05204" lon="4.31798">
        <ele>953.28</ele>
        <time>2024-08-22T11:15:51Z</time>
      </trkpt>
      <trkpt lat="45.05204" lon="4.31799">
        <ele>952.32</ele>
        <time>2024-08-22T11:16:19Z</time>
      </trkpt>
      <trkpt lat="45.05204" lon="4.318">
        <ele>952.8</ele>
        <time>2024-08-22T11:16:51Z</time>
      </trkpt>
      <trkpt lat="45.05203" lon="4.31799">
        <ele>951.84</ele>
        <time>2024-08-22T11:17:14Z</time>
      </trkpt>
      <trkpt lat="45.05199" lon="4.31798">
        <ele>950.88</ele>
        <time>2024-08-22T11:17:39Z</time>
      </trkpt>
      <trkpt lat="45.05198" lon="4.31798">
        <ele>950.4</ele>
        <time>2024-08-22T11:17:50Z</time>
      </trkpt>
      <trkpt lat="45.05196" lon="4.31797">
        <ele>952.8</ele>
        <time>2024-08-22T11:18:15Z</time>
      </trkpt>
      <trkpt lat="45.05195" lon="4.31794">
        <ele>953.77</ele>
        <time>2024-08-22T11:18:37Z</time>
      </trkpt>
      <trkpt lat="45.05195" lon="4.31796">
        <ele>954.25</ele>
        <time>2024-08-22T11:18:51Z</time>
      </trkpt>
      <trkpt lat="45.05195" lon="4.31794">
        <ele>953.77</ele>
        <time>2024-08-22T11:19:07Z</time>
      </trkpt>
      <trkpt lat="45.05195" lon="4.31796">
        <ele>953.77</ele>
        <time>2024-08-22T11:19:19Z</time>
      </trkpt>
      <trkpt lat="45.05194" lon="4.31793">
        <ele>953.28</ele>
        <time>2024-08-22T11:19:32Z</time>
      </trkpt>
      <trkpt lat="45.05191" lon="4.31789">
        <ele>952.8</ele>
        <time>2024-08-22T11:19:45Z</time>
      </trkpt>
      <trkpt lat="45.05181" lon="4.3179">
        <ele>952.32</ele>
        <time>2024-08-22T11:19:59Z</time>
      </trkpt>
      <trkpt lat="45.05175" lon="4.31791">
        <ele>953.28</ele>
        <time>2024-08-22T11:20:05Z</time>
      </trkpt>
      <trkpt lat="45.05174" lon="4.31792">
        <ele>953.28</ele>
        <time>2024-08-22T11:20:07Z</time>
      </trkpt>
      <trkpt lat="45.05173" lon="4.31794">
        <ele>953.28</ele>
        <time>2024-08-22T11:20:09Z</time>
      </trkpt>
      <trkpt lat="45.05166" lon="4.31802">
        <ele>955.69</ele>
        <time>2024-08-22T11:20:18Z</time>
      </trkpt>
      <trkpt lat="45.05157" lon="4.31806">
        <ele>956.65</ele>
        <time>2024-08-22T11:20:28Z</time>
      </trkpt>
      <trkpt lat="45.05153" lon="4.31803">
        <ele>957.13</ele>
        <time>2024-08-22T11:20:33Z</time>
      </trkpt>
      <trkpt lat="45.05148" lon="4.31779">
        <ele>958.09</ele>
        <time>2024-08-22T11:20:50Z</time>
      </trkpt>
      <trkpt lat="45.05145" lon="4.31756">
        <ele>958.09</ele>
        <time>2024-08-22T11:21:05Z</time>
      </trkpt>
      <trkpt lat="45.0514" lon="4.31733">
        <ele>959.05</ele>
        <time>2024-08-22T11:21:19Z</time>
      </trkpt>
      <trkpt lat="45.05138" lon="4.31724">
        <ele>959.05</ele>
        <time>2024-08-22T11:21:24Z</time>
      </trkpt>
      <trkpt lat="45.05138" lon="4.31693">
        <ele>960.01</ele>
        <time>2024-08-22T11:21:43Z</time>
      </trkpt>
      <trkpt lat="45.0514" lon="4.31687">
        <ele>960.01</ele>
        <time>2024-08-22T11:21:48Z</time>
      </trkpt>
      <trkpt lat="45.05141" lon="4.31658">
        <ele>962.42</ele>
        <time>2024-08-22T11:22:06Z</time>
      </trkpt>
      <trkpt lat="45.05134" lon="4.31639">
        <ele>963.38</ele>
        <time>2024-08-22T11:22:19Z</time>
      </trkpt>
      <trkpt lat="45.05123" lon="4.31616">
        <ele>966.26</ele>
        <time>2024-08-22T11:22:36Z</time>
      </trkpt>
      <trkpt lat="45.05115" lon="4.31596">
        <ele>971.07</ele>
        <time>2024-08-22T11:22:51Z</time>
      </trkpt>
      <trkpt lat="45.05107" lon="4.31577">
        <ele>974.91</ele>
        <time>2024-08-22T11:23:06Z</time>
      </trkpt>
      <trkpt lat="45.05101" lon="4.31553">
        <ele>976.84</ele>
        <time>2024-08-22T11:23:23Z</time>
      </trkpt>
      <trkpt lat="45.05093" lon="4.31532">
        <ele>977.32</ele>
        <time>2024-08-22T11:23:35Z</time>
      </trkpt>
      <trkpt lat="45.05084" lon="4.3151">
        <ele>981.64</ele>
        <time>2024-08-22T11:23:52Z</time>
      </trkpt>
      <trkpt lat="45.05082" lon="4.31504">
        <ele>983.09</ele>
        <time>2024-08-22T11:23:56Z</time>
      </trkpt>
      <trkpt lat="45.05077" lon="4.31475">
        <ele>985.01</ele>
        <time>2024-08-22T11:24:12Z</time>
      </trkpt>
      <trkpt lat="45.05075" lon="4.31472">
        <ele>985.01</ele>
        <time>2024-08-22T11:24:14Z</time>
      </trkpt>
      <trkpt lat="45.05074" lon="4.31463">
        <ele>985.97</ele>
        <time>2024-08-22T11:24:19Z</time>
      </trkpt>
      <trkpt lat="45.05071" lon="4.31457">
        <ele>985.97</ele>
        <time>2024-08-22T11:24:23Z</time>
      </trkpt>
      <trkpt lat="45.05068" lon="4.31454">
        <ele>985.49</ele>
        <time>2024-08-22T11:24:26Z</time>
      </trkpt>
      <trkpt lat="45.05063" lon="4.31423">
        <ele>986.45</ele>
        <time>2024-08-22T11:24:43Z</time>
      </trkpt>
      <trkpt lat="45.05066" lon="4.31386">
        <ele>987.41</ele>
        <time>2024-08-22T11:25:03Z</time>
      </trkpt>
      <trkpt lat="45.0507" lon="4.31359">
        <ele>987.41</ele>
        <time>2024-08-22T11:25:19Z</time>
      </trkpt>
      <trkpt lat="45.05073" lon="4.31325">
        <ele>987.41</ele>
        <time>2024-08-22T11:25:38Z</time>
      </trkpt>
      <trkpt lat="45.05072" lon="4.313">
        <ele>987.41</ele>
        <time>2024-08-22T11:25:52Z</time>
      </trkpt>
      <trkpt lat="45.05076" lon="4.31279">
        <ele>987.41</ele>
        <time>2024-08-22T11:26:05Z</time>
      </trkpt>
      <trkpt lat="45.05086" lon="4.31256">
        <ele>988.37</ele>
        <time>2024-08-22T11:26:23Z</time>
      </trkpt>
      <trkpt lat="45.05087" lon="4.3125">
        <ele>988.85</ele>
        <time>2024-08-22T11:26:27Z</time>
      </trkpt>
      <trkpt lat="45.05086" lon="4.31243">
        <ele>989.33</ele>
        <time>2024-08-22T11:26:31Z</time>
      </trkpt>
      <trkpt lat="45.05077" lon="4.31218">
        <ele>989.81</ele>
        <time>2024-08-22T11:26:48Z</time>
      </trkpt>
      <trkpt lat="45.05069" lon="4.31194">
        <ele>991.26</ele>
        <time>2024-08-22T11:27:04Z</time>
      </trkpt>
      <trkpt lat="45.05067" lon="4.31167">
        <ele>992.7</ele>
        <time>2024-08-22T11:27:19Z</time>
      </trkpt>
      <trkpt lat="45.05067" lon="4.31147">
        <ele>996.06</ele>
        <time>2024-08-22T11:27:30Z</time>
      </trkpt>
      <trkpt lat="45.05063" lon="4.31125">
        <ele>997.02</ele>
        <time>2024-08-22T11:27:42Z</time>
      </trkpt>
      <trkpt lat="45.0506" lon="4.31102">
        <ele>998.95</ele>
        <time>2024-08-22T11:27:56Z</time>
      </trkpt>
      <trkpt lat="45.05058" lon="4.31094">
        <ele>999.43</ele>
        <time>2024-08-22T11:28:01Z</time>
      </trkpt>
      <trkpt lat="45.05056" lon="4.3106">
        <ele>999.91</ele>
        <time>2024-08-22T11:28:19Z</time>
      </trkpt>
      <trkpt lat="45.05051" lon="4.31027">
        <ele>1002.31</ele>
        <time>2024-08-22T11:28:36Z</time>
      </trkpt>
      <trkpt lat="45.05047" lon="4.30995">
        <ele>1003.75</ele>
        <time>2024-08-22T11:28:54Z</time>
      </trkpt>
      <trkpt lat="45.05045" lon="4.30967">
        <ele>1004.23</ele>
        <time>2024-08-22T11:29:10Z</time>
      </trkpt>
      <trkpt lat="45.05043" lon="4.30947">
        <ele>1004.23</ele>
        <time>2024-08-22T11:29:21Z</time>
      </trkpt>
      <trkpt lat="45.0504" lon="4.30922">
        <ele>1005.2</ele>
        <time>2024-08-22T11:29:34Z</time>
      </trkpt>
      <trkpt lat="45.0504" lon="4.30918">
        <ele>1004.72</ele>
        <time>2024-08-22T11:29:36Z</time>
      </trkpt>
      <trkpt lat="45.0504" lon="4.3091">
        <ele>1005.2</ele>
        <time>2024-08-22T11:29:41Z</time>
      </trkpt>
      <trkpt lat="45.05037" lon="4.30895">
        <ele>1007.12</ele>
        <time>2024-08-22T11:29:50Z</time>
      </trkpt>
      <trkpt lat="45.05037" lon="4.3088">
        <ele>1008.08</ele>
        <time>2024-08-22T11:29:58Z</time>
      </trkpt>
      <trkpt lat="45.05021" lon="4.30853">
        <ele>1007.12</ele>
        <time>2024-08-22T11:30:14Z</time>
      </trkpt>
      <trkpt lat="45.05003" lon="4.30836">
        <ele>1009.04</ele>
        <time>2024-08-22T11:30:30Z</time>
      </trkpt>
      <trkpt lat="45.04985" lon="4.30821">
        <ele>1010.96</ele>
        <time>2024-08-22T11:30:46Z</time>
      </trkpt>
      <trkpt lat="45.04968" lon="4.30805">
        <ele>1010.48</ele>
        <time>2024-08-22T11:31:01Z</time>
      </trkpt>
      <trkpt lat="45.0495" lon="4.3078">
        <ele>1013.85</ele>
        <time>2024-08-22T11:31:21Z</time>
      </trkpt>
      <trkpt lat="45.04942" lon="4.3076">
        <ele>1014.33</ele>
        <time>2024-08-22T11:31:35Z</time>
      </trkpt>
      <trkpt lat="45.0494" lon="4.3073">
        <ele>1014.33</ele>
        <time>2024-08-22T11:31:52Z</time>
      </trkpt>
      <trkpt lat="45.04939" lon="4.30696">
        <ele>1015.29</ele>
        <time>2024-08-22T11:32:09Z</time>
      </trkpt>
      <trkpt lat="45.04938" lon="4.30665">
        <ele>1015.29</ele>
        <time>2024-08-22T11:32:25Z</time>
      </trkpt>
      <trkpt lat="45.04934" lon="4.30632">
        <ele>1017.69</ele>
        <time>2024-08-22T11:32:42Z</time>
      </trkpt>
      <trkpt lat="45.04925" lon="4.30597">
        <ele>1020.1</ele>
        <time>2024-08-22T11:33:02Z</time>
      </trkpt>
      <trkpt lat="45.04923" lon="4.30564">
        <ele>1020.58</ele>
        <time>2024-08-22T11:33:20Z</time>
      </trkpt>
      <trkpt lat="45.04923" lon="4.30536">
        <ele>1022.02</ele>
        <time>2024-08-22T11:33:35Z</time>
      </trkpt>
      <trkpt lat="45.04914" lon="4.30503">
        <ele>1023.94</ele>
        <time>2024-08-22T11:33:54Z</time>
      </trkpt>
      <trkpt lat="45.04899" lon="4.30477">
        <ele>1025.38</ele>
        <time>2024-08-22T11:34:12Z</time>
      </trkpt>
      <trkpt lat="45.04889" lon="4.30452">
        <ele>1027.31</ele>
        <time>2024-08-22T11:34:29Z</time>
      </trkpt>
      <trkpt lat="45.0488" lon="4.30423">
        <ele>1028.27</ele>
        <time>2024-08-22T11:34:47Z</time>
      </trkpt>
      <trkpt lat="45.04866" lon="4.30389">
        <ele>1029.23</ele>
        <time>2024-08-22T11:35:07Z</time>
      </trkpt>
      <trkpt lat="45.04851" lon="4.30368">
        <ele>1031.15</ele>
        <time>2024-08-22T11:35:23Z</time>
      </trkpt>
      <trkpt lat="45.04847" lon="4.3036">
        <ele>1032.11</ele>
        <time>2024-08-22T11:35:29Z</time>
      </trkpt>
      <trkpt lat="45.04837" lon="4.30341">
        <ele>1033.55</ele>
        <time>2024-08-22T11:35:43Z</time>
      </trkpt>
      <trkpt lat="45.04833" lon="4.30336">
        <ele>1033.07</ele>
        <time>2024-08-22T11:35:47Z</time>
      </trkpt>
      <trkpt lat="45.04825" lon="4.3032">
        <ele>1034.04</ele>
        <time>2024-08-22T11:35:57Z</time>
      </trkpt>
      <trkpt lat="45.04819" lon="4.3029">
        <ele>1035.96</ele>
        <time>2024-08-22T11:36:14Z</time>
      </trkpt>
      <trkpt lat="45.04815" lon="4.30248">
        <ele>1036.92</ele>
        <time>2024-08-22T11:36:36Z</time>
      </trkpt>
      <trkpt lat="45.0481" lon="4.30214">
        <ele>1037.88</ele>
        <time>2024-08-22T11:36:54Z</time>
      </trkpt>
      <trkpt lat="45.04804" lon="4.30193">
        <ele>1037.4</ele>
        <time>2024-08-22T11:37:06Z</time>
      </trkpt>
      <trkpt lat="45.04802" lon="4.30184">
        <ele>1037.4</ele>
        <time>2024-08-22T11:37:11Z</time>
      </trkpt>
      <trkpt lat="45.04796" lon="4.30154">
        <ele>1038.36</ele>
        <time>2024-08-22T11:37:27Z</time>
      </trkpt>
      <trkpt lat="45.04795" lon="4.30119">
        <ele>1041.25</ele>
        <time>2024-08-22T11:37:44Z</time>
      </trkpt>
      <trkpt lat="45.0479" lon="4.30085">
        <ele>1042.69</ele>
        <time>2024-08-22T11:38:02Z</time>
      </trkpt>
      <trkpt lat="45.04786" lon="4.3005">
        <ele>1042.69</ele>
        <time>2024-08-22T11:38:20Z</time>
      </trkpt>
      <trkpt lat="45.04781" lon="4.30022">
        <ele>1041.25</ele>
        <time>2024-08-22T11:38:35Z</time>
      </trkpt>
      <trkpt lat="45.04775" lon="4.2999">
        <ele>1042.21</ele>
        <time>2024-08-22T11:38:52Z</time>
      </trkpt>
      <trkpt lat="45.04768" lon="4.29956">
        <ele>1044.61</ele>
        <time>2024-08-22T11:39:10Z</time>
      </trkpt>
      <trkpt lat="45.04763" lon="4.29928">
        <ele>1046.53</ele>
        <time>2024-08-22T11:39:25Z</time>
      </trkpt>
      <trkpt lat="45.04759" lon="4.29916">
        <ele>1047.01</ele>
        <time>2024-08-22T11:39:32Z</time>
      </trkpt>
      <trkpt lat="45.04752" lon="4.29882">
        <ele>1045.09</ele>
        <time>2024-08-22T11:39:49Z</time>
      </trkpt>
      <trkpt lat="45.04744" lon="4.29848">
        <ele>1042.69</ele>
        <time>2024-08-22T11:40:08Z</time>
      </trkpt>
      <trkpt lat="45.04736" lon="4.29807">
        <ele>1041.25</ele>
        <time>2024-08-22T11:40:29Z</time>
      </trkpt>
      <trkpt lat="45.04723" lon="4.29776">
        <ele>1039.8</ele>
        <time>2024-08-22T11:40:46Z</time>
      </trkpt>
      <trkpt lat="45.04701" lon="4.29739">
        <ele>1039.32</ele>
        <time>2024-08-22T11:41:09Z</time>
      </trkpt>
      <trkpt lat="45.04684" lon="4.29704">
        <ele>1039.8</ele>
        <time>2024-08-22T11:41:31Z</time>
      </trkpt>
      <trkpt lat="45.0468" lon="4.29672">
        <ele>1042.21</ele>
        <time>2024-08-22T11:41:49Z</time>
      </trkpt>
      <trkpt lat="45.0468" lon="4.29637">
        <ele>1046.05</ele>
        <time>2024-08-22T11:42:07Z</time>
      </trkpt>
      <trkpt lat="45.04687" lon="4.296">
        <ele>1044.13</ele>
        <time>2024-08-22T11:42:26Z</time>
      </trkpt>
      <trkpt lat="45.04696" lon="4.2956">
        <ele>1041.73</ele>
        <time>2024-08-22T11:42:46Z</time>
      </trkpt>
      <trkpt lat="45.04697" lon="4.29523">
        <ele>1040.28</ele>
        <time>2024-08-22T11:43:04Z</time>
      </trkpt>
      <trkpt lat="45.04692" lon="4.29484">
        <ele>1037.4</ele>
        <time>2024-08-22T11:43:24Z</time>
      </trkpt>
      <trkpt lat="45.04694" lon="4.29443">
        <ele>1035.48</ele>
        <time>2024-08-22T11:43:44Z</time>
      </trkpt>
      <trkpt lat="45.04696" lon="4.29405">
        <ele>1035</ele>
        <time>2024-08-22T11:44:03Z</time>
      </trkpt>
      <trkpt lat="45.04698" lon="4.2936">
        <ele>1035.48</ele>
        <time>2024-08-22T11:44:25Z</time>
      </trkpt>
      <trkpt lat="45.04698" lon="4.29321">
        <ele>1038.84</ele>
        <time>2024-08-22T11:44:45Z</time>
      </trkpt>
      <trkpt lat="45.04694" lon="4.29294">
        <ele>1042.21</ele>
        <time>2024-08-22T11:45:02Z</time>
      </trkpt>
      <trkpt lat="45.04689" lon="4.29268">
        <ele>1047.49</ele>
        <time>2024-08-22T11:45:18Z</time>
      </trkpt>
      <trkpt lat="45.04686" lon="4.29254">
        <ele>1049.42</ele>
        <time>2024-08-22T11:45:26Z</time>
      </trkpt>
      <trkpt lat="45.04688" lon="4.29241">
        <ele>1050.86</ele>
        <time>2024-08-22T11:45:33Z</time>
      </trkpt>
      <trkpt lat="45.04689" lon="4.29238">
        <ele>1051.82</ele>
        <time>2024-08-22T11:45:35Z</time>
      </trkpt>
      <trkpt lat="45.047" lon="4.29208">
        <ele>1055.67</ele>
        <time>2024-08-22T11:45:53Z</time>
      </trkpt>
      <trkpt lat="45.0471" lon="4.29172">
        <ele>1051.82</ele>
        <time>2024-08-22T11:46:13Z</time>
      </trkpt>
      <trkpt lat="45.04709" lon="4.29171">
        <ele>1050.86</ele>
        <time>2024-08-22T11:46:24Z</time>
      </trkpt>
      <trkpt lat="45.04707" lon="4.29179">
        <ele>1050.86</ele>
        <time>2024-08-22T11:46:32Z</time>
      </trkpt>
      <trkpt lat="45.04704" lon="4.29189">
        <ele>1049.9</ele>
        <time>2024-08-22T11:46:40Z</time>
      </trkpt>
      <trkpt lat="45.047" lon="4.29197">
        <ele>1048.94</ele>
        <time>2024-08-22T11:46:46Z</time>
      </trkpt>
      <trkpt lat="45.04692" lon="4.29215">
        <ele>1047.49</ele>
        <time>2024-08-22T11:47:01Z</time>
      </trkpt>
      <trkpt lat="45.0469" lon="4.29219">
        <ele>1047.01</ele>
        <time>2024-08-22T11:47:05Z</time>
      </trkpt>
      <trkpt lat="45.04688" lon="4.29228">
        <ele>1046.05</ele>
        <time>2024-08-22T11:47:12Z</time>
      </trkpt>
      <trkpt lat="45.04687" lon="4.29237">
        <ele>1047.01</ele>
        <time>2024-08-22T11:47:18Z</time>
      </trkpt>
      <trkpt lat="45.04686" lon="4.29242">
        <ele>1047.49</ele>
        <time>2024-08-22T11:47:21Z</time>
      </trkpt>
      <trkpt lat="45.04686" lon="4.29259">
        <ele>1046.05</ele>
        <time>2024-08-22T11:47:36Z</time>
      </trkpt>
      <trkpt lat="45.04687" lon="4.29262">
        <ele>1045.57</ele>
        <time>2024-08-22T11:47:38Z</time>
      </trkpt>
      <trkpt lat="45.04697" lon="4.29261">
        <ele>1047.01</ele>
        <time>2024-08-22T11:47:52Z</time>
      </trkpt>
      <trkpt lat="45.04711" lon="4.29249">
        <ele>1047.01</ele>
        <time>2024-08-22T11:48:08Z</time>
      </trkpt>
      <trkpt lat="45.04712" lon="4.29248">
        <ele>1046.53</ele>
        <time>2024-08-22T11:48:09Z</time>
      </trkpt>
      <trkpt lat="45.04723" lon="4.29231">
        <ele>1046.05</ele>
        <time>2024-08-22T11:48:25Z</time>
      </trkpt>
      <trkpt lat="45.04734" lon="4.29217">
        <ele>1046.05</ele>
        <time>2024-08-22T11:48:38Z</time>
      </trkpt>
      <trkpt lat="45.04743" lon="4.29203">
        <ele>1045.57</ele>
        <time>2024-08-22T11:48:50Z</time>
      </trkpt>
      <trkpt lat="45.04761" lon="4.29179">
        <ele>1046.05</ele>
        <time>2024-08-22T11:49:07Z</time>
      </trkpt>
      <trkpt lat="45.04774" lon="4.2917">
        <ele>1047.01</ele>
        <time>2024-08-22T11:49:19Z</time>
      </trkpt>
      <trkpt lat="45.0479" lon="4.29156">
        <ele>1049.9</ele>
        <time>2024-08-22T11:49:33Z</time>
      </trkpt>
      <trkpt lat="45.04803" lon="4.29146">
        <ele>1051.34</ele>
        <time>2024-08-22T11:49:46Z</time>
      </trkpt>
      <trkpt lat="45.04819" lon="4.29138">
        <ele>1052.3</ele>
        <time>2024-08-22T11:49:58Z</time>
      </trkpt>
      <trkpt lat="45.04824" lon="4.29134">
        <ele>1053.26</ele>
        <time>2024-08-22T11:50:02Z</time>
      </trkpt>
      <trkpt lat="45.04841" lon="4.29117">
        <ele>1053.26</ele>
        <time>2024-08-22T11:50:19Z</time>
      </trkpt>
      <trkpt lat="45.04859" lon="4.29101">
        <ele>1052.78</ele>
        <time>2024-08-22T11:50:36Z</time>
      </trkpt>
      <trkpt lat="45.04876" lon="4.29083">
        <ele>1052.78</ele>
        <time>2024-08-22T11:50:52Z</time>
      </trkpt>
      <trkpt lat="45.04893" lon="4.29064">
        <ele>1051.82</ele>
        <time>2024-08-22T11:51:09Z</time>
      </trkpt>
      <trkpt lat="45.04907" lon="4.29054">
        <ele>1051.82</ele>
        <time>2024-08-22T11:51:22Z</time>
      </trkpt>
      <trkpt lat="45.04921" lon="4.29049">
        <ele>1054.7</ele>
        <time>2024-08-22T11:51:35Z</time>
      </trkpt>
      <trkpt lat="45.0493" lon="4.29042">
        <ele>1056.15</ele>
        <time>2024-08-22T11:51:46Z</time>
      </trkpt>
      <trkpt lat="45.04944" lon="4.29036">
        <ele>1056.63</ele>
        <time>2024-08-22T11:52:01Z</time>
      </trkpt>
      <trkpt lat="45.04959" lon="4.29027">
        <ele>1056.63</ele>
        <time>2024-08-22T11:52:15Z</time>
      </trkpt>
      <trkpt lat="45.04972" lon="4.29018">
        <ele>1056.15</ele>
        <time>2024-08-22T11:52:27Z</time>
      </trkpt>
      <trkpt lat="45.04989" lon="4.29003">
        <ele>1059.03</ele>
        <time>2024-08-22T11:52:41Z</time>
      </trkpt>
      <trkpt lat="45.05005" lon="4.28987">
        <ele>1059.99</ele>
        <time>2024-08-22T11:52:54Z</time>
      </trkpt>
      <trkpt lat="45.05023" lon="4.28963">
        <ele>1062.39</ele>
        <time>2024-08-22T11:53:07Z</time>
      </trkpt>
      <trkpt lat="45.05034" lon="4.28947">
        <ele>1062.87</ele>
        <time>2024-08-22T11:53:18Z</time>
      </trkpt>
      <trkpt lat="45.05045" lon="4.2892">
        <ele>1058.55</ele>
        <time>2024-08-22T11:53:32Z</time>
      </trkpt>
      <trkpt lat="45.05047" lon="4.28918">
        <ele>1058.07</ele>
        <time>2024-08-22T11:53:35Z</time>
      </trkpt>
      <trkpt lat="45.05056" lon="4.2891">
        <ele>1057.11</ele>
        <time>2024-08-22T11:53:48Z</time>
      </trkpt>
      <trkpt lat="45.05059" lon="4.28906">
        <ele>1055.18</ele>
        <time>2024-08-22T11:54:00Z</time>
      </trkpt>
      <trkpt lat="45.05064" lon="4.28904">
        <ele>1052.78</ele>
        <time>2024-08-22T11:54:11Z</time>
      </trkpt>
      <trkpt lat="45.05079" lon="4.28896">
        <ele>1051.82</ele>
        <time>2024-08-22T11:54:22Z</time>
      </trkpt>
      <trkpt lat="45.05093" lon="4.28888">
        <ele>1050.38</ele>
        <time>2024-08-22T11:54:44Z</time>
      </trkpt>
      <trkpt lat="45.05096" lon="4.28886">
        <ele>1049.9</ele>
        <time>2024-08-22T11:55:05Z</time>
      </trkpt>
      <trkpt lat="45.05097" lon="4.28886">
        <ele>1048.45</ele>
        <time>2024-08-22T11:55:23Z</time>
      </trkpt>
      <trkpt lat="45.05098" lon="4.28886">
        <ele>1047.49</ele>
        <time>2024-08-22T11:55:41Z</time>
      </trkpt>
      <trkpt lat="45.05097" lon="4.28885">
        <ele>1047.49</ele>
        <time>2024-08-22T11:56:02Z</time>
      </trkpt>
      <trkpt lat="45.05103" lon="4.28882">
        <ele>1049.9</ele>
        <time>2024-08-22T11:56:15Z</time>
      </trkpt>
      <trkpt lat="45.05108" lon="4.2888">
        <ele>1049.42</ele>
        <time>2024-08-22T11:56:28Z</time>
      </trkpt>
      <trkpt lat="45.05113" lon="4.28879">
        <ele>1047.49</ele>
        <time>2024-08-22T11:56:38Z</time>
      </trkpt>
      <trkpt lat="45.05129" lon="4.28871">
        <ele>1048.45</ele>
        <time>2024-08-22T11:56:52Z</time>
      </trkpt>
      <trkpt lat="45.05141" lon="4.28861">
        <ele>1048.94</ele>
        <time>2024-08-22T11:57:04Z</time>
      </trkpt>
      <trkpt lat="45.05161" lon="4.28851">
        <ele>1048.94</ele>
        <time>2024-08-22T11:57:17Z</time>
      </trkpt>
      <trkpt lat="45.05178" lon="4.28847">
        <ele>1045.57</ele>
        <time>2024-08-22T11:57:28Z</time>
      </trkpt>
      <trkpt lat="45.05187" lon="4.2884">
        <ele>1048.94</ele>
        <time>2024-08-22T11:57:39Z</time>
      </trkpt>
      <trkpt lat="45.05188" lon="4.28839">
        <ele>1049.42</ele>
        <time>2024-08-22T11:57:41Z</time>
      </trkpt>
      <trkpt lat="45.05203" lon="4.28826">
        <ele>1051.82</ele>
        <time>2024-08-22T11:57:55Z</time>
      </trkpt>
      <trkpt lat="45.05207" lon="4.28825">
        <ele>1051.34</ele>
        <time>2024-08-22T11:58:00Z</time>
      </trkpt>
      <trkpt lat="45.05211" lon="4.2882">
        <ele>1050.86</ele>
        <time>2024-08-22T11:58:10Z</time>
      </trkpt>
      <trkpt lat="45.05218" lon="4.28815">
        <ele>1050.86</ele>
        <time>2024-08-22T11:58:16Z</time>
      </trkpt>
      <trkpt lat="45.05233" lon="4.28805">
        <ele>1051.82</ele>
        <time>2024-08-22T11:58:20Z</time>
      </trkpt>
      <trkpt lat="45.05244" lon="4.28796">
        <ele>1048.45</ele>
        <time>2024-08-22T11:58:33Z</time>
      </trkpt>
      <trkpt lat="45.0525" lon="4.2879">
        <ele>1045.57</ele>
        <time>2024-08-22T11:58:45Z</time>
      </trkpt>
      <trkpt lat="45.05259" lon="4.28784">
        <ele>1044.13</ele>
        <time>2024-08-22T11:58:58Z</time>
      </trkpt>
      <trkpt lat="45.05262" lon="4.28783">
        <ele>1043.65</ele>
        <time>2024-08-22T11:59:00Z</time>
      </trkpt>
      <trkpt lat="45.05288" lon="4.28769">
        <ele>1044.61</ele>
        <time>2024-08-22T11:59:13Z</time>
      </trkpt>
      <trkpt lat="45.05291" lon="4.2877">
        <ele>1043.17</ele>
        <time>2024-08-22T11:59:23Z</time>
      </trkpt>
      <trkpt lat="45.05302" lon="4.28763">
        <ele>1042.21</ele>
        <time>2024-08-22T11:59:35Z</time>
      </trkpt>
      <trkpt lat="45.05315" lon="4.28756">
        <ele>1038.84</ele>
        <time>2024-08-22T11:59:49Z</time>
      </trkpt>
      <trkpt lat="45.05315" lon="4.28756">
        <ele>1038.84</ele>
        <time>2024-08-22T11:59:50Z</time>
      </trkpt>
      <trkpt lat="45.05327" lon="4.28754">
        <ele>1037.88</ele>
        <time>2024-08-22T12:00:00Z</time>
      </trkpt>
      <trkpt lat="45.05338" lon="4.28749">
        <ele>1035.96</ele>
        <time>2024-08-22T12:00:13Z</time>
      </trkpt>
      <trkpt lat="45.05351" lon="4.28743">
        <ele>1035.48</ele>
        <time>2024-08-22T12:00:26Z</time>
      </trkpt>
      <trkpt lat="45.05358" lon="4.28739">
        <ele>1033.07</ele>
        <time>2024-08-22T12:00:37Z</time>
      </trkpt>
      <trkpt lat="45.05369" lon="4.28733">
        <ele>1029.71</ele>
        <time>2024-08-22T12:00:48Z</time>
      </trkpt>
      <trkpt lat="45.05372" lon="4.28732">
        <ele>1028.75</ele>
        <time>2024-08-22T12:00:52Z</time>
      </trkpt>
      <trkpt lat="45.05391" lon="4.28725">
        <ele>1024.9</ele>
        <time>2024-08-22T12:01:03Z</time>
      </trkpt>
      <trkpt lat="45.05408" lon="4.28719">
        <ele>1022.98</ele>
        <time>2024-08-22T12:01:13Z</time>
      </trkpt>
      <trkpt lat="45.05419" lon="4.28715">
        <ele>1019.13</ele>
        <time>2024-08-22T12:01:27Z</time>
      </trkpt>
      <trkpt lat="45.05435" lon="4.28708">
        <ele>1015.29</ele>
        <time>2024-08-22T12:01:39Z</time>
      </trkpt>
      <trkpt lat="45.05447" lon="4.28699">
        <ele>1014.81</ele>
        <time>2024-08-22T12:01:50Z</time>
      </trkpt>
      <trkpt lat="45.05452" lon="4.28693">
        <ele>1013.85</ele>
        <time>2024-08-22T12:02:03Z</time>
      </trkpt>
      <trkpt lat="45.05465" lon="4.28686">
        <ele>1010</ele>
        <time>2024-08-22T12:02:14Z</time>
      </trkpt>
      <trkpt lat="45.05477" lon="4.28676">
        <ele>1008.08</ele>
        <time>2024-08-22T12:02:25Z</time>
      </trkpt>
      <trkpt lat="45.05496" lon="4.28667">
        <ele>1003.75</ele>
        <time>2024-08-22T12:02:38Z</time>
      </trkpt>
      <trkpt lat="45.05502" lon="4.28664">
        <ele>1000.39</ele>
        <time>2024-08-22T12:02:47Z</time>
      </trkpt>
      <trkpt lat="45.0552" lon="4.28656">
        <ele>998.95</ele>
        <time>2024-08-22T12:03:02Z</time>
      </trkpt>
      <trkpt lat="45.0554" lon="4.28645">
        <ele>993.18</ele>
        <time>2024-08-22T12:03:18Z</time>
      </trkpt>
      <trkpt lat="45.05553" lon="4.28625">
        <ele>993.66</ele>
        <time>2024-08-22T12:03:34Z</time>
      </trkpt>
      <trkpt lat="45.05565" lon="4.28613">
        <ele>991.26</ele>
        <time>2024-08-22T12:03:46Z</time>
      </trkpt>
      <trkpt lat="45.05577" lon="4.286">
        <ele>990.78</ele>
        <time>2024-08-22T12:04:00Z</time>
      </trkpt>
      <trkpt lat="45.05592" lon="4.28582">
        <ele>991.74</ele>
        <time>2024-08-22T12:04:15Z</time>
      </trkpt>
      <trkpt lat="45.05603" lon="4.28566">
        <ele>991.26</ele>
        <time>2024-08-22T12:04:27Z</time>
      </trkpt>
      <trkpt lat="45.05612" lon="4.28555">
        <ele>989.33</ele>
        <time>2024-08-22T12:04:36Z</time>
      </trkpt>
      <trkpt lat="45.05625" lon="4.28544">
        <ele>988.37</ele>
        <time>2024-08-22T12:04:51Z</time>
      </trkpt>
      <trkpt lat="45.05626" lon="4.28544">
        <ele>988.37</ele>
        <time>2024-08-22T12:04:52Z</time>
      </trkpt>
      <trkpt lat="45.05635" lon="4.28564">
        <ele>986.93</ele>
        <time>2024-08-22T12:05:09Z</time>
      </trkpt>
      <trkpt lat="45.0564" lon="4.28572">
        <ele>985.49</ele>
        <time>2024-08-22T12:05:15Z</time>
      </trkpt>
      <trkpt lat="45.05641" lon="4.28576">
        <ele>984.53</ele>
        <time>2024-08-22T12:05:17Z</time>
      </trkpt>
      <trkpt lat="45.05652" lon="4.28592">
        <ele>981.64</ele>
        <time>2024-08-22T12:05:31Z</time>
      </trkpt>
      <trkpt lat="45.05656" lon="4.28601">
        <ele>980.68</ele>
        <time>2024-08-22T12:05:37Z</time>
      </trkpt>
      <trkpt lat="45.05662" lon="4.28615">
        <ele>980.68</ele>
        <time>2024-08-22T12:05:46Z</time>
      </trkpt>
      <trkpt lat="45.05672" lon="4.2863">
        <ele>982.6</ele>
        <time>2024-08-22T12:05:57Z</time>
      </trkpt>
      <trkpt lat="45.05679" lon="4.28639">
        <ele>984.53</ele>
        <time>2024-08-22T12:06:04Z</time>
      </trkpt>
      <trkpt lat="45.0568" lon="4.28652">
        <ele>983.57</ele>
        <time>2024-08-22T12:06:11Z</time>
      </trkpt>
      <trkpt lat="45.05682" lon="4.28684">
        <ele>980.2</ele>
        <time>2024-08-22T12:06:28Z</time>
      </trkpt>
      <trkpt lat="45.05681" lon="4.28711">
        <ele>981.16</ele>
        <time>2024-08-22T12:06:44Z</time>
      </trkpt>
      <trkpt lat="45.05686" lon="4.28745">
        <ele>979.24</ele>
        <time>2024-08-22T12:07:02Z</time>
      </trkpt>
      <trkpt lat="45.05701" lon="4.28763">
        <ele>979.72</ele>
        <time>2024-08-22T12:07:17Z</time>
      </trkpt>
      <trkpt lat="45.05722" lon="4.28773">
        <ele>980.2</ele>
        <time>2024-08-22T12:07:32Z</time>
      </trkpt>
      <trkpt lat="45.05738" lon="4.28775">
        <ele>980.2</ele>
        <time>2024-08-22T12:07:45Z</time>
      </trkpt>
      <trkpt lat="45.05756" lon="4.28788">
        <ele>980.68</ele>
        <time>2024-08-22T12:08:00Z</time>
      </trkpt>
      <trkpt lat="45.05768" lon="4.28806">
        <ele>975.39</ele>
        <time>2024-08-22T12:08:16Z</time>
      </trkpt>
      <trkpt lat="45.05774" lon="4.28805">
        <ele>974.43</ele>
        <time>2024-08-22T12:08:29Z</time>
      </trkpt>
      <trkpt lat="45.05789" lon="4.28805">
        <ele>972.51</ele>
        <time>2024-08-22T12:08:43Z</time>
      </trkpt>
      <trkpt lat="45.05795" lon="4.28807">
        <ele>971.07</ele>
        <time>2024-08-22T12:08:55Z</time>
      </trkpt>
      <trkpt lat="45.05801" lon="4.28809">
        <ele>971.07</ele>
        <time>2024-08-22T12:09:11Z</time>
      </trkpt>
      <trkpt lat="45.05825" lon="4.2882">
        <ele>969.63</ele>
        <time>2024-08-22T12:09:29Z</time>
      </trkpt>
      <trkpt lat="45.05836" lon="4.28821">
        <ele>969.15</ele>
        <time>2024-08-22T12:09:37Z</time>
      </trkpt>
      <trkpt lat="45.05846" lon="4.28822">
        <ele>969.15</ele>
        <time>2024-08-22T12:09:45Z</time>
      </trkpt>
      <trkpt lat="45.05848" lon="4.28821">
        <ele>968.67</ele>
        <time>2024-08-22T12:09:46Z</time>
      </trkpt>
      <trkpt lat="45.05874" lon="4.28813">
        <ele>968.18</ele>
        <time>2024-08-22T12:10:06Z</time>
      </trkpt>
      <trkpt lat="45.059" lon="4.2881">
        <ele>967.7</ele>
        <time>2024-08-22T12:10:24Z</time>
      </trkpt>
      <trkpt lat="45.05923" lon="4.28814">
        <ele>966.74</ele>
        <time>2024-08-22T12:10:40Z</time>
      </trkpt>
      <trkpt lat="45.05948" lon="4.28819">
        <ele>966.26</ele>
        <time>2024-08-22T12:10:58Z</time>
      </trkpt>
      <trkpt lat="45.05972" lon="4.28821">
        <ele>966.74</ele>
        <time>2024-08-22T12:11:16Z</time>
      </trkpt>
      <trkpt lat="45.05995" lon="4.28821">
        <ele>963.86</ele>
        <time>2024-08-22T12:11:33Z</time>
      </trkpt>
      <trkpt lat="45.06021" lon="4.28822">
        <ele>961.46</ele>
        <time>2024-08-22T12:11:52Z</time>
      </trkpt>
      <trkpt lat="45.06044" lon="4.2882">
        <ele>960.98</ele>
        <time>2024-08-22T12:12:07Z</time>
      </trkpt>
      <trkpt lat="45.06063" lon="4.2882">
        <ele>961.94</ele>
        <time>2024-08-22T12:12:21Z</time>
      </trkpt>
      <trkpt lat="45.06088" lon="4.28818">
        <ele>963.86</ele>
        <time>2024-08-22T12:12:38Z</time>
      </trkpt>
      <trkpt lat="45.06089" lon="4.28818">
        <ele>963.86</ele>
        <time>2024-08-22T12:12:39Z</time>
      </trkpt>
      <trkpt lat="45.06096" lon="4.28818">
        <ele>964.82</ele>
        <time>2024-08-22T12:12:44Z</time>
      </trkpt>
      <trkpt lat="45.06126" lon="4.28814">
        <ele>964.82</ele>
        <time>2024-08-22T12:13:05Z</time>
      </trkpt>
      <trkpt lat="45.0615" lon="4.28811">
        <ele>963.86</ele>
        <time>2024-08-22T12:13:22Z</time>
      </trkpt>
      <trkpt lat="45.06175" lon="4.2881">
        <ele>962.9</ele>
        <time>2024-08-22T12:13:40Z</time>
      </trkpt>
      <trkpt lat="45.06201" lon="4.2881">
        <ele>961.46</ele>
        <time>2024-08-22T12:13:59Z</time>
      </trkpt>
      <trkpt lat="45.06222" lon="4.28792">
        <ele>961.94</ele>
        <time>2024-08-22T12:14:18Z</time>
      </trkpt>
      <trkpt lat="45.06227" lon="4.28762">
        <ele>962.9</ele>
        <time>2024-08-22T12:14:34Z</time>
      </trkpt>
      <trkpt lat="45.0623" lon="4.28744">
        <ele>963.38</ele>
        <time>2024-08-22T12:14:44Z</time>
      </trkpt>
      <trkpt lat="45.06238" lon="4.28722">
        <ele>962.42</ele>
        <time>2024-08-22T12:14:57Z</time>
      </trkpt>
      <trkpt lat="45.06245" lon="4.28704">
        <ele>964.82</ele>
        <time>2024-08-22T12:15:09Z</time>
      </trkpt>
      <trkpt lat="45.06246" lon="4.28683">
        <ele>973.47</ele>
        <time>2024-08-22T12:15:20Z</time>
      </trkpt>
      <trkpt lat="45.06251" lon="4.28657">
        <ele>978.28</ele>
        <time>2024-08-22T12:15:34Z</time>
      </trkpt>
      <trkpt lat="45.06258" lon="4.28638">
        <ele>979.24</ele>
        <time>2024-08-22T12:15:45Z</time>
      </trkpt>
      <trkpt lat="45.06265" lon="4.28613">
        <ele>976.84</ele>
        <time>2024-08-22T12:15:58Z</time>
      </trkpt>
      <trkpt lat="45.06267" lon="4.286">
        <ele>976.36</ele>
        <time>2024-08-22T12:16:07Z</time>
      </trkpt>
      <trkpt lat="45.06269" lon="4.28592">
        <ele>976.36</ele>
        <time>2024-08-22T12:16:11Z</time>
      </trkpt>
      <trkpt lat="45.06278" lon="4.28572">
        <ele>974.91</ele>
        <time>2024-08-22T12:16:23Z</time>
      </trkpt>
      <trkpt lat="45.06285" lon="4.28553">
        <ele>976.36</ele>
        <time>2024-08-22T12:16:35Z</time>
      </trkpt>
      <trkpt lat="45.06294" lon="4.28533">
        <ele>977.32</ele>
        <time>2024-08-22T12:16:47Z</time>
      </trkpt>
      <trkpt lat="45.06296" lon="4.28525">
        <ele>976.36</ele>
        <time>2024-08-22T12:16:51Z</time>
      </trkpt>
      <trkpt lat="45.06295" lon="4.28512">
        <ele>973.47</ele>
        <time>2024-08-22T12:17:05Z</time>
      </trkpt>
      <trkpt lat="45.06294" lon="4.2851">
        <ele>972.03</ele>
        <time>2024-08-22T12:17:15Z</time>
      </trkpt>
      <trkpt lat="45.06294" lon="4.28509">
        <ele>972.03</ele>
        <time>2024-08-22T12:17:27Z</time>
      </trkpt>
      <trkpt lat="45.06294" lon="4.28508">
        <ele>972.51</ele>
        <time>2024-08-22T12:17:43Z</time>
      </trkpt>
      <trkpt lat="45.06293" lon="4.28508">
        <ele>971.55</ele>
        <time>2024-08-22T12:17:54Z</time>
      </trkpt>
      <trkpt lat="45.06293" lon="4.28506">
        <ele>971.07</ele>
        <time>2024-08-22T12:18:09Z</time>
      </trkpt>
      <trkpt lat="45.06293" lon="4.28507">
        <ele>970.11</ele>
        <time>2024-08-22T12:18:28Z</time>
      </trkpt>
      <trkpt lat="45.06293" lon="4.28504">
        <ele>969.63</ele>
        <time>2024-08-22T12:18:31Z</time>
      </trkpt>
      <trkpt lat="45.06299" lon="4.28489">
        <ele>970.11</ele>
        <time>2024-08-22T12:18:46Z</time>
      </trkpt>
      <trkpt lat="45.06302" lon="4.28484">
        <ele>971.07</ele>
        <time>2024-08-22T12:18:50Z</time>
      </trkpt>
      <trkpt lat="45.06309" lon="4.28468">
        <ele>971.55</ele>
        <time>2024-08-22T12:18:59Z</time>
      </trkpt>
      <trkpt lat="45.06321" lon="4.28443">
        <ele>970.11</ele>
        <time>2024-08-22T12:19:14Z</time>
      </trkpt>
      <trkpt lat="45.06323" lon="4.28432">
        <ele>969.15</ele>
        <time>2024-08-22T12:19:21Z</time>
      </trkpt>
      <trkpt lat="45.06329" lon="4.28416">
        <ele>968.18</ele>
        <time>2024-08-22T12:19:33Z</time>
      </trkpt>
      <trkpt lat="45.06331" lon="4.28407">
        <ele>969.15</ele>
        <time>2024-08-22T12:19:39Z</time>
      </trkpt>
      <trkpt lat="45.0634" lon="4.28391">
        <ele>971.55</ele>
        <time>2024-08-22T12:19:51Z</time>
      </trkpt>
      <trkpt lat="45.06341" lon="4.28388">
        <ele>972.03</ele>
        <time>2024-08-22T12:19:53Z</time>
      </trkpt>
      <trkpt lat="45.06349" lon="4.28374">
        <ele>973.95</ele>
        <time>2024-08-22T12:20:01Z</time>
      </trkpt>
      <trkpt lat="45.06354" lon="4.28359">
        <ele>974.91</ele>
        <time>2024-08-22T12:20:11Z</time>
      </trkpt>
      <trkpt lat="45.06363" lon="4.2834">
        <ele>976.84</ele>
        <time>2024-08-22T12:20:23Z</time>
      </trkpt>
      <trkpt lat="45.06365" lon="4.2833">
        <ele>976.36</ele>
        <time>2024-08-22T12:20:30Z</time>
      </trkpt>
      <trkpt lat="45.0637" lon="4.28308">
        <ele>974.43</ele>
        <time>2024-08-22T12:20:44Z</time>
      </trkpt>
      <trkpt lat="45.06373" lon="4.28292">
        <ele>974.43</ele>
        <time>2024-08-22T12:20:57Z</time>
      </trkpt>
      <trkpt lat="45.06372" lon="4.28282">
        <ele>974.43</ele>
        <time>2024-08-22T12:21:07Z</time>
      </trkpt>
      <trkpt lat="45.06372" lon="4.28275">
        <ele>975.88</ele>
        <time>2024-08-22T12:21:12Z</time>
      </trkpt>
      <trkpt lat="45.06369" lon="4.28265">
        <ele>978.76</ele>
        <time>2024-08-22T12:21:24Z</time>
      </trkpt>
      <trkpt lat="45.06366" lon="4.28257">
        <ele>981.16</ele>
        <time>2024-08-22T12:21:30Z</time>
      </trkpt>
      <trkpt lat="45.06365" lon="4.28253">
        <ele>984.05</ele>
        <time>2024-08-22T12:21:33Z</time>
      </trkpt>
      <trkpt lat="45.06356" lon="4.28239">
        <ele>987.89</ele>
        <time>2024-08-22T12:21:45Z</time>
      </trkpt>
      <trkpt lat="45.06357" lon="4.28238">
        <ele>987.41</ele>
        <time>2024-08-22T12:21:47Z</time>
      </trkpt>
      <trkpt lat="45.06355" lon="4.28218">
        <ele>985.01</ele>
        <time>2024-08-22T12:21:57Z</time>
      </trkpt>
      <trkpt lat="45.06352" lon="4.28214">
        <ele>986.45</ele>
        <time>2024-08-22T12:22:01Z</time>
      </trkpt>
      <trkpt lat="45.06345" lon="4.28201">
        <ele>989.81</ele>
        <time>2024-08-22T12:22:11Z</time>
      </trkpt>
      <trkpt lat="45.0634" lon="4.28183">
        <ele>989.81</ele>
        <time>2024-08-22T12:22:25Z</time>
      </trkpt>
      <trkpt lat="45.0634" lon="4.28173">
        <ele>978.28</ele>
        <time>2024-08-22T12:22:33Z</time>
      </trkpt>
      <trkpt lat="45.06329" lon="4.28163">
        <ele>967.22</ele>
        <time>2024-08-22T12:22:44Z</time>
      </trkpt>
      <trkpt lat="45.06317" lon="4.2816">
        <ele>962.9</ele>
        <time>2024-08-22T12:22:55Z</time>
      </trkpt>
      <trkpt lat="45.06314" lon="4.2816">
        <ele>962.9</ele>
        <time>2024-08-22T12:22:57Z</time>
      </trkpt>
      <trkpt lat="45.06305" lon="4.28161">
        <ele>962.42</ele>
        <time>2024-08-22T12:23:05Z</time>
      </trkpt>
      <trkpt lat="45.06294" lon="4.28161">
        <ele>963.86</ele>
        <time>2024-08-22T12:23:17Z</time>
      </trkpt>
      <trkpt lat="45.0628" lon="4.28159">
        <ele>969.15</ele>
        <time>2024-08-22T12:23:31Z</time>
      </trkpt>
      <trkpt lat="45.06263" lon="4.28153">
        <ele>972.51</ele>
        <time>2024-08-22T12:23:44Z</time>
      </trkpt>
      <trkpt lat="45.06247" lon="4.28148">
        <ele>976.36</ele>
        <time>2024-08-22T12:23:55Z</time>
      </trkpt>
      <trkpt lat="45.06237" lon="4.28141">
        <ele>979.24</ele>
        <time>2024-08-22T12:24:05Z</time>
      </trkpt>
      <trkpt lat="45.06225" lon="4.28137">
        <ele>984.05</ele>
        <time>2024-08-22T12:24:17Z</time>
      </trkpt>
      <trkpt lat="45.06217" lon="4.28133">
        <ele>986.45</ele>
        <time>2024-08-22T12:24:25Z</time>
      </trkpt>
      <trkpt lat="45.06204" lon="4.2813">
        <ele>988.85</ele>
        <time>2024-08-22T12:24:36Z</time>
      </trkpt>
      <trkpt lat="45.06195" lon="4.28119">
        <ele>986.93</ele>
        <time>2024-08-22T12:24:46Z</time>
      </trkpt>
      <trkpt lat="45.06175" lon="4.28112">
        <ele>984.53</ele>
        <time>2024-08-22T12:25:00Z</time>
      </trkpt>
      <trkpt lat="45.06164" lon="4.2811">
        <ele>988.85</ele>
        <time>2024-08-22T12:25:13Z</time>
      </trkpt>
      <trkpt lat="45.06152" lon="4.28109">
        <ele>988.37</ele>
        <time>2024-08-22T12:25:22Z</time>
      </trkpt>
      <trkpt lat="45.06145" lon="4.28112">
        <ele>987.41</ele>
        <time>2024-08-22T12:25:26Z</time>
      </trkpt>
      <trkpt lat="45.06109" lon="4.2813">
        <ele>967.7</ele>
        <time>2024-08-22T12:25:43Z</time>
      </trkpt>
      <trkpt lat="45.0609" lon="4.28159">
        <ele>963.38</ele>
        <time>2024-08-22T12:26:03Z</time>
      </trkpt>
      <trkpt lat="45.0608" lon="4.2817">
        <ele>961.46</ele>
        <time>2024-08-22T12:26:17Z</time>
      </trkpt>
      <trkpt lat="45.06063" lon="4.28182">
        <ele>962.42</ele>
        <time>2024-08-22T12:26:33Z</time>
      </trkpt>
      <trkpt lat="45.06054" lon="4.2819">
        <ele>962.42</ele>
        <time>2024-08-22T12:26:45Z</time>
      </trkpt>
      <trkpt lat="45.06046" lon="4.28199">
        <ele>967.7</ele>
        <time>2024-08-22T12:26:56Z</time>
      </trkpt>
      <trkpt lat="45.06038" lon="4.28209">
        <ele>969.15</ele>
        <time>2024-08-22T12:27:09Z</time>
      </trkpt>
      <trkpt lat="45.06031" lon="4.28219">
        <ele>970.11</ele>
        <time>2024-08-22T12:27:19Z</time>
      </trkpt>
      <trkpt lat="45.06026" lon="4.28224">
        <ele>972.03</ele>
        <time>2024-08-22T12:27:31Z</time>
      </trkpt>
      <trkpt lat="45.06011" lon="4.28237">
        <ele>977.32</ele>
        <time>2024-08-22T12:27:42Z</time>
      </trkpt>
      <trkpt lat="45.05999" lon="4.28246">
        <ele>985.97</ele>
        <time>2024-08-22T12:27:56Z</time>
      </trkpt>
      <trkpt lat="45.05985" lon="4.28251">
        <ele>990.3</ele>
        <time>2024-08-22T12:28:08Z</time>
      </trkpt>
      <trkpt lat="45.0598" lon="4.28253">
        <ele>992.22</ele>
        <time>2024-08-22T12:28:11Z</time>
      </trkpt>
      <trkpt lat="45.05968" lon="4.28263">
        <ele>990.78</ele>
        <time>2024-08-22T12:28:21Z</time>
      </trkpt>
      <trkpt lat="45.05957" lon="4.28269">
        <ele>990.78</ele>
        <time>2024-08-22T12:28:34Z</time>
      </trkpt>
      <trkpt lat="45.05938" lon="4.28278">
        <ele>990.78</ele>
        <time>2024-08-22T12:28:48Z</time>
      </trkpt>
      <trkpt lat="45.05927" lon="4.28287">
        <ele>995.1</ele>
        <time>2024-08-22T12:29:00Z</time>
      </trkpt>
      <trkpt lat="45.05924" lon="4.28295">
        <ele>997.99</ele>
        <time>2024-08-22T12:29:05Z</time>
      </trkpt>
      <trkpt lat="45.05923" lon="4.28309">
        <ele>1002.31</ele>
        <time>2024-08-22T12:29:14Z</time>
      </trkpt>
      <trkpt lat="45.05922" lon="4.28314">
        <ele>1002.79</ele>
        <time>2024-08-22T12:29:17Z</time>
      </trkpt>
      <trkpt lat="45.05909" lon="4.2833">
        <ele>1000.39</ele>
        <time>2024-08-22T12:29:32Z</time>
      </trkpt>
      <trkpt lat="45.05904" lon="4.28338">
        <ele>998.95</ele>
        <time>2024-08-22T12:29:37Z</time>
      </trkpt>
      <trkpt lat="45.05895" lon="4.28354">
        <ele>995.58</ele>
        <time>2024-08-22T12:29:49Z</time>
      </trkpt>
      <trkpt lat="45.05884" lon="4.2837">
        <ele>997.51</ele>
        <time>2024-08-22T12:30:03Z</time>
      </trkpt>
      <trkpt lat="45.05882" lon="4.28372">
        <ele>997.51</ele>
        <time>2024-08-22T12:30:05Z</time>
      </trkpt>
      <trkpt lat="45.05867" lon="4.2838">
        <ele>994.62</ele>
        <time>2024-08-22T12:30:17Z</time>
      </trkpt>
      <trkpt lat="45.05859" lon="4.28382">
        <ele>987.89</ele>
        <time>2024-08-22T12:30:26Z</time>
      </trkpt>
      <trkpt lat="45.05858" lon="4.28383">
        <ele>987.41</ele>
        <time>2024-08-22T12:30:27Z</time>
      </trkpt>
      <trkpt lat="45.05834" lon="4.28398">
        <ele>985.97</ele>
        <time>2024-08-22T12:30:40Z</time>
      </trkpt>
      <trkpt lat="45.05811" lon="4.28413">
        <ele>987.41</ele>
        <time>2024-08-22T12:30:56Z</time>
      </trkpt>
      <trkpt lat="45.05808" lon="4.28414">
        <ele>987.41</ele>
        <time>2024-08-22T12:30:58Z</time>
      </trkpt>
      <trkpt lat="45.05789" lon="4.28423">
        <ele>986.93</ele>
        <time>2024-08-22T12:31:13Z</time>
      </trkpt>
      <trkpt lat="45.05772" lon="4.28433">
        <ele>985.97</ele>
        <time>2024-08-22T12:31:26Z</time>
      </trkpt>
      <trkpt lat="45.05771" lon="4.28434">
        <ele>985.49</ele>
        <time>2024-08-22T12:31:27Z</time>
      </trkpt>
      <trkpt lat="45.05759" lon="4.28447">
        <ele>986.45</ele>
        <time>2024-08-22T12:31:40Z</time>
      </trkpt>
      <trkpt lat="45.05757" lon="4.28448">
        <ele>986.45</ele>
        <time>2024-08-22T12:31:42Z</time>
      </trkpt>
      <trkpt lat="45.05748" lon="4.28458">
        <ele>991.74</ele>
        <time>2024-08-22T12:31:55Z</time>
      </trkpt>
      <trkpt lat="45.05739" lon="4.28468">
        <ele>997.99</ele>
        <time>2024-08-22T12:32:04Z</time>
      </trkpt>
      <trkpt lat="45.05729" lon="4.28479">
        <ele>1004.72</ele>
        <time>2024-08-22T12:32:17Z</time>
      </trkpt>
      <trkpt lat="45.05722" lon="4.28483">
        <ele>1008.08</ele>
        <time>2024-08-22T12:32:25Z</time>
      </trkpt>
      <trkpt lat="45.05707" lon="4.28496">
        <ele>1007.12</ele>
        <time>2024-08-22T12:32:37Z</time>
      </trkpt>
      <trkpt lat="45.05695" lon="4.28506">
        <ele>1007.12</ele>
        <time>2024-08-22T12:32:48Z</time>
      </trkpt>
      <trkpt lat="45.05684" lon="4.28513">
        <ele>1006.64</ele>
        <time>2024-08-22T12:32:58Z</time>
      </trkpt>
      <trkpt lat="45.05671" lon="4.28524">
        <ele>1005.2</ele>
        <time>2024-08-22T12:33:10Z</time>
      </trkpt>
      <trkpt lat="45.05655" lon="4.28541">
        <ele>1003.27</ele>
        <time>2024-08-22T12:33:23Z</time>
      </trkpt>
      <trkpt lat="45.05644" lon="4.28541">
        <ele>997.51</ele>
        <time>2024-08-22T12:33:35Z</time>
      </trkpt>
      <trkpt lat="45.05641" lon="4.28544">
        <ele>994.62</ele>
        <time>2024-08-22T12:33:53Z</time>
      </trkpt>
      <trkpt lat="45.05639" lon="4.28546">
        <ele>992.22</ele>
        <time>2024-08-22T12:34:05Z</time>
      </trkpt>
      <trkpt lat="45.05636" lon="4.28547">
        <ele>991.26</ele>
        <time>2024-08-22T12:34:13Z</time>
      </trkpt>
      <trkpt lat="45.05635" lon="4.28548">
        <ele>990.78</ele>
        <time>2024-08-22T12:34:24Z</time>
      </trkpt>
      <trkpt lat="45.05636" lon="4.28548">
        <ele>990.78</ele>
        <time>2024-08-22T12:34:41Z</time>
      </trkpt>
      <trkpt lat="45.05637" lon="4.2855">
        <ele>989.81</ele>
        <time>2024-08-22T12:35:04Z</time>
      </trkpt>
      <trkpt lat="45.05635" lon="4.28549">
        <ele>989.33</ele>
        <time>2024-08-22T12:35:19Z</time>
      </trkpt>
      <trkpt lat="45.05634" lon="4.28548">
        <ele>986.93</ele>
        <time>2024-08-22T12:35:36Z</time>
      </trkpt>
      <trkpt lat="45.05634" lon="4.28549">
        <ele>986.45</ele>
        <time>2024-08-22T12:35:47Z</time>
      </trkpt>
      <trkpt lat="45.05634" lon="4.28549">
        <ele>986.93</ele>
        <time>2024-08-22T12:36:01Z</time>
      </trkpt>
      <trkpt lat="45.05634" lon="4.28548">
        <ele>986.93</ele>
        <time>2024-08-22T12:36:14Z</time>
      </trkpt>
      <trkpt lat="45.05634" lon="4.28548">
        <ele>985.97</ele>
        <time>2024-08-22T12:36:32Z</time>
      </trkpt>
      <trkpt lat="45.05634" lon="4.28548">
        <ele>985.49</ele>
        <time>2024-08-22T12:36:51Z</time>
      </trkpt>
      <trkpt lat="45.05634" lon="4.28547">
        <ele>985.97</ele>
        <time>2024-08-22T12:37:13Z</time>
      </trkpt>
      <trkpt lat="45.05633" lon="4.28547">
        <ele>985.97</ele>
        <time>2024-08-22T12:37:28Z</time>
      </trkpt>
      <trkpt lat="45.05633" lon="4.28548">
        <ele>985.97</ele>
        <time>2024-08-22T12:37:42Z</time>
      </trkpt>
      <trkpt lat="45.05633" lon="4.28547">
        <ele>985.49</ele>
        <time>2024-08-22T12:38:03Z</time>
      </trkpt>
      <trkpt lat="45.05633" lon="4.28547">
        <ele>985.01</ele>
        <time>2024-08-22T12:38:18Z</time>
      </trkpt>
      <trkpt lat="45.05633" lon="4.28546">
        <ele>985.01</ele>
        <time>2024-08-22T12:38:38Z</time>
      </trkpt>
      <trkpt lat="45.05633" lon="4.28546">
        <ele>984.05</ele>
        <time>2024-08-22T12:38:52Z</time>
      </trkpt>
      <trkpt lat="45.05632" lon="4.28548">
        <ele>984.05</ele>
        <time>2024-08-22T12:39:10Z</time>
      </trkpt>
      <trkpt lat="45.05632" lon="4.28547">
        <ele>984.05</ele>
        <time>2024-08-22T12:39:12Z</time>
      </trkpt>
      <trkpt lat="45.05627" lon="4.28538">
        <ele>984.53</ele>
        <time>2024-08-22T12:39:25Z</time>
      </trkpt>
      <trkpt lat="45.05627" lon="4.28535">
        <ele>985.01</ele>
        <time>2024-08-22T12:39:27Z</time>
      </trkpt>
      <trkpt lat="45.05622" lon="4.28515">
        <ele>988.37</ele>
        <time>2024-08-22T12:39:42Z</time>
      </trkpt>
      <trkpt lat="45.05621" lon="4.28509">
        <ele>987.41</ele>
        <time>2024-08-22T12:39:46Z</time>
      </trkpt>
      <trkpt lat="45.0562" lon="4.28503">
        <ele>986.93</ele>
        <time>2024-08-22T12:39:50Z</time>
      </trkpt>
      <trkpt lat="45.05609" lon="4.28475">
        <ele>984.05</ele>
        <time>2024-08-22T12:40:08Z</time>
      </trkpt>
      <trkpt lat="45.056" lon="4.28443">
        <ele>980.68</ele>
        <time>2024-08-22T12:40:27Z</time>
      </trkpt>
      <trkpt lat="45.05592" lon="4.28411">
        <ele>977.8</ele>
        <time>2024-08-22T12:40:45Z</time>
      </trkpt>
      <trkpt lat="45.05585" lon="4.28392">
        <ele>975.39</ele>
        <time>2024-08-22T12:40:58Z</time>
      </trkpt>
      <trkpt lat="45.05583" lon="4.2839">
        <ele>974.91</ele>
        <time>2024-08-22T12:41:01Z</time>
      </trkpt>
      <trkpt lat="45.05575" lon="4.28373">
        <ele>977.8</ele>
        <time>2024-08-22T12:41:15Z</time>
      </trkpt>
      <trkpt lat="45.05572" lon="4.28368">
        <ele>980.2</ele>
        <time>2024-08-22T12:41:19Z</time>
      </trkpt>
      <trkpt lat="45.05565" lon="4.28357">
        <ele>985.49</ele>
        <time>2024-08-22T12:41:26Z</time>
      </trkpt>
      <trkpt lat="45.05558" lon="4.28336">
        <ele>992.7</ele>
        <time>2024-08-22T12:41:41Z</time>
      </trkpt>
      <trkpt lat="45.05552" lon="4.28324">
        <ele>996.06</ele>
        <time>2024-08-22T12:41:50Z</time>
      </trkpt>
      <trkpt lat="45.0555" lon="4.28309">
        <ele>997.51</ele>
        <time>2024-08-22T12:42:00Z</time>
      </trkpt>
      <trkpt lat="45.05551" lon="4.28306">
        <ele>998.95</ele>
        <time>2024-08-22T12:42:03Z</time>
      </trkpt>
      <trkpt lat="45.05551" lon="4.28303">
        <ele>999.43</ele>
        <time>2024-08-22T12:42:05Z</time>
      </trkpt>
      <trkpt lat="45.05558" lon="4.28292">
        <ele>1007.6</ele>
        <time>2024-08-22T12:42:19Z</time>
      </trkpt>
      <trkpt lat="45.05563" lon="4.28289">
        <ele>1015.77</ele>
        <time>2024-08-22T12:42:30Z</time>
      </trkpt>
      <trkpt lat="45.05564" lon="4.28276">
        <ele>1032.11</ele>
        <time>2024-08-22T12:42:44Z</time>
      </trkpt>
      <trkpt lat="45.05564" lon="4.2827">
        <ele>1033.55</ele>
        <time>2024-08-22T12:42:47Z</time>
      </trkpt>
      <trkpt lat="45.05564" lon="4.28253">
        <ele>1037.88</ele>
        <time>2024-08-22T12:42:58Z</time>
      </trkpt>
      <trkpt lat="45.05566" lon="4.28225">
        <ele>1032.11</ele>
        <time>2024-08-22T12:43:11Z</time>
      </trkpt>
      <trkpt lat="45.05562" lon="4.28224">
        <ele>1033.07</ele>
        <time>2024-08-22T12:43:14Z</time>
      </trkpt>
      <trkpt lat="45.0556" lon="4.28212">
        <ele>1030.67</ele>
        <time>2024-08-22T12:43:27Z</time>
      </trkpt>
      <trkpt lat="45.05561" lon="4.28206">
        <ele>1024.9</ele>
        <time>2024-08-22T12:43:43Z</time>
      </trkpt>
      <trkpt lat="45.05561" lon="4.28201">
        <ele>1018.65</ele>
        <time>2024-08-22T12:44:05Z</time>
      </trkpt>
      <trkpt lat="45.05562" lon="4.282">
        <ele>1017.21</ele>
        <time>2024-08-22T12:44:22Z</time>
      </trkpt>
      <trkpt lat="45.05561" lon="4.28198">
        <ele>1016.73</ele>
        <time>2024-08-22T12:44:38Z</time>
      </trkpt>
      <trkpt lat="45.05563" lon="4.2818">
        <ele>1011.44</ele>
        <time>2024-08-22T12:44:51Z</time>
      </trkpt>
      <trkpt lat="45.05555" lon="4.28162">
        <ele>1012.89</ele>
        <time>2024-08-22T12:45:07Z</time>
      </trkpt>
      <trkpt lat="45.05554" lon="4.28161">
        <ele>1012.89</ele>
        <time>2024-08-22T12:45:08Z</time>
      </trkpt>
      <trkpt lat="45.05537" lon="4.2815">
        <ele>1009.52</ele>
        <time>2024-08-22T12:45:22Z</time>
      </trkpt>
      <trkpt lat="45.05533" lon="4.28149">
        <ele>1009.52</ele>
        <time>2024-08-22T12:45:34Z</time>
      </trkpt>
      <trkpt lat="45.05529" lon="4.28146">
        <ele>1010.96</ele>
        <time>2024-08-22T12:45:39Z</time>
      </trkpt>
      <trkpt lat="45.05512" lon="4.28133">
        <ele>1015.29</ele>
        <time>2024-08-22T12:45:53Z</time>
      </trkpt>
      <trkpt lat="45.05502" lon="4.28117">
        <ele>1018.65</ele>
        <time>2024-08-22T12:46:05Z</time>
      </trkpt>
      <trkpt lat="45.05495" lon="4.28101">
        <ele>1022.02</ele>
        <time>2024-08-22T12:46:17Z</time>
      </trkpt>
      <trkpt lat="45.05493" lon="4.28098">
        <ele>1022.98</ele>
        <time>2024-08-22T12:46:20Z</time>
      </trkpt>
      <trkpt lat="45.05491" lon="4.28091">
        <ele>1021.06</ele>
        <time>2024-08-22T12:46:24Z</time>
      </trkpt>
      <trkpt lat="45.0548" lon="4.28095">
        <ele>1022.98</ele>
        <time>2024-08-22T12:46:37Z</time>
      </trkpt>
      <trkpt lat="45.05472" lon="4.28097">
        <ele>1029.23</ele>
        <time>2024-08-22T12:46:50Z</time>
      </trkpt>
      <trkpt lat="45.05467" lon="4.28101">
        <ele>1037.4</ele>
        <time>2024-08-22T12:47:05Z</time>
      </trkpt>
      <trkpt lat="45.05458" lon="4.28103">
        <ele>1041.73</ele>
        <time>2024-08-22T12:47:17Z</time>
      </trkpt>
      <trkpt lat="45.05441" lon="4.2811">
        <ele>1044.61</ele>
        <time>2024-08-22T12:47:31Z</time>
      </trkpt>
      <trkpt lat="45.05429" lon="4.28112">
        <ele>1045.09</ele>
        <time>2024-08-22T12:47:45Z</time>
      </trkpt>
      <trkpt lat="45.0542" lon="4.28121">
        <ele>1047.49</ele>
        <time>2024-08-22T12:47:59Z</time>
      </trkpt>
      <trkpt lat="45.05414" lon="4.28138">
        <ele>1053.74</ele>
        <time>2024-08-22T12:48:12Z</time>
      </trkpt>
      <trkpt lat="45.05406" lon="4.28151">
        <ele>1057.11</ele>
        <time>2024-08-22T12:48:23Z</time>
      </trkpt>
      <trkpt lat="45.05402" lon="4.28155">
        <ele>1059.03</ele>
        <time>2024-08-22T12:48:29Z</time>
      </trkpt>
      <trkpt lat="45.05395" lon="4.28168">
        <ele>1059.51</ele>
        <time>2024-08-22T12:48:41Z</time>
      </trkpt>
      <trkpt lat="45.05384" lon="4.2818">
        <ele>1056.63</ele>
        <time>2024-08-22T12:48:55Z</time>
      </trkpt>
      <trkpt lat="45.0537" lon="4.28186">
        <ele>1049.9</ele>
        <time>2024-08-22T12:49:06Z</time>
      </trkpt>
      <trkpt lat="45.05357" lon="4.28193">
        <ele>1036.44</ele>
        <time>2024-08-22T12:49:24Z</time>
      </trkpt>
      <trkpt lat="45.0534" lon="4.28199">
        <ele>1022.5</ele>
        <time>2024-08-22T12:49:37Z</time>
      </trkpt>
      <trkpt lat="45.05338" lon="4.28199">
        <ele>1021.54</ele>
        <time>2024-08-22T12:49:51Z</time>
      </trkpt>
      <trkpt lat="45.05338" lon="4.28196">
        <ele>1023.94</ele>
        <time>2024-08-22T12:50:06Z</time>
      </trkpt>
      <trkpt lat="45.05337" lon="4.28191">
        <ele>1024.9</ele>
        <time>2024-08-22T12:50:20Z</time>
      </trkpt>
      <trkpt lat="45.05331" lon="4.28188">
        <ele>1027.79</ele>
        <time>2024-08-22T12:50:30Z</time>
      </trkpt>
      <trkpt lat="45.05329" lon="4.28183">
        <ele>1031.63</ele>
        <time>2024-08-22T12:50:42Z</time>
      </trkpt>
      <trkpt lat="45.05328" lon="4.28181">
        <ele>1029.23</ele>
        <time>2024-08-22T12:50:53Z</time>
      </trkpt>
      <trkpt lat="45.05328" lon="4.28179">
        <ele>1026.34</ele>
        <time>2024-08-22T12:51:06Z</time>
      </trkpt>
      <trkpt lat="45.05323" lon="4.28178">
        <ele>1024.9</ele>
        <time>2024-08-22T12:51:23Z</time>
      </trkpt>
      <trkpt lat="45.05307" lon="4.28174">
        <ele>1024.42</ele>
        <time>2024-08-22T12:51:36Z</time>
      </trkpt>
      <trkpt lat="45.05295" lon="4.28173">
        <ele>1025.86</ele>
        <time>2024-08-22T12:51:48Z</time>
      </trkpt>
      <trkpt lat="45.05288" lon="4.28168">
        <ele>1029.71</ele>
        <time>2024-08-22T12:52:01Z</time>
      </trkpt>
      <trkpt lat="45.05282" lon="4.28167">
        <ele>1030.67</ele>
        <time>2024-08-22T12:52:16Z</time>
      </trkpt>
      <trkpt lat="45.05275" lon="4.28159">
        <ele>1036.44</ele>
        <time>2024-08-22T12:52:27Z</time>
      </trkpt>
      <trkpt lat="45.05264" lon="4.28145">
        <ele>1046.53</ele>
        <time>2024-08-22T12:52:40Z</time>
      </trkpt>
      <trkpt lat="45.0526" lon="4.28124">
        <ele>1045.57</ele>
        <time>2024-08-22T12:52:51Z</time>
      </trkpt>
      <trkpt lat="45.0526" lon="4.28095">
        <ele>1031.63</ele>
        <time>2024-08-22T12:53:03Z</time>
      </trkpt>
      <trkpt lat="45.05263" lon="4.28088">
        <ele>1024.42</ele>
        <time>2024-08-22T12:53:14Z</time>
      </trkpt>
      <trkpt lat="45.05264" lon="4.28083">
        <ele>1020.58</ele>
        <time>2024-08-22T12:53:40Z</time>
      </trkpt>
      <trkpt lat="45.05256" lon="4.28073">
        <ele>1018.65</ele>
        <time>2024-08-22T12:53:53Z</time>
      </trkpt>
      <trkpt lat="45.05237" lon="4.28059">
        <ele>1022.02</ele>
        <time>2024-08-22T12:54:05Z</time>
      </trkpt>
      <trkpt lat="45.05236" lon="4.28058">
        <ele>1021.54</ele>
        <time>2024-08-22T12:54:06Z</time>
      </trkpt>
      <trkpt lat="45.05232" lon="4.28054">
        <ele>1021.06</ele>
        <time>2024-08-22T12:54:09Z</time>
      </trkpt>
      <trkpt lat="45.05221" lon="4.28039">
        <ele>1024.42</ele>
        <time>2024-08-22T12:54:20Z</time>
      </trkpt>
      <trkpt lat="45.05212" lon="4.28027">
        <ele>1029.71</ele>
        <time>2024-08-22T12:54:28Z</time>
      </trkpt>
      <trkpt lat="45.05204" lon="4.28013">
        <ele>1035</ele>
        <time>2024-08-22T12:54:35Z</time>
      </trkpt>
      <trkpt lat="45.05199" lon="4.28003">
        <ele>1038.36</ele>
        <time>2024-08-22T12:54:41Z</time>
      </trkpt>
      <trkpt lat="45.05192" lon="4.28">
        <ele>1040.28</ele>
        <time>2024-08-22T12:54:47Z</time>
      </trkpt>
      <trkpt lat="45.05179" lon="4.27993">
        <ele>1043.17</ele>
        <time>2024-08-22T12:54:56Z</time>
      </trkpt>
      <trkpt lat="45.05172" lon="4.27982">
        <ele>1043.17</ele>
        <time>2024-08-22T12:55:04Z</time>
      </trkpt>
      <trkpt lat="45.05163" lon="4.27936">
        <ele>1031.15</ele>
        <time>2024-08-22T12:55:19Z</time>
      </trkpt>
      <trkpt lat="45.05158" lon="4.27895">
        <ele>1027.31</ele>
        <time>2024-08-22T12:55:38Z</time>
      </trkpt>
      <trkpt lat="45.05156" lon="4.27863">
        <ele>1025.38</ele>
        <time>2024-08-22T12:55:56Z</time>
      </trkpt>
      <trkpt lat="45.05155" lon="4.27858">
        <ele>1024.9</ele>
        <time>2024-08-22T12:55:59Z</time>
      </trkpt>
      <trkpt lat="45.05138" lon="4.27843">
        <ele>1022.5</ele>
        <time>2024-08-22T12:56:17Z</time>
      </trkpt>
      <trkpt lat="45.05132" lon="4.27839">
        <ele>1022.98</ele>
        <time>2024-08-22T12:56:23Z</time>
      </trkpt>
      <trkpt lat="45.05125" lon="4.27813">
        <ele>1024.42</ele>
        <time>2024-08-22T12:56:41Z</time>
      </trkpt>
      <trkpt lat="45.05122" lon="4.27783">
        <ele>1024.42</ele>
        <time>2024-08-22T12:57:00Z</time>
      </trkpt>
      <trkpt lat="45.05117" lon="4.27753">
        <ele>1023.94</ele>
        <time>2024-08-22T12:57:17Z</time>
      </trkpt>
      <trkpt lat="45.0511" lon="4.27725">
        <ele>1024.42</ele>
        <time>2024-08-22T12:57:33Z</time>
      </trkpt>
      <trkpt lat="45.05103" lon="4.27698">
        <ele>1027.31</ele>
        <time>2024-08-22T12:57:50Z</time>
      </trkpt>
      <trkpt lat="45.05106" lon="4.27672">
        <ele>1028.27</ele>
        <time>2024-08-22T12:58:07Z</time>
      </trkpt>
      <trkpt lat="45.05108" lon="4.2767">
        <ele>1028.75</ele>
        <time>2024-08-22T12:58:09Z</time>
      </trkpt>
      <trkpt lat="45.05118" lon="4.27658">
        <ele>1030.67</ele>
        <time>2024-08-22T12:58:21Z</time>
      </trkpt>
      <trkpt lat="45.05133" lon="4.27635">
        <ele>1031.63</ele>
        <time>2024-08-22T12:58:37Z</time>
      </trkpt>
      <trkpt lat="45.05146" lon="4.2762">
        <ele>1034.04</ele>
        <time>2024-08-22T12:58:53Z</time>
      </trkpt>
      <trkpt lat="45.05161" lon="4.27614">
        <ele>1038.36</ele>
        <time>2024-08-22T12:59:05Z</time>
      </trkpt>
      <trkpt lat="45.05176" lon="4.27616">
        <ele>1044.13</ele>
        <time>2024-08-22T12:59:18Z</time>
      </trkpt>
      <trkpt lat="45.05187" lon="4.27621">
        <ele>1053.26</ele>
        <time>2024-08-22T12:59:31Z</time>
      </trkpt>
      <trkpt lat="45.0519" lon="4.27621">
        <ele>1054.7</ele>
        <time>2024-08-22T12:59:33Z</time>
      </trkpt>
      <trkpt lat="45.05195" lon="4.2762">
        <ele>1056.63</ele>
        <time>2024-08-22T12:59:38Z</time>
      </trkpt>
      <trkpt lat="45.05201" lon="4.2762">
        <ele>1059.51</ele>
        <time>2024-08-22T12:59:43Z</time>
      </trkpt>
      <trkpt lat="45.05223" lon="4.27609">
        <ele>1064.8</ele>
        <time>2024-08-22T13:00:01Z</time>
      </trkpt>
      <trkpt lat="45.05248" lon="4.27603">
        <ele>1057.59</ele>
        <time>2024-08-22T13:00:19Z</time>
      </trkpt>
      <trkpt lat="45.0527" lon="4.27612">
        <ele>1056.15</ele>
        <time>2024-08-22T13:00:37Z</time>
      </trkpt>
      <trkpt lat="45.05276" lon="4.27614">
        <ele>1057.11</ele>
        <time>2024-08-22T13:00:52Z</time>
      </trkpt>
      <trkpt lat="45.05286" lon="4.27612">
        <ele>1056.63</ele>
        <time>2024-08-22T13:01:07Z</time>
      </trkpt>
      <trkpt lat="45.0529" lon="4.2761">
        <ele>1058.07</ele>
        <time>2024-08-22T13:01:14Z</time>
      </trkpt>
      <trkpt lat="45.05291" lon="4.27586">
        <ele>1052.78</ele>
        <time>2024-08-22T13:01:23Z</time>
      </trkpt>
      <trkpt lat="45.05289" lon="4.27577">
        <ele>1051.82</ele>
        <time>2024-08-22T13:01:29Z</time>
      </trkpt>
      <trkpt lat="45.05289" lon="4.2753">
        <ele>1036.92</ele>
        <time>2024-08-22T13:01:46Z</time>
      </trkpt>
      <trkpt lat="45.05287" lon="4.27512">
        <ele>1036.44</ele>
        <time>2024-08-22T13:01:56Z</time>
      </trkpt>
      <trkpt lat="45.05284" lon="4.27491">
        <ele>1037.88</ele>
        <time>2024-08-22T13:02:12Z</time>
      </trkpt>
      <trkpt lat="45.05278" lon="4.27471">
        <ele>1036.92</ele>
        <time>2024-08-22T13:02:27Z</time>
      </trkpt>
      <trkpt lat="45.05273" lon="4.2745">
        <ele>1035.96</ele>
        <time>2024-08-22T13:02:40Z</time>
      </trkpt>
      <trkpt lat="45.05268" lon="4.27441">
        <ele>1036.44</ele>
        <time>2024-08-22T13:02:46Z</time>
      </trkpt>
      <trkpt lat="45.0526" lon="4.27427">
        <ele>1037.88</ele>
        <time>2024-08-22T13:02:56Z</time>
      </trkpt>
      <trkpt lat="45.05258" lon="4.27423">
        <ele>1038.84</ele>
        <time>2024-08-22T13:02:59Z</time>
      </trkpt>
      <trkpt lat="45.0525" lon="4.27402">
        <ele>1043.17</ele>
        <time>2024-08-22T13:03:14Z</time>
      </trkpt>
      <trkpt lat="45.05246" lon="4.27388">
        <ele>1046.53</ele>
        <time>2024-08-22T13:03:23Z</time>
      </trkpt>
      <trkpt lat="45.05239" lon="4.27377">
        <ele>1048.45</ele>
        <time>2024-08-22T13:03:30Z</time>
      </trkpt>
      <trkpt lat="45.05231" lon="4.27363">
        <ele>1054.22</ele>
        <time>2024-08-22T13:03:42Z</time>
      </trkpt>
      <trkpt lat="45.0523" lon="4.27363">
        <ele>1054.22</ele>
        <time>2024-08-22T13:03:43Z</time>
      </trkpt>
      <trkpt lat="45.05227" lon="4.27364">
        <ele>1054.7</ele>
        <time>2024-08-22T13:03:45Z</time>
      </trkpt>
      <trkpt lat="45.05222" lon="4.27355">
        <ele>1055.67</ele>
        <time>2024-08-22T13:03:50Z</time>
      </trkpt>
      <trkpt lat="45.05219" lon="4.2735">
        <ele>1058.55</ele>
        <time>2024-08-22T13:04:01Z</time>
      </trkpt>
      <trkpt lat="45.05216" lon="4.27344">
        <ele>1065.76</ele>
        <time>2024-08-22T13:04:11Z</time>
      </trkpt>
      <trkpt lat="45.05207" lon="4.27343">
        <ele>1064.32</ele>
        <time>2024-08-22T13:04:22Z</time>
      </trkpt>
      <trkpt lat="45.05204" lon="4.27339">
        <ele>1065.28</ele>
        <time>2024-08-22T13:04:24Z</time>
      </trkpt>
      <trkpt lat="45.05194" lon="4.27331">
        <ele>1067.2</ele>
        <time>2024-08-22T13:04:29Z</time>
      </trkpt>
      <trkpt lat="45.052" lon="4.27314">
        <ele>1072.01</ele>
        <time>2024-08-22T13:04:44Z</time>
      </trkpt>
      <trkpt lat="45.05218" lon="4.27297">
        <ele>1067.68</ele>
        <time>2024-08-22T13:04:59Z</time>
      </trkpt>
      <trkpt lat="45.05224" lon="4.27294">
        <ele>1066.24</ele>
        <time>2024-08-22T13:05:03Z</time>
      </trkpt>
      <trkpt lat="45.0523" lon="4.27289">
        <ele>1063.36</ele>
        <time>2024-08-22T13:05:09Z</time>
      </trkpt>
      <trkpt lat="45.05246" lon="4.27284">
        <ele>1056.15</ele>
        <time>2024-08-22T13:05:22Z</time>
      </trkpt>
      <trkpt lat="45.05269" lon="4.27271">
        <ele>1042.69</ele>
        <time>2024-08-22T13:05:34Z</time>
      </trkpt>
      <trkpt lat="45.05275" lon="4.27269">
        <ele>1040.76</ele>
        <time>2024-08-22T13:05:38Z</time>
      </trkpt>
      <trkpt lat="45.05278" lon="4.27269">
        <ele>1040.28</ele>
        <time>2024-08-22T13:05:40Z</time>
      </trkpt>
      <trkpt lat="45.05293" lon="4.27265">
        <ele>1040.28</ele>
        <time>2024-08-22T13:05:53Z</time>
      </trkpt>
      <trkpt lat="45.05294" lon="4.27264">
        <ele>1040.76</ele>
        <time>2024-08-22T13:05:55Z</time>
      </trkpt>
      <trkpt lat="45.05309" lon="4.2726">
        <ele>1046.53</ele>
        <time>2024-08-22T13:06:08Z</time>
      </trkpt>
      <trkpt lat="45.05313" lon="4.27255">
        <ele>1048.94</ele>
        <time>2024-08-22T13:06:13Z</time>
      </trkpt>
      <trkpt lat="45.05316" lon="4.27251">
        <ele>1049.9</ele>
        <time>2024-08-22T13:06:16Z</time>
      </trkpt>
      <trkpt lat="45.05334" lon="4.27235">
        <ele>1050.38</ele>
        <time>2024-08-22T13:06:30Z</time>
      </trkpt>
      <trkpt lat="45.05358" lon="4.27223">
        <ele>1043.65</ele>
        <time>2024-08-22T13:06:48Z</time>
      </trkpt>
      <trkpt lat="45.05385" lon="4.27209">
        <ele>1036.44</ele>
        <time>2024-08-22T13:07:07Z</time>
      </trkpt>
      <trkpt lat="45.05401" lon="4.27203">
        <ele>1034.04</ele>
        <time>2024-08-22T13:07:21Z</time>
      </trkpt>
      <trkpt lat="45.05415" lon="4.27195">
        <ele>1032.59</ele>
        <time>2024-08-22T13:07:33Z</time>
      </trkpt>
      <trkpt lat="45.05419" lon="4.27195">
        <ele>1031.63</ele>
        <time>2024-08-22T13:07:37Z</time>
      </trkpt>
      <trkpt lat="45.05425" lon="4.27198">
        <ele>1032.11</ele>
        <time>2024-08-22T13:07:41Z</time>
      </trkpt>
      <trkpt lat="45.0545" lon="4.27196">
        <ele>1033.55</ele>
        <time>2024-08-22T13:07:58Z</time>
      </trkpt>
      <trkpt lat="45.05456" lon="4.27197">
        <ele>1035.48</ele>
        <time>2024-08-22T13:08:03Z</time>
      </trkpt>
      <trkpt lat="45.05481" lon="4.27199">
        <ele>1036.44</ele>
        <time>2024-08-22T13:08:22Z</time>
      </trkpt>
      <trkpt lat="45.0549" lon="4.27197">
        <ele>1029.71</ele>
        <time>2024-08-22T13:08:36Z</time>
      </trkpt>
      <trkpt lat="45.05493" lon="4.27198">
        <ele>1026.83</ele>
        <time>2024-08-22T13:08:39Z</time>
      </trkpt>
      <trkpt lat="45.05503" lon="4.27202">
        <ele>1022.98</ele>
        <time>2024-08-22T13:08:48Z</time>
      </trkpt>
      <trkpt lat="45.05507" lon="4.27207">
        <ele>1022.5</ele>
        <time>2024-08-22T13:08:53Z</time>
      </trkpt>
      <trkpt lat="45.0551" lon="4.2721">
        <ele>1022.5</ele>
        <time>2024-08-22T13:08:57Z</time>
      </trkpt>
      <trkpt lat="45.0553" lon="4.27217">
        <ele>1023.94</ele>
        <time>2024-08-22T13:09:12Z</time>
      </trkpt>
      <trkpt lat="45.0554" lon="4.2722">
        <ele>1027.79</ele>
        <time>2024-08-22T13:09:24Z</time>
      </trkpt>
      <trkpt lat="45.05541" lon="4.27219">
        <ele>1027.79</ele>
        <time>2024-08-22T13:09:42Z</time>
      </trkpt>
      <trkpt lat="45.05542" lon="4.27217">
        <ele>1027.31</ele>
        <time>2024-08-22T13:09:57Z</time>
      </trkpt>
      <trkpt lat="45.05542" lon="4.27216">
        <ele>1026.34</ele>
        <time>2024-08-22T13:10:19Z</time>
      </trkpt>
      <trkpt lat="45.05543" lon="4.27213">
        <ele>1027.79</ele>
        <time>2024-08-22T13:10:30Z</time>
      </trkpt>
      <trkpt lat="45.05548" lon="4.27211">
        <ele>1027.31</ele>
        <time>2024-08-22T13:10:39Z</time>
      </trkpt>
      <trkpt lat="45.05555" lon="4.27204">
        <ele>1027.31</ele>
        <time>2024-08-22T13:10:52Z</time>
      </trkpt>
      <trkpt lat="45.05571" lon="4.27202">
        <ele>1022.02</ele>
        <time>2024-08-22T13:11:05Z</time>
      </trkpt>
      <trkpt lat="45.05586" lon="4.27209">
        <ele>1015.77</ele>
        <time>2024-08-22T13:11:22Z</time>
      </trkpt>
      <trkpt lat="45.05592" lon="4.27211">
        <ele>1014.33</ele>
        <time>2024-08-22T13:11:26Z</time>
      </trkpt>
      <trkpt lat="45.05616" lon="4.27224">
        <ele>1007.6</ele>
        <time>2024-08-22T13:11:40Z</time>
      </trkpt>
      <trkpt lat="45.05632" lon="4.27234">
        <ele>1004.23</ele>
        <time>2024-08-22T13:11:50Z</time>
      </trkpt>
      <trkpt lat="45.0563" lon="4.27225">
        <ele>997.4</ele>
      </trkpt>
      <trkpt lat="45.05651" lon="4.27231">
        <ele>994.5</ele>
      </trkpt>
      <trkpt lat="45.05653" lon="4.27232">
        <ele>994.1</ele>
      </trkpt>
      <trkpt lat="45.05661" lon="4.27212">
        <ele>994.4</ele>
      </trkpt>
      <trkpt lat="45.05667" lon="4.27208">
        <ele>1017.21</ele>
        <time>2024-08-22T13:26:24Z</time>
      </trkpt>
      <trkpt lat="45.05675" lon="4.27181">
        <ele>1015.29</ele>
        <time>2024-08-22T13:26:36Z</time>
      </trkpt>
      <trkpt lat="45.05681" lon="4.27161">
        <ele>1015.29</ele>
        <time>2024-08-22T13:26:47Z</time>
      </trkpt>
      <trkpt lat="45.05682" lon="4.27154">
        <ele>1015.29</ele>
        <time>2024-08-22T13:26:52Z</time>
      </trkpt>
      <trkpt lat="45.05684" lon="4.27145">
        <ele>1015.77</ele>
        <time>2024-08-22T13:26:56Z</time>
      </trkpt>
      <trkpt lat="45.05691" lon="4.27123">
        <ele>1014.81</ele>
        <time>2024-08-22T13:27:05Z</time>
      </trkpt>
      <trkpt lat="45.05697" lon="4.27082">
        <ele>1011.93</ele>
        <time>2024-08-22T13:27:19Z</time>
      </trkpt>
      <trkpt lat="45.05699" lon="4.27037">
        <ele>1007.6</ele>
        <time>2024-08-22T13:27:35Z</time>
      </trkpt>
      <trkpt lat="45.05699" lon="4.27028">
        <ele>1008.08</ele>
        <time>2024-08-22T13:27:40Z</time>
      </trkpt>
      <trkpt lat="45.05697" lon="4.27016">
        <ele>1008.08</ele>
        <time>2024-08-22T13:27:45Z</time>
      </trkpt>
      <trkpt lat="45.05697" lon="4.2701">
        <ele>1008.08</ele>
        <time>2024-08-22T13:27:47Z</time>
      </trkpt>
      <trkpt lat="45.05695" lon="4.27003">
        <ele>1009.04</ele>
        <time>2024-08-22T13:27:50Z</time>
      </trkpt>
      <trkpt lat="45.05692" lon="4.26997">
        <ele>1010.96</ele>
        <time>2024-08-22T13:27:54Z</time>
      </trkpt>
      <trkpt lat="45.05685" lon="4.2697">
        <ele>1015.29</ele>
        <time>2024-08-22T13:28:08Z</time>
      </trkpt>
      <trkpt lat="45.05686" lon="4.26944">
        <ele>1014.33</ele>
        <time>2024-08-22T13:28:22Z</time>
      </trkpt>
      <trkpt lat="45.05686" lon="4.26934">
        <ele>1014.33</ele>
        <time>2024-08-22T13:28:26Z</time>
      </trkpt>
      <trkpt lat="45.05685" lon="4.26925">
        <ele>1015.29</ele>
        <time>2024-08-22T13:28:30Z</time>
      </trkpt>
      <trkpt lat="45.0568" lon="4.26892">
        <ele>1018.65</ele>
        <time>2024-08-22T13:28:44Z</time>
      </trkpt>
      <trkpt lat="45.05679" lon="4.26889">
        <ele>1018.65</ele>
        <time>2024-08-22T13:28:45Z</time>
      </trkpt>
      <trkpt lat="45.05673" lon="4.26865">
        <ele>1018.65</ele>
        <time>2024-08-22T13:28:57Z</time>
      </trkpt>
      <trkpt lat="45.05663" lon="4.26842">
        <ele>1021.06</ele>
        <time>2024-08-22T13:29:10Z</time>
      </trkpt>
      <trkpt lat="45.05657" lon="4.26834">
        <ele>1022.5</ele>
        <time>2024-08-22T13:29:14Z</time>
      </trkpt>
      <trkpt lat="45.05653" lon="4.26806">
        <ele>1025.38</ele>
        <time>2024-08-22T13:29:26Z</time>
      </trkpt>
      <trkpt lat="45.05647" lon="4.26786">
        <ele>1028.27</ele>
        <time>2024-08-22T13:29:39Z</time>
      </trkpt>
      <trkpt lat="45.05641" lon="4.26756">
        <ele>1025.38</ele>
        <time>2024-08-22T13:29:54Z</time>
      </trkpt>
      <trkpt lat="45.05643" lon="4.26746">
        <ele>1024.9</ele>
        <time>2024-08-22T13:29:59Z</time>
      </trkpt>
      <trkpt lat="45.05643" lon="4.26715">
        <ele>1021.06</ele>
        <time>2024-08-22T13:30:13Z</time>
      </trkpt>
      <trkpt lat="45.05643" lon="4.2671">
        <ele>1020.58</ele>
        <time>2024-08-22T13:30:15Z</time>
      </trkpt>
      <trkpt lat="45.05644" lon="4.26706">
        <ele>1020.58</ele>
        <time>2024-08-22T13:30:17Z</time>
      </trkpt>
      <trkpt lat="45.05646" lon="4.26698">
        <ele>1020.1</ele>
        <time>2024-08-22T13:30:21Z</time>
      </trkpt>
      <trkpt lat="45.05649" lon="4.26692">
        <ele>1017.69</ele>
        <time>2024-08-22T13:30:25Z</time>
      </trkpt>
      <trkpt lat="45.05652" lon="4.26685">
        <ele>1014.33</ele>
        <time>2024-08-22T13:30:29Z</time>
      </trkpt>
      <trkpt lat="45.05654" lon="4.26682">
        <ele>1012.41</ele>
        <time>2024-08-22T13:30:32Z</time>
      </trkpt>
      <trkpt lat="45.05659" lon="4.26675">
        <ele>1009.04</ele>
        <time>2024-08-22T13:30:37Z</time>
      </trkpt>
      <trkpt lat="45.05673" lon="4.26662">
        <ele>1005.68</ele>
        <time>2024-08-22T13:30:49Z</time>
      </trkpt>
      <trkpt lat="45.05677" lon="4.26651">
        <ele>1005.68</ele>
        <time>2024-08-22T13:30:57Z</time>
      </trkpt>
      <trkpt lat="45.05676" lon="4.26648">
        <ele>1006.64</ele>
        <time>2024-08-22T13:30:59Z</time>
      </trkpt>
      <trkpt lat="45.05677" lon="4.26646">
        <ele>1007.6</ele>
        <time>2024-08-22T13:31:01Z</time>
      </trkpt>
      <trkpt lat="45.05684" lon="4.26626">
        <ele>1013.85</ele>
        <time>2024-08-22T13:31:14Z</time>
      </trkpt>
      <trkpt lat="45.0569" lon="4.26605">
        <ele>1020.58</ele>
        <time>2024-08-22T13:31:26Z</time>
      </trkpt>
      <trkpt lat="45.0569" lon="4.26573">
        <ele>1019.13</ele>
        <time>2024-08-22T13:31:39Z</time>
      </trkpt>
      <trkpt lat="45.05685" lon="4.26539">
        <ele>1011.44</ele>
        <time>2024-08-22T13:31:56Z</time>
      </trkpt>
      <trkpt lat="45.05682" lon="4.26504">
        <ele>1007.6</ele>
        <time>2024-08-22T13:32:14Z</time>
      </trkpt>
      <trkpt lat="45.05678" lon="4.26466">
        <ele>1007.12</ele>
        <time>2024-08-22T13:32:32Z</time>
      </trkpt>
      <trkpt lat="45.05677" lon="4.26462">
        <ele>1007.12</ele>
        <time>2024-08-22T13:32:34Z</time>
      </trkpt>
      <trkpt lat="45.05674" lon="4.26448">
        <ele>1006.64</ele>
        <time>2024-08-22T13:32:42Z</time>
      </trkpt>
      <trkpt lat="45.05672" lon="4.26411">
        <ele>1009.04</ele>
        <time>2024-08-22T13:33:00Z</time>
      </trkpt>
      <trkpt lat="45.05669" lon="4.26374">
        <ele>1011.93</ele>
        <time>2024-08-22T13:33:19Z</time>
      </trkpt>
      <trkpt lat="45.05667" lon="4.26353">
        <ele>1013.37</ele>
        <time>2024-08-22T13:33:31Z</time>
      </trkpt>
      <trkpt lat="45.05666" lon="4.26324">
        <ele>1017.69</ele>
        <time>2024-08-22T13:33:46Z</time>
      </trkpt>
      <trkpt lat="45.05668" lon="4.26286">
        <ele>1021.54</ele>
        <time>2024-08-22T13:34:02Z</time>
      </trkpt>
      <trkpt lat="45.0567" lon="4.26251">
        <ele>1022.5</ele>
        <time>2024-08-22T13:34:19Z</time>
      </trkpt>
      <trkpt lat="45.05669" lon="4.26237">
        <ele>1021.54</ele>
        <time>2024-08-22T13:34:31Z</time>
      </trkpt>
      <trkpt lat="45.05669" lon="4.26236">
        <ele>1020.58</ele>
        <time>2024-08-22T13:34:42Z</time>
      </trkpt>
      <trkpt lat="45.05669" lon="4.26234">
        <ele>1020.1</ele>
        <time>2024-08-22T13:34:56Z</time>
      </trkpt>
      <trkpt lat="45.05668" lon="4.26234">
        <ele>1019.62</ele>
        <time>2024-08-22T13:35:14Z</time>
      </trkpt>
      <trkpt lat="45.05668" lon="4.26232">
        <ele>1018.65</ele>
        <time>2024-08-22T13:35:28Z</time>
      </trkpt>
      <trkpt lat="45.05668" lon="4.26231">
        <ele>1018.17</ele>
        <time>2024-08-22T13:35:43Z</time>
      </trkpt>
      <trkpt lat="45.05669" lon="4.26231">
        <ele>1018.65</ele>
        <time>2024-08-22T13:35:56Z</time>
      </trkpt>
      <trkpt lat="45.05669" lon="4.26231">
        <ele>1018.65</ele>
        <time>2024-08-22T13:36:09Z</time>
      </trkpt>
      <trkpt lat="45.05669" lon="4.26231">
        <ele>1018.65</ele>
        <time>2024-08-22T13:36:31Z</time>
      </trkpt>
      <trkpt lat="45.05669" lon="4.26231">
        <ele>1018.65</ele>
        <time>2024-08-22T13:36:48Z</time>
      </trkpt>
      <trkpt lat="45.05669" lon="4.26232">
        <ele>1018.65</ele>
        <time>2024-08-22T13:36:58Z</time>
      </trkpt>
      <trkpt lat="45.05669" lon="4.26229">
        <ele>1019.13</ele>
        <time>2024-08-22T13:37:07Z</time>
      </trkpt>
      <trkpt lat="45.0567" lon="4.26223">
        <ele>1019.62</ele>
        <time>2024-08-22T13:37:11Z</time>
      </trkpt>
      <trkpt lat="45.05669" lon="4.26212">
        <ele>1019.62</ele>
        <time>2024-08-22T13:37:18Z</time>
      </trkpt>
      <trkpt lat="45.05668" lon="4.26199">
        <ele>1019.62</ele>
        <time>2024-08-22T13:37:27Z</time>
      </trkpt>
      <trkpt lat="45.05667" lon="4.26195">
        <ele>1019.13</ele>
        <time>2024-08-22T13:37:30Z</time>
      </trkpt>
      <trkpt lat="45.05656" lon="4.26165">
        <ele>1019.13</ele>
        <time>2024-08-22T13:37:50Z</time>
      </trkpt>
      <trkpt lat="45.05652" lon="4.26127">
        <ele>1019.62</ele>
        <time>2024-08-22T13:38:12Z</time>
      </trkpt>
      <trkpt lat="45.0565" lon="4.26088">
        <ele>1020.58</ele>
        <time>2024-08-22T13:38:33Z</time>
      </trkpt>
      <trkpt lat="45.05647" lon="4.26053">
        <ele>1019.13</ele>
        <time>2024-08-22T13:38:53Z</time>
      </trkpt>
      <trkpt lat="45.05654" lon="4.2604">
        <ele>1019.62</ele>
        <time>2024-08-22T13:39:03Z</time>
      </trkpt>
      <trkpt lat="45.05654" lon="4.26033">
        <ele>1020.1</ele>
        <time>2024-08-22T13:39:07Z</time>
      </trkpt>
      <trkpt lat="45.05654" lon="4.25996">
        <ele>1021.54</ele>
        <time>2024-08-22T13:39:26Z</time>
      </trkpt>
      <trkpt lat="45.05656" lon="4.25966">
        <ele>1021.54</ele>
        <time>2024-08-22T13:39:43Z</time>
      </trkpt>
      <trkpt lat="45.05661" lon="4.25941">
        <ele>1021.54</ele>
        <time>2024-08-22T13:39:57Z</time>
      </trkpt>
      <trkpt lat="45.05667" lon="4.25908">
        <ele>1024.42</ele>
        <time>2024-08-22T13:40:15Z</time>
      </trkpt>
      <trkpt lat="45.05669" lon="4.25882">
        <ele>1025.38</ele>
        <time>2024-08-22T13:40:29Z</time>
      </trkpt>
      <trkpt lat="45.0567" lon="4.25851">
        <ele>1025.86</ele>
        <time>2024-08-22T13:40:45Z</time>
      </trkpt>
      <trkpt lat="45.05668" lon="4.25819">
        <ele>1025.86</ele>
        <time>2024-08-22T13:41:02Z</time>
      </trkpt>
      <trkpt lat="45.05665" lon="4.25789">
        <ele>1025.86</ele>
        <time>2024-08-22T13:41:18Z</time>
      </trkpt>
      <trkpt lat="45.05665" lon="4.25765">
        <ele>1026.34</ele>
        <time>2024-08-22T13:41:30Z</time>
      </trkpt>
      <trkpt lat="45.05665" lon="4.25754">
        <ele>1025.38</ele>
        <time>2024-08-22T13:41:36Z</time>
      </trkpt>
      <trkpt lat="45.05664" lon="4.25741">
        <ele>1024.9</ele>
        <time>2024-08-22T13:41:44Z</time>
      </trkpt>
      <trkpt lat="45.05665" lon="4.25732">
        <ele>1025.38</ele>
        <time>2024-08-22T13:41:49Z</time>
      </trkpt>
      <trkpt lat="45.05659" lon="4.25703">
        <ele>1029.23</ele>
        <time>2024-08-22T13:42:06Z</time>
      </trkpt>
      <trkpt lat="45.0565" lon="4.2567">
        <ele>1030.67</ele>
        <time>2024-08-22T13:42:24Z</time>
      </trkpt>
      <trkpt lat="45.05638" lon="4.25642">
        <ele>1030.67</ele>
        <time>2024-08-22T13:42:42Z</time>
      </trkpt>
      <trkpt lat="45.05632" lon="4.25617">
        <ele>1030.19</ele>
        <time>2024-08-22T13:42:58Z</time>
      </trkpt>
      <trkpt lat="45.05629" lon="4.25598">
        <ele>1033.55</ele>
        <time>2024-08-22T13:43:10Z</time>
      </trkpt>
      <trkpt lat="45.05622" lon="4.25558">
        <ele>1034.04</ele>
        <time>2024-08-22T13:43:30Z</time>
      </trkpt>
      <trkpt lat="45.05615" lon="4.25535">
        <ele>1030.67</ele>
        <time>2024-08-22T13:43:43Z</time>
      </trkpt>
      <trkpt lat="45.05602" lon="4.25511">
        <ele>1029.23</ele>
        <time>2024-08-22T13:43:59Z</time>
      </trkpt>
      <trkpt lat="45.05597" lon="4.25502">
        <ele>1027.31</ele>
        <time>2024-08-22T13:44:11Z</time>
      </trkpt>
      <trkpt lat="45.05597" lon="4.25502">
        <ele>1027.31</ele>
        <time>2024-08-22T13:44:33Z</time>
      </trkpt>
      <trkpt lat="45.05595" lon="4.25501">
        <ele>1026.83</ele>
        <time>2024-08-22T13:44:54Z</time>
      </trkpt>
      <trkpt lat="45.05594" lon="4.255">
        <ele>1027.31</ele>
        <time>2024-08-22T13:45:05Z</time>
      </trkpt>
      <trkpt lat="45.05595" lon="4.25498">
        <ele>1028.27</ele>
        <time>2024-08-22T13:45:19Z</time>
      </trkpt>
      <trkpt lat="45.05594" lon="4.25497">
        <ele>1028.75</ele>
        <time>2024-08-22T13:45:33Z</time>
      </trkpt>
      <trkpt lat="45.05591" lon="4.25483">
        <ele>1026.83</ele>
        <time>2024-08-22T13:45:46Z</time>
      </trkpt>
      <trkpt lat="45.05584" lon="4.25473">
        <ele>1023.94</ele>
        <time>2024-08-22T13:45:58Z</time>
      </trkpt>
      <trkpt lat="45.05582" lon="4.25453">
        <ele>1022.98</ele>
        <time>2024-08-22T13:46:09Z</time>
      </trkpt>
      <trkpt lat="45.05581" lon="4.25437">
        <ele>1023.46</ele>
        <time>2024-08-22T13:46:16Z</time>
      </trkpt>
      <trkpt lat="45.0558" lon="4.25409">
        <ele>1022.98</ele>
        <time>2024-08-22T13:46:29Z</time>
      </trkpt>
      <trkpt lat="45.05579" lon="4.25405">
        <ele>1022.02</ele>
        <time>2024-08-22T13:46:32Z</time>
      </trkpt>
      <trkpt lat="45.05576" lon="4.25376">
        <ele>1021.54</ele>
        <time>2024-08-22T13:46:47Z</time>
      </trkpt>
      <trkpt lat="45.05578" lon="4.25349">
        <ele>1020.1</ele>
        <time>2024-08-22T13:47:02Z</time>
      </trkpt>
      <trkpt lat="45.05581" lon="4.25318">
        <ele>1019.62</ele>
        <time>2024-08-22T13:47:20Z</time>
      </trkpt>
      <trkpt lat="45.05584" lon="4.25287">
        <ele>1020.1</ele>
        <time>2024-08-22T13:47:37Z</time>
      </trkpt>
      <trkpt lat="45.05586" lon="4.25256">
        <ele>1020.58</ele>
        <time>2024-08-22T13:47:55Z</time>
      </trkpt>
      <trkpt lat="45.05588" lon="4.25226">
        <ele>1021.54</ele>
        <time>2024-08-22T13:48:12Z</time>
      </trkpt>
      <trkpt lat="45.05589" lon="4.25222">
        <ele>1022.02</ele>
        <time>2024-08-22T13:48:20Z</time>
      </trkpt>
      <trkpt lat="45.0559" lon="4.2522">
        <ele>1022.98</ele>
        <time>2024-08-22T13:48:31Z</time>
      </trkpt>
      <trkpt lat="45.0559" lon="4.25217">
        <ele>1022.5</ele>
        <time>2024-08-22T13:48:43Z</time>
      </trkpt>
      <trkpt lat="45.05588" lon="4.25203">
        <ele>1022.02</ele>
        <time>2024-08-22T13:48:56Z</time>
      </trkpt>
      <trkpt lat="45.05586" lon="4.25198">
        <ele>1021.06</ele>
        <time>2024-08-22T13:49:03Z</time>
      </trkpt>
      <trkpt lat="45.05576" lon="4.25194">
        <ele>1021.06</ele>
        <time>2024-08-22T13:49:15Z</time>
      </trkpt>
      <trkpt lat="45.05559" lon="4.25185">
        <ele>1025.86</ele>
        <time>2024-08-22T13:49:30Z</time>
      </trkpt>
      <trkpt lat="45.05536" lon="4.25176">
        <ele>1030.67</ele>
        <time>2024-08-22T13:49:47Z</time>
      </trkpt>
      <trkpt lat="45.05514" lon="4.25169">
        <ele>1028.27</ele>
        <time>2024-08-22T13:50:04Z</time>
      </trkpt>
      <trkpt lat="45.05493" lon="4.25157">
        <ele>1025.38</ele>
        <time>2024-08-22T13:50:23Z</time>
      </trkpt>
      <trkpt lat="45.05492" lon="4.25155">
        <ele>1024.9</ele>
        <time>2024-08-22T13:50:29Z</time>
      </trkpt>
      <trkpt lat="45.0549" lon="4.25152">
        <ele>1024.42</ele>
        <time>2024-08-22T13:50:32Z</time>
      </trkpt>
      <trkpt lat="45.05489" lon="4.25133">
        <ele>1023.46</ele>
        <time>2024-08-22T13:50:46Z</time>
      </trkpt>
      <trkpt lat="45.05491" lon="4.25121">
        <ele>1022.98</ele>
        <time>2024-08-22T13:51:00Z</time>
      </trkpt>
      <trkpt lat="45.05491" lon="4.25119">
        <ele>1022.5</ele>
        <time>2024-08-22T13:51:16Z</time>
      </trkpt>
      <trkpt lat="45.05492" lon="4.25119">
        <ele>1022.98</ele>
        <time>2024-08-22T13:51:38Z</time>
      </trkpt>
      <trkpt lat="45.05492" lon="4.25118">
        <ele>1023.46</ele>
        <time>2024-08-22T13:52:00Z</time>
      </trkpt>
      <trkpt lat="45.0549" lon="4.25119">
        <ele>1023.94</ele>
        <time>2024-08-22T13:52:18Z</time>
      </trkpt>
      <trkpt lat="45.0549" lon="4.25119">
        <ele>1023.46</ele>
        <time>2024-08-22T13:52:32Z</time>
      </trkpt>
    </trkseg>
  </trk>
</gpx>